<?xml version="1.0" encoding="UTF-8" standalone="no" ?>
<gpx xmlns="http://www.topografix.com/GPX/1/1" xmlns:xsi="http://www.w3.org/2001/XMLSchema-instance" xsi:schemaLocation="http://www.topografix.com/GPX/1/1 http://www.topografix.com/GPX/1/1/gpx.xsd" version="1.1" creator="VisuGPX - https://www.visugpx.com">
  <metadata>
    <name>Sortie VTT dans l'après-midi</name>
  </metadata>
  <trk>
    <name><![CDATA[Sortie VTT dans l'après-midi_1]]></name>
    <trkseg>
      <trkpt lat="43.02228" lon="3.04185">
        <ele>1.8</ele>
        <time>2023-12-30T13:25:54Z</time>
      </trkpt>
      <trkpt lat="43.02228" lon="3.04185">
        <ele>5.6</ele>
        <time>2023-12-30T13:25:55Z</time>
      </trkpt>
      <trkpt lat="43.02232" lon="3.04184">
        <ele>6</ele>
        <time>2023-12-30T13:25:59Z</time>
      </trkpt>
      <trkpt lat="43.02234" lon="3.04185">
        <ele>5.8</ele>
        <time>2023-12-30T13:26:00Z</time>
      </trkpt>
      <trkpt lat="43.02236" lon="3.04186">
        <ele>6</ele>
        <time>2023-12-30T13:26:01Z</time>
      </trkpt>
      <trkpt lat="43.02238" lon="3.04188">
        <ele>6</ele>
        <time>2023-12-30T13:26:02Z</time>
      </trkpt>
      <trkpt lat="43.0224" lon="3.04189">
        <ele>6.2</ele>
        <time>2023-12-30T13:26:03Z</time>
      </trkpt>
      <trkpt lat="43.02247" lon="3.04195">
        <ele>6.2</ele>
        <time>2023-12-30T13:26:06Z</time>
      </trkpt>
      <trkpt lat="43.02249" lon="3.04196">
        <ele>6.2</ele>
        <time>2023-12-30T13:26:07Z</time>
      </trkpt>
      <trkpt lat="43.02252" lon="3.04198">
        <ele>6.2</ele>
        <time>2023-12-30T13:26:08Z</time>
      </trkpt>
      <trkpt lat="43.02258" lon="3.04202">
        <ele>6.4</ele>
        <time>2023-12-30T13:26:10Z</time>
      </trkpt>
      <trkpt lat="43.0226" lon="3.04203">
        <ele>6.4</ele>
        <time>2023-12-30T13:26:11Z</time>
      </trkpt>
      <trkpt lat="43.02263" lon="3.04205">
        <ele>6.4</ele>
        <time>2023-12-30T13:26:12Z</time>
      </trkpt>
      <trkpt lat="43.02266" lon="3.04207">
        <ele>6.4</ele>
        <time>2023-12-30T13:26:13Z</time>
      </trkpt>
      <trkpt lat="43.02282" lon="3.04218">
        <ele>6.4</ele>
        <time>2023-12-30T13:26:19Z</time>
      </trkpt>
      <trkpt lat="43.02285" lon="3.0422">
        <ele>6.4</ele>
        <time>2023-12-30T13:26:20Z</time>
      </trkpt>
      <trkpt lat="43.02287" lon="3.04221">
        <ele>6.4</ele>
        <time>2023-12-30T13:26:21Z</time>
      </trkpt>
      <trkpt lat="43.02294" lon="3.04226">
        <ele>6.6</ele>
        <time>2023-12-30T13:26:24Z</time>
      </trkpt>
      <trkpt lat="43.02297" lon="3.04228">
        <ele>6.6</ele>
        <time>2023-12-30T13:26:25Z</time>
      </trkpt>
      <trkpt lat="43.02301" lon="3.0423">
        <ele>6.6</ele>
        <time>2023-12-30T13:26:26Z</time>
      </trkpt>
      <trkpt lat="43.02303" lon="3.04231">
        <ele>6.6</ele>
        <time>2023-12-30T13:26:27Z</time>
      </trkpt>
      <trkpt lat="43.02309" lon="3.04235">
        <ele>6.6</ele>
        <time>2023-12-30T13:26:30Z</time>
      </trkpt>
      <trkpt lat="43.02311" lon="3.04236">
        <ele>6.6</ele>
        <time>2023-12-30T13:26:31Z</time>
      </trkpt>
      <trkpt lat="43.02312" lon="3.04237">
        <ele>6.6</ele>
        <time>2023-12-30T13:26:32Z</time>
      </trkpt>
      <trkpt lat="43.02313" lon="3.04238">
        <ele>6.8</ele>
        <time>2023-12-30T13:26:33Z</time>
      </trkpt>
      <trkpt lat="43.02315" lon="3.04239">
        <ele>6.8</ele>
        <time>2023-12-30T13:26:34Z</time>
      </trkpt>
      <trkpt lat="43.02316" lon="3.04241">
        <ele>6.8</ele>
        <time>2023-12-30T13:26:35Z</time>
      </trkpt>
      <trkpt lat="43.02318" lon="3.04246">
        <ele>6.8</ele>
        <time>2023-12-30T13:26:37Z</time>
      </trkpt>
      <trkpt lat="43.02316" lon="3.04254">
        <ele>6.8</ele>
        <time>2023-12-30T13:26:40Z</time>
      </trkpt>
      <trkpt lat="43.02316" lon="3.04256">
        <ele>6.8</ele>
        <time>2023-12-30T13:26:41Z</time>
      </trkpt>
      <trkpt lat="43.02315" lon="3.04258">
        <ele>6.8</ele>
        <time>2023-12-30T13:26:42Z</time>
      </trkpt>
      <trkpt lat="43.02312" lon="3.04266">
        <ele>6.8</ele>
        <time>2023-12-30T13:26:45Z</time>
      </trkpt>
      <trkpt lat="43.02309" lon="3.04274">
        <ele>6.8</ele>
        <time>2023-12-30T13:26:48Z</time>
      </trkpt>
      <trkpt lat="43.02308" lon="3.04276">
        <ele>6.8</ele>
        <time>2023-12-30T13:26:49Z</time>
      </trkpt>
      <trkpt lat="43.02307" lon="3.04279">
        <ele>6.8</ele>
        <time>2023-12-30T13:26:50Z</time>
      </trkpt>
      <trkpt lat="43.02306" lon="3.04286">
        <ele>6.8</ele>
        <time>2023-12-30T13:26:53Z</time>
      </trkpt>
      <trkpt lat="43.02307" lon="3.04288">
        <ele>6.6</ele>
        <time>2023-12-30T13:26:54Z</time>
      </trkpt>
      <trkpt lat="43.02308" lon="3.0429">
        <ele>6.6</ele>
        <time>2023-12-30T13:26:55Z</time>
      </trkpt>
      <trkpt lat="43.02308" lon="3.04292">
        <ele>6.6</ele>
        <time>2023-12-30T13:26:56Z</time>
      </trkpt>
      <trkpt lat="43.02308" lon="3.04293">
        <ele>6.6</ele>
        <time>2023-12-30T13:26:57Z</time>
      </trkpt>
      <trkpt lat="43.02308" lon="3.04295">
        <ele>6.6</ele>
        <time>2023-12-30T13:26:58Z</time>
      </trkpt>
      <trkpt lat="43.02307" lon="3.04298">
        <ele>6.6</ele>
        <time>2023-12-30T13:26:59Z</time>
      </trkpt>
      <trkpt lat="43.02306" lon="3.04301">
        <ele>6.8</ele>
        <time>2023-12-30T13:27:00Z</time>
      </trkpt>
      <trkpt lat="43.02305" lon="3.04304">
        <ele>6.8</ele>
        <time>2023-12-30T13:27:01Z</time>
      </trkpt>
      <trkpt lat="43.02304" lon="3.04307">
        <ele>6.8</ele>
        <time>2023-12-30T13:27:02Z</time>
      </trkpt>
      <trkpt lat="43.02295" lon="3.04335">
        <ele>7</ele>
        <time>2023-12-30T13:27:10Z</time>
      </trkpt>
      <trkpt lat="43.02287" lon="3.04358">
        <ele>7.2</ele>
        <time>2023-12-30T13:27:17Z</time>
      </trkpt>
      <trkpt lat="43.02286" lon="3.04361">
        <ele>7</ele>
        <time>2023-12-30T13:27:18Z</time>
      </trkpt>
      <trkpt lat="43.02285" lon="3.04364">
        <ele>7</ele>
        <time>2023-12-30T13:27:19Z</time>
      </trkpt>
      <trkpt lat="43.02284" lon="3.04367">
        <ele>7.2</ele>
        <time>2023-12-30T13:27:20Z</time>
      </trkpt>
      <trkpt lat="43.02283" lon="3.0437">
        <ele>7</ele>
        <time>2023-12-30T13:27:21Z</time>
      </trkpt>
      <trkpt lat="43.02282" lon="3.04374">
        <ele>7</ele>
        <time>2023-12-30T13:27:22Z</time>
      </trkpt>
      <trkpt lat="43.02281" lon="3.04377">
        <ele>7</ele>
        <time>2023-12-30T13:27:23Z</time>
      </trkpt>
      <trkpt lat="43.02279" lon="3.04385">
        <ele>7</ele>
        <time>2023-12-30T13:27:26Z</time>
      </trkpt>
      <trkpt lat="43.02279" lon="3.04388">
        <ele>7</ele>
        <time>2023-12-30T13:27:27Z</time>
      </trkpt>
      <trkpt lat="43.02278" lon="3.04392">
        <ele>7.2</ele>
        <time>2023-12-30T13:27:28Z</time>
      </trkpt>
      <trkpt lat="43.02275" lon="3.044">
        <ele>7.4</ele>
        <time>2023-12-30T13:27:30Z</time>
      </trkpt>
      <trkpt lat="43.02266" lon="3.04428">
        <ele>7.2</ele>
        <time>2023-12-30T13:27:37Z</time>
      </trkpt>
      <trkpt lat="43.02265" lon="3.04432">
        <ele>7.2</ele>
        <time>2023-12-30T13:27:38Z</time>
      </trkpt>
      <trkpt lat="43.02261" lon="3.04443">
        <ele>7.2</ele>
        <time>2023-12-30T13:27:41Z</time>
      </trkpt>
      <trkpt lat="43.0226" lon="3.04446">
        <ele>7.4</ele>
        <time>2023-12-30T13:27:42Z</time>
      </trkpt>
      <trkpt lat="43.02259" lon="3.0445">
        <ele>7.4</ele>
        <time>2023-12-30T13:27:43Z</time>
      </trkpt>
      <trkpt lat="43.02258" lon="3.04453">
        <ele>7.4</ele>
        <time>2023-12-30T13:27:44Z</time>
      </trkpt>
      <trkpt lat="43.02257" lon="3.04457">
        <ele>7.4</ele>
        <time>2023-12-30T13:27:45Z</time>
      </trkpt>
      <trkpt lat="43.02256" lon="3.0446">
        <ele>7.4</ele>
        <time>2023-12-30T13:27:46Z</time>
      </trkpt>
      <trkpt lat="43.02255" lon="3.04463">
        <ele>7.4</ele>
        <time>2023-12-30T13:27:47Z</time>
      </trkpt>
      <trkpt lat="43.02253" lon="3.04467">
        <ele>7.4</ele>
        <time>2023-12-30T13:27:48Z</time>
      </trkpt>
      <trkpt lat="43.02243" lon="3.04501">
        <ele>7.4</ele>
        <time>2023-12-30T13:27:57Z</time>
      </trkpt>
      <trkpt lat="43.02233" lon="3.04534">
        <ele>7.4</ele>
        <time>2023-12-30T13:28:05Z</time>
      </trkpt>
      <trkpt lat="43.02232" lon="3.04538">
        <ele>7.4</ele>
        <time>2023-12-30T13:28:06Z</time>
      </trkpt>
      <trkpt lat="43.02227" lon="3.04553">
        <ele>7.4</ele>
        <time>2023-12-30T13:28:10Z</time>
      </trkpt>
      <trkpt lat="43.02225" lon="3.04557">
        <ele>7.4</ele>
        <time>2023-12-30T13:28:11Z</time>
      </trkpt>
      <trkpt lat="43.02224" lon="3.04561">
        <ele>7.4</ele>
        <time>2023-12-30T13:28:12Z</time>
      </trkpt>
      <trkpt lat="43.02223" lon="3.04565">
        <ele>7.4</ele>
        <time>2023-12-30T13:28:13Z</time>
      </trkpt>
      <trkpt lat="43.02221" lon="3.04568">
        <ele>7.4</ele>
        <time>2023-12-30T13:28:14Z</time>
      </trkpt>
      <trkpt lat="43.0222" lon="3.04572">
        <ele>7.2</ele>
        <time>2023-12-30T13:28:15Z</time>
      </trkpt>
      <trkpt lat="43.02219" lon="3.04575">
        <ele>7.2</ele>
        <time>2023-12-30T13:28:16Z</time>
      </trkpt>
      <trkpt lat="43.02218" lon="3.04578">
        <ele>7.2</ele>
        <time>2023-12-30T13:28:17Z</time>
      </trkpt>
      <trkpt lat="43.02217" lon="3.0458">
        <ele>7.2</ele>
        <time>2023-12-30T13:28:18Z</time>
      </trkpt>
      <trkpt lat="43.02216" lon="3.04583">
        <ele>7.2</ele>
        <time>2023-12-30T13:28:19Z</time>
      </trkpt>
      <trkpt lat="43.02215" lon="3.04586">
        <ele>7.2</ele>
        <time>2023-12-30T13:28:20Z</time>
      </trkpt>
      <trkpt lat="43.02214" lon="3.04588">
        <ele>7.2</ele>
        <time>2023-12-30T13:28:21Z</time>
      </trkpt>
      <trkpt lat="43.02213" lon="3.0459">
        <ele>7.2</ele>
        <time>2023-12-30T13:28:22Z</time>
      </trkpt>
      <trkpt lat="43.02212" lon="3.04593">
        <ele>7.2</ele>
        <time>2023-12-30T13:28:23Z</time>
      </trkpt>
      <trkpt lat="43.02211" lon="3.04595">
        <ele>7.2</ele>
        <time>2023-12-30T13:28:24Z</time>
      </trkpt>
      <trkpt lat="43.02211" lon="3.04597">
        <ele>7</ele>
        <time>2023-12-30T13:28:25Z</time>
      </trkpt>
      <trkpt lat="43.0221" lon="3.04599">
        <ele>7</ele>
        <time>2023-12-30T13:28:26Z</time>
      </trkpt>
      <trkpt lat="43.0221" lon="3.04601">
        <ele>7</ele>
        <time>2023-12-30T13:28:27Z</time>
      </trkpt>
      <trkpt lat="43.02209" lon="3.04602">
        <ele>7</ele>
        <time>2023-12-30T13:28:28Z</time>
      </trkpt>
      <trkpt lat="43.02208" lon="3.04604">
        <ele>7</ele>
        <time>2023-12-30T13:28:29Z</time>
      </trkpt>
      <trkpt lat="43.02208" lon="3.04606">
        <ele>7</ele>
        <time>2023-12-30T13:28:30Z</time>
      </trkpt>
      <trkpt lat="43.02207" lon="3.04608">
        <ele>7</ele>
        <time>2023-12-30T13:28:31Z</time>
      </trkpt>
      <trkpt lat="43.02207" lon="3.0461">
        <ele>7</ele>
        <time>2023-12-30T13:28:32Z</time>
      </trkpt>
      <trkpt lat="43.02206" lon="3.04612">
        <ele>7</ele>
        <time>2023-12-30T13:28:33Z</time>
      </trkpt>
      <trkpt lat="43.02205" lon="3.04614">
        <ele>6.8</ele>
        <time>2023-12-30T13:28:34Z</time>
      </trkpt>
      <trkpt lat="43.02199" lon="3.04634">
        <ele>6.8</ele>
        <time>2023-12-30T13:28:43Z</time>
      </trkpt>
      <trkpt lat="43.02198" lon="3.04637">
        <ele>6.8</ele>
        <time>2023-12-30T13:28:44Z</time>
      </trkpt>
      <trkpt lat="43.02191" lon="3.0466">
        <ele>6.8</ele>
        <time>2023-12-30T13:28:54Z</time>
      </trkpt>
      <trkpt lat="43.02191" lon="3.04662">
        <ele>6.8</ele>
        <time>2023-12-30T13:28:55Z</time>
      </trkpt>
      <trkpt lat="43.0219" lon="3.04664">
        <ele>6.8</ele>
        <time>2023-12-30T13:28:56Z</time>
      </trkpt>
      <trkpt lat="43.0219" lon="3.04666">
        <ele>6.8</ele>
        <time>2023-12-30T13:28:57Z</time>
      </trkpt>
      <trkpt lat="43.02189" lon="3.04667">
        <ele>6.8</ele>
        <time>2023-12-30T13:28:58Z</time>
      </trkpt>
      <trkpt lat="43.02188" lon="3.0467">
        <ele>6.8</ele>
        <time>2023-12-30T13:28:59Z</time>
      </trkpt>
      <trkpt lat="43.02188" lon="3.04672">
        <ele>6.8</ele>
        <time>2023-12-30T13:29:00Z</time>
      </trkpt>
      <trkpt lat="43.02187" lon="3.04674">
        <ele>6.8</ele>
        <time>2023-12-30T13:29:01Z</time>
      </trkpt>
      <trkpt lat="43.02186" lon="3.04676">
        <ele>6.8</ele>
        <time>2023-12-30T13:29:02Z</time>
      </trkpt>
      <trkpt lat="43.02181" lon="3.04689">
        <ele>6.6</ele>
        <time>2023-12-30T13:29:07Z</time>
      </trkpt>
      <trkpt lat="43.02178" lon="3.04694">
        <ele>6.8</ele>
        <time>2023-12-30T13:29:09Z</time>
      </trkpt>
      <trkpt lat="43.02177" lon="3.04698">
        <ele>6.8</ele>
        <time>2023-12-30T13:29:10Z</time>
      </trkpt>
      <trkpt lat="43.02168" lon="3.04728">
        <ele>7</ele>
        <time>2023-12-30T13:29:19Z</time>
      </trkpt>
      <trkpt lat="43.02157" lon="3.0476">
        <ele>6.6</ele>
        <time>2023-12-30T13:29:28Z</time>
      </trkpt>
      <trkpt lat="43.02152" lon="3.04775">
        <ele>6.6</ele>
        <time>2023-12-30T13:29:32Z</time>
      </trkpt>
      <trkpt lat="43.0215" lon="3.04779">
        <ele>7</ele>
        <time>2023-12-30T13:29:33Z</time>
      </trkpt>
      <trkpt lat="43.02149" lon="3.04782">
        <ele>7</ele>
        <time>2023-12-30T13:29:34Z</time>
      </trkpt>
      <trkpt lat="43.02148" lon="3.04786">
        <ele>7</ele>
        <time>2023-12-30T13:29:35Z</time>
      </trkpt>
      <trkpt lat="43.02146" lon="3.04793">
        <ele>7</ele>
        <time>2023-12-30T13:29:37Z</time>
      </trkpt>
      <trkpt lat="43.02141" lon="3.04807">
        <ele>7.2</ele>
        <time>2023-12-30T13:29:41Z</time>
      </trkpt>
      <trkpt lat="43.02139" lon="3.04812">
        <ele>7.2</ele>
        <time>2023-12-30T13:29:42Z</time>
      </trkpt>
      <trkpt lat="43.02138" lon="3.04814">
        <ele>6.8</ele>
        <time>2023-12-30T13:29:43Z</time>
      </trkpt>
      <trkpt lat="43.02137" lon="3.04818">
        <ele>6.8</ele>
        <time>2023-12-30T13:29:44Z</time>
      </trkpt>
      <trkpt lat="43.02136" lon="3.04821">
        <ele>6.8</ele>
        <time>2023-12-30T13:29:45Z</time>
      </trkpt>
      <trkpt lat="43.02135" lon="3.04825">
        <ele>6.8</ele>
        <time>2023-12-30T13:29:46Z</time>
      </trkpt>
      <trkpt lat="43.02134" lon="3.04829">
        <ele>6.8</ele>
        <time>2023-12-30T13:29:47Z</time>
      </trkpt>
      <trkpt lat="43.02132" lon="3.04832">
        <ele>6.6</ele>
        <time>2023-12-30T13:29:48Z</time>
      </trkpt>
      <trkpt lat="43.02131" lon="3.04835">
        <ele>6.6</ele>
        <time>2023-12-30T13:29:49Z</time>
      </trkpt>
      <trkpt lat="43.02121" lon="3.04867">
        <ele>7</ele>
        <time>2023-12-30T13:29:58Z</time>
      </trkpt>
      <trkpt lat="43.02108" lon="3.04908">
        <ele>6.8</ele>
        <time>2023-12-30T13:30:08Z</time>
      </trkpt>
      <trkpt lat="43.02101" lon="3.0493">
        <ele>6.8</ele>
        <time>2023-12-30T13:30:13Z</time>
      </trkpt>
      <trkpt lat="43.02097" lon="3.04948">
        <ele>7</ele>
        <time>2023-12-30T13:30:17Z</time>
      </trkpt>
      <trkpt lat="43.02086" lon="3.04988">
        <ele>7</ele>
        <time>2023-12-30T13:30:26Z</time>
      </trkpt>
      <trkpt lat="43.02083" lon="3.04997">
        <ele>7</ele>
        <time>2023-12-30T13:30:28Z</time>
      </trkpt>
      <trkpt lat="43.02081" lon="3.05006">
        <ele>7</ele>
        <time>2023-12-30T13:30:30Z</time>
      </trkpt>
      <trkpt lat="43.0208" lon="3.0501">
        <ele>7</ele>
        <time>2023-12-30T13:30:31Z</time>
      </trkpt>
      <trkpt lat="43.02079" lon="3.05015">
        <ele>7</ele>
        <time>2023-12-30T13:30:32Z</time>
      </trkpt>
      <trkpt lat="43.02078" lon="3.05019">
        <ele>7</ele>
        <time>2023-12-30T13:30:33Z</time>
      </trkpt>
      <trkpt lat="43.02077" lon="3.05023">
        <ele>7</ele>
        <time>2023-12-30T13:30:34Z</time>
      </trkpt>
      <trkpt lat="43.02073" lon="3.05041">
        <ele>7</ele>
        <time>2023-12-30T13:30:38Z</time>
      </trkpt>
      <trkpt lat="43.02069" lon="3.05058">
        <ele>7</ele>
        <time>2023-12-30T13:30:42Z</time>
      </trkpt>
      <trkpt lat="43.0206" lon="3.05093">
        <ele>7</ele>
        <time>2023-12-30T13:30:50Z</time>
      </trkpt>
      <trkpt lat="43.02059" lon="3.05098">
        <ele>7</ele>
        <time>2023-12-30T13:30:51Z</time>
      </trkpt>
      <trkpt lat="43.02047" lon="3.05147">
        <ele>7.2</ele>
        <time>2023-12-30T13:31:02Z</time>
      </trkpt>
      <trkpt lat="43.02038" lon="3.05181">
        <ele>7.2</ele>
        <time>2023-12-30T13:31:10Z</time>
      </trkpt>
      <trkpt lat="43.02038" lon="3.05185">
        <ele>7.2</ele>
        <time>2023-12-30T13:31:11Z</time>
      </trkpt>
      <trkpt lat="43.02038" lon="3.05189">
        <ele>7.2</ele>
        <time>2023-12-30T13:31:12Z</time>
      </trkpt>
      <trkpt lat="43.02037" lon="3.05193">
        <ele>7.2</ele>
        <time>2023-12-30T13:31:13Z</time>
      </trkpt>
      <trkpt lat="43.02035" lon="3.05198">
        <ele>7.2</ele>
        <time>2023-12-30T13:31:14Z</time>
      </trkpt>
      <trkpt lat="43.02034" lon="3.05202">
        <ele>7.4</ele>
        <time>2023-12-30T13:31:15Z</time>
      </trkpt>
      <trkpt lat="43.02033" lon="3.05206">
        <ele>7.4</ele>
        <time>2023-12-30T13:31:16Z</time>
      </trkpt>
      <trkpt lat="43.02032" lon="3.0521">
        <ele>7.6</ele>
        <time>2023-12-30T13:31:17Z</time>
      </trkpt>
      <trkpt lat="43.02029" lon="3.05223">
        <ele>7.4</ele>
        <time>2023-12-30T13:31:20Z</time>
      </trkpt>
      <trkpt lat="43.02026" lon="3.05239">
        <ele>7.4</ele>
        <time>2023-12-30T13:31:24Z</time>
      </trkpt>
      <trkpt lat="43.02025" lon="3.05242">
        <ele>7.4</ele>
        <time>2023-12-30T13:31:25Z</time>
      </trkpt>
      <trkpt lat="43.02024" lon="3.05246">
        <ele>7.4</ele>
        <time>2023-12-30T13:31:26Z</time>
      </trkpt>
      <trkpt lat="43.02023" lon="3.05249">
        <ele>7.4</ele>
        <time>2023-12-30T13:31:27Z</time>
      </trkpt>
      <trkpt lat="43.02022" lon="3.05253">
        <ele>7.4</ele>
        <time>2023-12-30T13:31:28Z</time>
      </trkpt>
      <trkpt lat="43.02021" lon="3.05256">
        <ele>7.4</ele>
        <time>2023-12-30T13:31:29Z</time>
      </trkpt>
      <trkpt lat="43.0202" lon="3.05259">
        <ele>7.4</ele>
        <time>2023-12-30T13:31:30Z</time>
      </trkpt>
      <trkpt lat="43.02019" lon="3.05262">
        <ele>7.4</ele>
        <time>2023-12-30T13:31:31Z</time>
      </trkpt>
      <trkpt lat="43.02018" lon="3.05264">
        <ele>7.4</ele>
        <time>2023-12-30T13:31:32Z</time>
      </trkpt>
      <trkpt lat="43.02017" lon="3.05266">
        <ele>7.4</ele>
        <time>2023-12-30T13:31:33Z</time>
      </trkpt>
      <trkpt lat="43.02016" lon="3.05269">
        <ele>7.4</ele>
        <time>2023-12-30T13:31:34Z</time>
      </trkpt>
      <trkpt lat="43.02015" lon="3.05272">
        <ele>7.4</ele>
        <time>2023-12-30T13:31:35Z</time>
      </trkpt>
      <trkpt lat="43.02012" lon="3.05281">
        <ele>7.4</ele>
        <time>2023-12-30T13:31:38Z</time>
      </trkpt>
      <trkpt lat="43.02011" lon="3.05285">
        <ele>7.4</ele>
        <time>2023-12-30T13:31:39Z</time>
      </trkpt>
      <trkpt lat="43.02011" lon="3.05288">
        <ele>7.4</ele>
        <time>2023-12-30T13:31:40Z</time>
      </trkpt>
      <trkpt lat="43.02001" lon="3.05312">
        <ele>7.4</ele>
        <time>2023-12-30T13:31:47Z</time>
      </trkpt>
      <trkpt lat="43.01995" lon="3.05329">
        <ele>7.6</ele>
        <time>2023-12-30T13:31:52Z</time>
      </trkpt>
      <trkpt lat="43.01994" lon="3.05332">
        <ele>7.6</ele>
        <time>2023-12-30T13:31:53Z</time>
      </trkpt>
      <trkpt lat="43.0199" lon="3.05339">
        <ele>7.6</ele>
        <time>2023-12-30T13:31:56Z</time>
      </trkpt>
      <trkpt lat="43.0199" lon="3.05341">
        <ele>7.6</ele>
        <time>2023-12-30T13:31:57Z</time>
      </trkpt>
      <trkpt lat="43.01989" lon="3.05343">
        <ele>7.6</ele>
        <time>2023-12-30T13:31:58Z</time>
      </trkpt>
      <trkpt lat="43.01985" lon="3.05358">
        <ele>7.6</ele>
        <time>2023-12-30T13:32:03Z</time>
      </trkpt>
      <trkpt lat="43.0198" lon="3.0538">
        <ele>7.4</ele>
        <time>2023-12-30T13:32:09Z</time>
      </trkpt>
      <trkpt lat="43.01973" lon="3.05398">
        <ele>7.2</ele>
        <time>2023-12-30T13:32:14Z</time>
      </trkpt>
      <trkpt lat="43.01972" lon="3.05401">
        <ele>7.2</ele>
        <time>2023-12-30T13:32:15Z</time>
      </trkpt>
      <trkpt lat="43.01966" lon="3.05427">
        <ele>7.2</ele>
        <time>2023-12-30T13:32:22Z</time>
      </trkpt>
      <trkpt lat="43.01962" lon="3.05436">
        <ele>7.2</ele>
        <time>2023-12-30T13:32:25Z</time>
      </trkpt>
      <trkpt lat="43.01961" lon="3.05437">
        <ele>7.2</ele>
        <time>2023-12-30T13:32:26Z</time>
      </trkpt>
      <trkpt lat="43.01959" lon="3.05437">
        <ele>7.2</ele>
        <time>2023-12-30T13:32:27Z</time>
      </trkpt>
      <trkpt lat="43.01952" lon="3.05435">
        <ele>7.2</ele>
        <time>2023-12-30T13:32:30Z</time>
      </trkpt>
      <trkpt lat="43.0195" lon="3.05433">
        <ele>7.2</ele>
        <time>2023-12-30T13:32:31Z</time>
      </trkpt>
      <trkpt lat="43.01947" lon="3.05432">
        <ele>7.2</ele>
        <time>2023-12-30T13:32:32Z</time>
      </trkpt>
      <trkpt lat="43.01928" lon="3.05421">
        <ele>6.8</ele>
        <time>2023-12-30T13:32:39Z</time>
      </trkpt>
      <trkpt lat="43.01923" lon="3.0542">
        <ele>6.8</ele>
        <time>2023-12-30T13:32:41Z</time>
      </trkpt>
      <trkpt lat="43.01921" lon="3.05422">
        <ele>6.8</ele>
        <time>2023-12-30T13:32:42Z</time>
      </trkpt>
      <trkpt lat="43.01917" lon="3.05432">
        <ele>6.8</ele>
        <time>2023-12-30T13:32:45Z</time>
      </trkpt>
      <trkpt lat="43.01916" lon="3.05435">
        <ele>6.6</ele>
        <time>2023-12-30T13:32:46Z</time>
      </trkpt>
      <trkpt lat="43.01915" lon="3.05438">
        <ele>6.6</ele>
        <time>2023-12-30T13:32:47Z</time>
      </trkpt>
      <trkpt lat="43.01914" lon="3.05442">
        <ele>6.6</ele>
        <time>2023-12-30T13:32:48Z</time>
      </trkpt>
      <trkpt lat="43.01913" lon="3.05446">
        <ele>6.6</ele>
        <time>2023-12-30T13:32:49Z</time>
      </trkpt>
      <trkpt lat="43.01912" lon="3.05449">
        <ele>6.6</ele>
        <time>2023-12-30T13:32:50Z</time>
      </trkpt>
      <trkpt lat="43.01905" lon="3.05471">
        <ele>6.6</ele>
        <time>2023-12-30T13:32:57Z</time>
      </trkpt>
      <trkpt lat="43.01904" lon="3.05474">
        <ele>6.6</ele>
        <time>2023-12-30T13:32:58Z</time>
      </trkpt>
      <trkpt lat="43.01903" lon="3.05477">
        <ele>6.6</ele>
        <time>2023-12-30T13:32:59Z</time>
      </trkpt>
      <trkpt lat="43.01903" lon="3.0548">
        <ele>6.6</ele>
        <time>2023-12-30T13:33:00Z</time>
      </trkpt>
      <trkpt lat="43.01902" lon="3.05484">
        <ele>6.8</ele>
        <time>2023-12-30T13:33:01Z</time>
      </trkpt>
      <trkpt lat="43.01901" lon="3.05487">
        <ele>6.8</ele>
        <time>2023-12-30T13:33:02Z</time>
      </trkpt>
      <trkpt lat="43.01896" lon="3.05502">
        <ele>6.8</ele>
        <time>2023-12-30T13:33:06Z</time>
      </trkpt>
      <trkpt lat="43.01886" lon="3.0553">
        <ele>6.8</ele>
        <time>2023-12-30T13:33:13Z</time>
      </trkpt>
      <trkpt lat="43.01872" lon="3.05572">
        <ele>6.8</ele>
        <time>2023-12-30T13:33:23Z</time>
      </trkpt>
      <trkpt lat="43.01867" lon="3.0559">
        <ele>6.8</ele>
        <time>2023-12-30T13:33:28Z</time>
      </trkpt>
      <trkpt lat="43.01865" lon="3.05594">
        <ele>6.8</ele>
        <time>2023-12-30T13:33:29Z</time>
      </trkpt>
      <trkpt lat="43.01864" lon="3.05598">
        <ele>6.8</ele>
        <time>2023-12-30T13:33:30Z</time>
      </trkpt>
      <trkpt lat="43.01862" lon="3.05602">
        <ele>6.8</ele>
        <time>2023-12-30T13:33:31Z</time>
      </trkpt>
      <trkpt lat="43.01861" lon="3.05605">
        <ele>6.8</ele>
        <time>2023-12-30T13:33:32Z</time>
      </trkpt>
      <trkpt lat="43.0186" lon="3.05609">
        <ele>6.8</ele>
        <time>2023-12-30T13:33:33Z</time>
      </trkpt>
      <trkpt lat="43.01851" lon="3.05638">
        <ele>6.4</ele>
        <time>2023-12-30T13:33:40Z</time>
      </trkpt>
      <trkpt lat="43.01844" lon="3.0566">
        <ele>6.4</ele>
        <time>2023-12-30T13:33:46Z</time>
      </trkpt>
      <trkpt lat="43.01841" lon="3.05667">
        <ele>6.4</ele>
        <time>2023-12-30T13:33:48Z</time>
      </trkpt>
      <trkpt lat="43.0184" lon="3.05671">
        <ele>6.4</ele>
        <time>2023-12-30T13:33:49Z</time>
      </trkpt>
      <trkpt lat="43.01839" lon="3.05675">
        <ele>6.4</ele>
        <time>2023-12-30T13:33:50Z</time>
      </trkpt>
      <trkpt lat="43.01838" lon="3.0568">
        <ele>6.4</ele>
        <time>2023-12-30T13:33:51Z</time>
      </trkpt>
      <trkpt lat="43.01837" lon="3.05683">
        <ele>6.4</ele>
        <time>2023-12-30T13:33:52Z</time>
      </trkpt>
      <trkpt lat="43.01835" lon="3.05691">
        <ele>6.4</ele>
        <time>2023-12-30T13:33:54Z</time>
      </trkpt>
      <trkpt lat="43.01833" lon="3.05695">
        <ele>6.4</ele>
        <time>2023-12-30T13:33:55Z</time>
      </trkpt>
      <trkpt lat="43.01831" lon="3.05703">
        <ele>6.4</ele>
        <time>2023-12-30T13:33:57Z</time>
      </trkpt>
      <trkpt lat="43.01825" lon="3.05722">
        <ele>6.4</ele>
        <time>2023-12-30T13:34:02Z</time>
      </trkpt>
      <trkpt lat="43.01824" lon="3.05726">
        <ele>6.4</ele>
        <time>2023-12-30T13:34:03Z</time>
      </trkpt>
      <trkpt lat="43.01823" lon="3.05729">
        <ele>6.4</ele>
        <time>2023-12-30T13:34:04Z</time>
      </trkpt>
      <trkpt lat="43.01822" lon="3.05732">
        <ele>6.2</ele>
        <time>2023-12-30T13:34:05Z</time>
      </trkpt>
      <trkpt lat="43.01821" lon="3.05736">
        <ele>6.2</ele>
        <time>2023-12-30T13:34:06Z</time>
      </trkpt>
      <trkpt lat="43.0182" lon="3.05739">
        <ele>6.2</ele>
        <time>2023-12-30T13:34:07Z</time>
      </trkpt>
      <trkpt lat="43.01819" lon="3.05743">
        <ele>6.2</ele>
        <time>2023-12-30T13:34:08Z</time>
      </trkpt>
      <trkpt lat="43.01818" lon="3.05746">
        <ele>6.2</ele>
        <time>2023-12-30T13:34:09Z</time>
      </trkpt>
      <trkpt lat="43.01817" lon="3.05749">
        <ele>6.2</ele>
        <time>2023-12-30T13:34:10Z</time>
      </trkpt>
      <trkpt lat="43.01816" lon="3.05752">
        <ele>6.2</ele>
        <time>2023-12-30T13:34:11Z</time>
      </trkpt>
      <trkpt lat="43.01815" lon="3.05756">
        <ele>6.2</ele>
        <time>2023-12-30T13:34:12Z</time>
      </trkpt>
      <trkpt lat="43.01814" lon="3.0576">
        <ele>6.2</ele>
        <time>2023-12-30T13:34:13Z</time>
      </trkpt>
      <trkpt lat="43.0181" lon="3.05775">
        <ele>6.4</ele>
        <time>2023-12-30T13:34:17Z</time>
      </trkpt>
      <trkpt lat="43.01806" lon="3.05789">
        <ele>6.4</ele>
        <time>2023-12-30T13:34:21Z</time>
      </trkpt>
      <trkpt lat="43.01801" lon="3.05799">
        <ele>6.4</ele>
        <time>2023-12-30T13:34:24Z</time>
      </trkpt>
      <trkpt lat="43.018" lon="3.05802">
        <ele>6.4</ele>
        <time>2023-12-30T13:34:25Z</time>
      </trkpt>
      <trkpt lat="43.01799" lon="3.05806">
        <ele>6.4</ele>
        <time>2023-12-30T13:34:26Z</time>
      </trkpt>
      <trkpt lat="43.01798" lon="3.05809">
        <ele>6.4</ele>
        <time>2023-12-30T13:34:27Z</time>
      </trkpt>
      <trkpt lat="43.01797" lon="3.05812">
        <ele>6.4</ele>
        <time>2023-12-30T13:34:28Z</time>
      </trkpt>
      <trkpt lat="43.01792" lon="3.05829">
        <ele>6.4</ele>
        <time>2023-12-30T13:34:33Z</time>
      </trkpt>
      <trkpt lat="43.01783" lon="3.05843">
        <ele>6.6</ele>
        <time>2023-12-30T13:34:38Z</time>
      </trkpt>
      <trkpt lat="43.01782" lon="3.05845">
        <ele>6.6</ele>
        <time>2023-12-30T13:34:39Z</time>
      </trkpt>
      <trkpt lat="43.0178" lon="3.05847">
        <ele>6.6</ele>
        <time>2023-12-30T13:34:40Z</time>
      </trkpt>
      <trkpt lat="43.01778" lon="3.05849">
        <ele>6.8</ele>
        <time>2023-12-30T13:34:41Z</time>
      </trkpt>
      <trkpt lat="43.01776" lon="3.05851">
        <ele>6.8</ele>
        <time>2023-12-30T13:34:42Z</time>
      </trkpt>
      <trkpt lat="43.01775" lon="3.05852">
        <ele>6.8</ele>
        <time>2023-12-30T13:34:43Z</time>
      </trkpt>
      <trkpt lat="43.01773" lon="3.05854">
        <ele>6.8</ele>
        <time>2023-12-30T13:34:44Z</time>
      </trkpt>
      <trkpt lat="43.01771" lon="3.05856">
        <ele>6.8</ele>
        <time>2023-12-30T13:34:45Z</time>
      </trkpt>
      <trkpt lat="43.01769" lon="3.05858">
        <ele>6.8</ele>
        <time>2023-12-30T13:34:46Z</time>
      </trkpt>
      <trkpt lat="43.01746" lon="3.05883">
        <ele>6.6</ele>
        <time>2023-12-30T13:34:56Z</time>
      </trkpt>
      <trkpt lat="43.01745" lon="3.05885">
        <ele>6.6</ele>
        <time>2023-12-30T13:34:57Z</time>
      </trkpt>
      <trkpt lat="43.01743" lon="3.05886">
        <ele>6.6</ele>
        <time>2023-12-30T13:34:58Z</time>
      </trkpt>
      <trkpt lat="43.01742" lon="3.05888">
        <ele>6.6</ele>
        <time>2023-12-30T13:34:59Z</time>
      </trkpt>
      <trkpt lat="43.01741" lon="3.0589">
        <ele>6.6</ele>
        <time>2023-12-30T13:35:00Z</time>
      </trkpt>
      <trkpt lat="43.01737" lon="3.05893">
        <ele>6.6</ele>
        <time>2023-12-30T13:35:02Z</time>
      </trkpt>
      <trkpt lat="43.01728" lon="3.05907">
        <ele>6.4</ele>
        <time>2023-12-30T13:35:07Z</time>
      </trkpt>
      <trkpt lat="43.01725" lon="3.05909">
        <ele>6.4</ele>
        <time>2023-12-30T13:35:08Z</time>
      </trkpt>
      <trkpt lat="43.01702" lon="3.05933">
        <ele>6.8</ele>
        <time>2023-12-30T13:35:18Z</time>
      </trkpt>
      <trkpt lat="43.017" lon="3.05936">
        <ele>6.8</ele>
        <time>2023-12-30T13:35:19Z</time>
      </trkpt>
      <trkpt lat="43.01698" lon="3.05938">
        <ele>6.8</ele>
        <time>2023-12-30T13:35:20Z</time>
      </trkpt>
      <trkpt lat="43.01695" lon="3.0594">
        <ele>6.8</ele>
        <time>2023-12-30T13:35:21Z</time>
      </trkpt>
      <trkpt lat="43.01693" lon="3.05942">
        <ele>6.8</ele>
        <time>2023-12-30T13:35:22Z</time>
      </trkpt>
      <trkpt lat="43.0169" lon="3.05945">
        <ele>6.8</ele>
        <time>2023-12-30T13:35:23Z</time>
      </trkpt>
      <trkpt lat="43.01689" lon="3.05946">
        <ele>6.8</ele>
        <time>2023-12-30T13:35:24Z</time>
      </trkpt>
      <trkpt lat="43.01686" lon="3.05948">
        <ele>6.8</ele>
        <time>2023-12-30T13:35:25Z</time>
      </trkpt>
      <trkpt lat="43.01682" lon="3.05953">
        <ele>6.8</ele>
        <time>2023-12-30T13:35:27Z</time>
      </trkpt>
      <trkpt lat="43.0168" lon="3.05954">
        <ele>6.8</ele>
        <time>2023-12-30T13:35:28Z</time>
      </trkpt>
      <trkpt lat="43.01679" lon="3.05955">
        <ele>6.8</ele>
        <time>2023-12-30T13:35:29Z</time>
      </trkpt>
      <trkpt lat="43.01678" lon="3.05956">
        <ele>6.8</ele>
        <time>2023-12-30T13:35:30Z</time>
      </trkpt>
      <trkpt lat="43.01678" lon="3.05956">
        <ele>6.8</ele>
        <time>2023-12-30T13:35:32Z</time>
      </trkpt>
      <trkpt lat="43.01673" lon="3.0596">
        <ele>6.4</ele>
        <time>2023-12-30T13:36:08Z</time>
      </trkpt>
      <trkpt lat="43.01668" lon="3.05965">
        <ele>6.4</ele>
        <time>2023-12-30T13:36:11Z</time>
      </trkpt>
      <trkpt lat="43.01658" lon="3.05975">
        <ele>6.4</ele>
        <time>2023-12-30T13:36:15Z</time>
      </trkpt>
      <trkpt lat="43.01654" lon="3.05982">
        <ele>6.6</ele>
        <time>2023-12-30T13:36:17Z</time>
      </trkpt>
      <trkpt lat="43.01649" lon="3.05995">
        <ele>6.6</ele>
        <time>2023-12-30T13:36:20Z</time>
      </trkpt>
      <trkpt lat="43.01639" lon="3.06006">
        <ele>6.6</ele>
        <time>2023-12-30T13:36:25Z</time>
      </trkpt>
      <trkpt lat="43.0161" lon="3.06039">
        <ele>6.8</ele>
        <time>2023-12-30T13:36:35Z</time>
      </trkpt>
      <trkpt lat="43.01579" lon="3.06082">
        <ele>6.6</ele>
        <time>2023-12-30T13:36:47Z</time>
      </trkpt>
      <trkpt lat="43.01573" lon="3.0609">
        <ele>6.6</ele>
        <time>2023-12-30T13:36:48Z</time>
      </trkpt>
      <trkpt lat="43.01568" lon="3.06097">
        <ele>6.6</ele>
        <time>2023-12-30T13:36:50Z</time>
      </trkpt>
      <trkpt lat="43.01566" lon="3.06101">
        <ele>6.6</ele>
        <time>2023-12-30T13:36:51Z</time>
      </trkpt>
      <trkpt lat="43.01563" lon="3.06104">
        <ele>6.6</ele>
        <time>2023-12-30T13:36:52Z</time>
      </trkpt>
      <trkpt lat="43.01545" lon="3.06132">
        <ele>6.6</ele>
        <time>2023-12-30T13:36:59Z</time>
      </trkpt>
      <trkpt lat="43.01534" lon="3.06151">
        <ele>6.6</ele>
        <time>2023-12-30T13:37:04Z</time>
      </trkpt>
      <trkpt lat="43.01532" lon="3.06155">
        <ele>6.6</ele>
        <time>2023-12-30T13:37:05Z</time>
      </trkpt>
      <trkpt lat="43.0153" lon="3.06159">
        <ele>6.6</ele>
        <time>2023-12-30T13:37:06Z</time>
      </trkpt>
      <trkpt lat="43.01526" lon="3.06167">
        <ele>6.4</ele>
        <time>2023-12-30T13:37:08Z</time>
      </trkpt>
      <trkpt lat="43.01522" lon="3.06176">
        <ele>6.6</ele>
        <time>2023-12-30T13:37:10Z</time>
      </trkpt>
      <trkpt lat="43.01518" lon="3.06184">
        <ele>6.6</ele>
        <time>2023-12-30T13:37:12Z</time>
      </trkpt>
      <trkpt lat="43.01517" lon="3.06188">
        <ele>6.6</ele>
        <time>2023-12-30T13:37:13Z</time>
      </trkpt>
      <trkpt lat="43.01515" lon="3.06192">
        <ele>6.4</ele>
        <time>2023-12-30T13:37:14Z</time>
      </trkpt>
      <trkpt lat="43.01512" lon="3.06199">
        <ele>6.4</ele>
        <time>2023-12-30T13:37:16Z</time>
      </trkpt>
      <trkpt lat="43.0151" lon="3.06204">
        <ele>6.4</ele>
        <time>2023-12-30T13:37:17Z</time>
      </trkpt>
      <trkpt lat="43.01509" lon="3.06208">
        <ele>6.4</ele>
        <time>2023-12-30T13:37:18Z</time>
      </trkpt>
      <trkpt lat="43.01508" lon="3.06211">
        <ele>6.4</ele>
        <time>2023-12-30T13:37:19Z</time>
      </trkpt>
      <trkpt lat="43.01507" lon="3.06215">
        <ele>6.4</ele>
        <time>2023-12-30T13:37:20Z</time>
      </trkpt>
      <trkpt lat="43.01505" lon="3.06219">
        <ele>6.4</ele>
        <time>2023-12-30T13:37:21Z</time>
      </trkpt>
      <trkpt lat="43.01503" lon="3.06222">
        <ele>6.4</ele>
        <time>2023-12-30T13:37:22Z</time>
      </trkpt>
      <trkpt lat="43.01501" lon="3.06225">
        <ele>6.4</ele>
        <time>2023-12-30T13:37:23Z</time>
      </trkpt>
      <trkpt lat="43.015" lon="3.06229">
        <ele>6.2</ele>
        <time>2023-12-30T13:37:24Z</time>
      </trkpt>
      <trkpt lat="43.01498" lon="3.06232">
        <ele>6.2</ele>
        <time>2023-12-30T13:37:25Z</time>
      </trkpt>
      <trkpt lat="43.01497" lon="3.06236">
        <ele>6.2</ele>
        <time>2023-12-30T13:37:26Z</time>
      </trkpt>
      <trkpt lat="43.01495" lon="3.0624">
        <ele>6.2</ele>
        <time>2023-12-30T13:37:27Z</time>
      </trkpt>
      <trkpt lat="43.01494" lon="3.06244">
        <ele>6.2</ele>
        <time>2023-12-30T13:37:28Z</time>
      </trkpt>
      <trkpt lat="43.01491" lon="3.06251">
        <ele>6.2</ele>
        <time>2023-12-30T13:37:30Z</time>
      </trkpt>
      <trkpt lat="43.01478" lon="3.0629">
        <ele>6.6</ele>
        <time>2023-12-30T13:37:40Z</time>
      </trkpt>
      <trkpt lat="43.01476" lon="3.06297">
        <ele>6.6</ele>
        <time>2023-12-30T13:37:42Z</time>
      </trkpt>
      <trkpt lat="43.01475" lon="3.063">
        <ele>6.6</ele>
        <time>2023-12-30T13:37:43Z</time>
      </trkpt>
      <trkpt lat="43.01474" lon="3.06303">
        <ele>6.6</ele>
        <time>2023-12-30T13:37:44Z</time>
      </trkpt>
      <trkpt lat="43.01474" lon="3.06303">
        <ele>6.6</ele>
        <time>2023-12-30T13:37:45Z</time>
      </trkpt>
      <trkpt lat="43.01473" lon="3.06306">
        <ele>6.6</ele>
        <time>2023-12-30T13:37:46Z</time>
      </trkpt>
      <trkpt lat="43.01471" lon="3.06306">
        <ele>6.6</ele>
        <time>2023-12-30T13:37:47Z</time>
      </trkpt>
      <trkpt lat="43.0147" lon="3.06306">
        <ele>6.6</ele>
        <time>2023-12-30T13:37:48Z</time>
      </trkpt>
      <trkpt lat="43.01468" lon="3.06305">
        <ele>6.6</ele>
        <time>2023-12-30T13:37:49Z</time>
      </trkpt>
      <trkpt lat="43.01467" lon="3.06304">
        <ele>6.6</ele>
        <time>2023-12-30T13:37:50Z</time>
      </trkpt>
      <trkpt lat="43.01467" lon="3.06304">
        <ele>6.6</ele>
        <time>2023-12-30T13:37:51Z</time>
      </trkpt>
      <trkpt lat="43.01465" lon="3.06307">
        <ele>6.6</ele>
        <time>2023-12-30T13:37:52Z</time>
      </trkpt>
      <trkpt lat="43.01461" lon="3.06314">
        <ele>6.6</ele>
        <time>2023-12-30T13:37:55Z</time>
      </trkpt>
      <trkpt lat="43.01455" lon="3.06333">
        <ele>6.4</ele>
        <time>2023-12-30T13:38:02Z</time>
      </trkpt>
      <trkpt lat="43.01455" lon="3.06336">
        <ele>6.2</ele>
        <time>2023-12-30T13:38:03Z</time>
      </trkpt>
      <trkpt lat="43.01452" lon="3.06356">
        <ele>6.2</ele>
        <time>2023-12-30T13:38:10Z</time>
      </trkpt>
      <trkpt lat="43.01451" lon="3.06358">
        <ele>6.2</ele>
        <time>2023-12-30T13:38:11Z</time>
      </trkpt>
      <trkpt lat="43.01451" lon="3.06359">
        <ele>6.2</ele>
        <time>2023-12-30T13:38:12Z</time>
      </trkpt>
      <trkpt lat="43.0145" lon="3.06361">
        <ele>6.2</ele>
        <time>2023-12-30T13:38:13Z</time>
      </trkpt>
      <trkpt lat="43.0145" lon="3.06363">
        <ele>6.4</ele>
        <time>2023-12-30T13:38:14Z</time>
      </trkpt>
      <trkpt lat="43.0145" lon="3.06365">
        <ele>6.4</ele>
        <time>2023-12-30T13:38:15Z</time>
      </trkpt>
      <trkpt lat="43.0145" lon="3.06367">
        <ele>6.6</ele>
        <time>2023-12-30T13:38:16Z</time>
      </trkpt>
      <trkpt lat="43.0145" lon="3.0637">
        <ele>6.6</ele>
        <time>2023-12-30T13:38:17Z</time>
      </trkpt>
      <trkpt lat="43.01449" lon="3.06372">
        <ele>6.6</ele>
        <time>2023-12-30T13:38:18Z</time>
      </trkpt>
      <trkpt lat="43.01448" lon="3.06374">
        <ele>6.8</ele>
        <time>2023-12-30T13:38:19Z</time>
      </trkpt>
      <trkpt lat="43.01439" lon="3.06399">
        <ele>6.6</ele>
        <time>2023-12-30T13:38:30Z</time>
      </trkpt>
      <trkpt lat="43.01437" lon="3.06402">
        <ele>6.6</ele>
        <time>2023-12-30T13:38:32Z</time>
      </trkpt>
      <trkpt lat="43.01436" lon="3.06403">
        <ele>6.6</ele>
        <time>2023-12-30T13:38:33Z</time>
      </trkpt>
      <trkpt lat="43.01436" lon="3.06405">
        <ele>6.6</ele>
        <time>2023-12-30T13:38:34Z</time>
      </trkpt>
      <trkpt lat="43.01435" lon="3.06405">
        <ele>6.6</ele>
        <time>2023-12-30T13:38:35Z</time>
      </trkpt>
      <trkpt lat="43.01435" lon="3.06406">
        <ele>6.6</ele>
        <time>2023-12-30T13:38:36Z</time>
      </trkpt>
      <trkpt lat="43.0143" lon="3.0642">
        <ele>6.4</ele>
        <time>2023-12-30T13:38:44Z</time>
      </trkpt>
      <trkpt lat="43.01425" lon="3.06427">
        <ele>6.4</ele>
        <time>2023-12-30T13:38:50Z</time>
      </trkpt>
      <trkpt lat="43.01425" lon="3.06428">
        <ele>6.4</ele>
        <time>2023-12-30T13:38:51Z</time>
      </trkpt>
      <trkpt lat="43.01425" lon="3.06428">
        <ele>6.6</ele>
        <time>2023-12-30T13:38:52Z</time>
      </trkpt>
      <trkpt lat="43.01425" lon="3.06429">
        <ele>6.6</ele>
        <time>2023-12-30T13:38:54Z</time>
      </trkpt>
      <trkpt lat="43.01424" lon="3.06435">
        <ele>6</ele>
        <time>2023-12-30T13:40:01Z</time>
      </trkpt>
      <trkpt lat="43.01422" lon="3.0644">
        <ele>6</ele>
        <time>2023-12-30T13:40:03Z</time>
      </trkpt>
      <trkpt lat="43.01421" lon="3.06444">
        <ele>6</ele>
        <time>2023-12-30T13:40:04Z</time>
      </trkpt>
      <trkpt lat="43.01415" lon="3.06459">
        <ele>6.2</ele>
        <time>2023-12-30T13:40:08Z</time>
      </trkpt>
      <trkpt lat="43.01414" lon="3.06462">
        <ele>6.4</ele>
        <time>2023-12-30T13:40:09Z</time>
      </trkpt>
      <trkpt lat="43.01405" lon="3.06487">
        <ele>7.4</ele>
        <time>2023-12-30T13:40:16Z</time>
      </trkpt>
      <trkpt lat="43.01404" lon="3.0649">
        <ele>7.4</ele>
        <time>2023-12-30T13:40:17Z</time>
      </trkpt>
      <trkpt lat="43.014" lon="3.06498">
        <ele>7.4</ele>
        <time>2023-12-30T13:40:20Z</time>
      </trkpt>
      <trkpt lat="43.01399" lon="3.06501">
        <ele>7.2</ele>
        <time>2023-12-30T13:40:21Z</time>
      </trkpt>
      <trkpt lat="43.01398" lon="3.06504">
        <ele>7.2</ele>
        <time>2023-12-30T13:40:22Z</time>
      </trkpt>
      <trkpt lat="43.01397" lon="3.06507">
        <ele>7.2</ele>
        <time>2023-12-30T13:40:23Z</time>
      </trkpt>
      <trkpt lat="43.01395" lon="3.0651">
        <ele>7.2</ele>
        <time>2023-12-30T13:40:24Z</time>
      </trkpt>
      <trkpt lat="43.01394" lon="3.06513">
        <ele>7</ele>
        <time>2023-12-30T13:40:25Z</time>
      </trkpt>
      <trkpt lat="43.01393" lon="3.06516">
        <ele>7</ele>
        <time>2023-12-30T13:40:26Z</time>
      </trkpt>
      <trkpt lat="43.01392" lon="3.06518">
        <ele>7.2</ele>
        <time>2023-12-30T13:40:27Z</time>
      </trkpt>
      <trkpt lat="43.01392" lon="3.06519">
        <ele>7.2</ele>
        <time>2023-12-30T13:40:28Z</time>
      </trkpt>
      <trkpt lat="43.01391" lon="3.0652">
        <ele>7.2</ele>
        <time>2023-12-30T13:40:29Z</time>
      </trkpt>
      <trkpt lat="43.01391" lon="3.06521">
        <ele>7.2</ele>
        <time>2023-12-30T13:40:30Z</time>
      </trkpt>
      <trkpt lat="43.0139" lon="3.06523">
        <ele>7.2</ele>
        <time>2023-12-30T13:40:31Z</time>
      </trkpt>
      <trkpt lat="43.01388" lon="3.06528">
        <ele>7.4</ele>
        <time>2023-12-30T13:40:34Z</time>
      </trkpt>
      <trkpt lat="43.01388" lon="3.0653">
        <ele>7.4</ele>
        <time>2023-12-30T13:40:35Z</time>
      </trkpt>
      <trkpt lat="43.01387" lon="3.06531">
        <ele>7.6</ele>
        <time>2023-12-30T13:40:36Z</time>
      </trkpt>
      <trkpt lat="43.01387" lon="3.06533">
        <ele>7.6</ele>
        <time>2023-12-30T13:40:37Z</time>
      </trkpt>
      <trkpt lat="43.01386" lon="3.06534">
        <ele>7.6</ele>
        <time>2023-12-30T13:40:38Z</time>
      </trkpt>
      <trkpt lat="43.01386" lon="3.06535">
        <ele>7.6</ele>
        <time>2023-12-30T13:40:39Z</time>
      </trkpt>
      <trkpt lat="43.01385" lon="3.06536">
        <ele>7.8</ele>
        <time>2023-12-30T13:40:40Z</time>
      </trkpt>
      <trkpt lat="43.01385" lon="3.06538">
        <ele>7.8</ele>
        <time>2023-12-30T13:40:41Z</time>
      </trkpt>
      <trkpt lat="43.01385" lon="3.06539">
        <ele>7.8</ele>
        <time>2023-12-30T13:40:42Z</time>
      </trkpt>
      <trkpt lat="43.01385" lon="3.06541">
        <ele>7.8</ele>
        <time>2023-12-30T13:40:43Z</time>
      </trkpt>
      <trkpt lat="43.01384" lon="3.06542">
        <ele>7.8</ele>
        <time>2023-12-30T13:40:44Z</time>
      </trkpt>
      <trkpt lat="43.01384" lon="3.06543">
        <ele>7.8</ele>
        <time>2023-12-30T13:40:45Z</time>
      </trkpt>
      <trkpt lat="43.01383" lon="3.06544">
        <ele>7.8</ele>
        <time>2023-12-30T13:40:46Z</time>
      </trkpt>
      <trkpt lat="43.01383" lon="3.06545">
        <ele>7.8</ele>
        <time>2023-12-30T13:40:47Z</time>
      </trkpt>
      <trkpt lat="43.01382" lon="3.06547">
        <ele>7.8</ele>
        <time>2023-12-30T13:40:48Z</time>
      </trkpt>
      <trkpt lat="43.01382" lon="3.06547">
        <ele>7.8</ele>
        <time>2023-12-30T13:40:49Z</time>
      </trkpt>
      <trkpt lat="43.01382" lon="3.06548">
        <ele>7.8</ele>
        <time>2023-12-30T13:40:50Z</time>
      </trkpt>
      <trkpt lat="43.01382" lon="3.06548">
        <ele>7.4</ele>
        <time>2023-12-30T13:40:52Z</time>
      </trkpt>
      <trkpt lat="43.01392" lon="3.06528">
        <ele>8.4</ele>
        <time>2023-12-30T13:49:28Z</time>
      </trkpt>
      <trkpt lat="43.01395" lon="3.06518">
        <ele>8.2</ele>
        <time>2023-12-30T13:49:32Z</time>
      </trkpt>
      <trkpt lat="43.01397" lon="3.06505">
        <ele>8.2</ele>
        <time>2023-12-30T13:49:36Z</time>
      </trkpt>
      <trkpt lat="43.01406" lon="3.06476">
        <ele>8</ele>
        <time>2023-12-30T13:49:45Z</time>
      </trkpt>
      <trkpt lat="43.01413" lon="3.06455">
        <ele>8</ele>
        <time>2023-12-30T13:49:52Z</time>
      </trkpt>
      <trkpt lat="43.01414" lon="3.06451">
        <ele>8</ele>
        <time>2023-12-30T13:49:53Z</time>
      </trkpt>
      <trkpt lat="43.01417" lon="3.06438">
        <ele>8</ele>
        <time>2023-12-30T13:49:57Z</time>
      </trkpt>
      <trkpt lat="43.01419" lon="3.06433">
        <ele>8.2</ele>
        <time>2023-12-30T13:49:59Z</time>
      </trkpt>
      <trkpt lat="43.0142" lon="3.06431">
        <ele>8.2</ele>
        <time>2023-12-30T13:50:00Z</time>
      </trkpt>
      <trkpt lat="43.01421" lon="3.06428">
        <ele>8.2</ele>
        <time>2023-12-30T13:50:01Z</time>
      </trkpt>
      <trkpt lat="43.01421" lon="3.06425">
        <ele>8.2</ele>
        <time>2023-12-30T13:50:02Z</time>
      </trkpt>
      <trkpt lat="43.01421" lon="3.06423">
        <ele>8.2</ele>
        <time>2023-12-30T13:50:03Z</time>
      </trkpt>
      <trkpt lat="43.0142" lon="3.0642">
        <ele>8.2</ele>
        <time>2023-12-30T13:50:04Z</time>
      </trkpt>
      <trkpt lat="43.01419" lon="3.06418">
        <ele>8.2</ele>
        <time>2023-12-30T13:50:05Z</time>
      </trkpt>
      <trkpt lat="43.01417" lon="3.06416">
        <ele>8.2</ele>
        <time>2023-12-30T13:50:06Z</time>
      </trkpt>
      <trkpt lat="43.01415" lon="3.06415">
        <ele>8</ele>
        <time>2023-12-30T13:50:07Z</time>
      </trkpt>
      <trkpt lat="43.01414" lon="3.06414">
        <ele>8</ele>
        <time>2023-12-30T13:50:08Z</time>
      </trkpt>
      <trkpt lat="43.01412" lon="3.06412">
        <ele>8</ele>
        <time>2023-12-30T13:50:09Z</time>
      </trkpt>
      <trkpt lat="43.01411" lon="3.0641">
        <ele>8</ele>
        <time>2023-12-30T13:50:10Z</time>
      </trkpt>
      <trkpt lat="43.01401" lon="3.06391">
        <ele>7.8</ele>
        <time>2023-12-30T13:50:18Z</time>
      </trkpt>
      <trkpt lat="43.01397" lon="3.06386">
        <ele>7.8</ele>
        <time>2023-12-30T13:50:21Z</time>
      </trkpt>
      <trkpt lat="43.01395" lon="3.06384">
        <ele>7.8</ele>
        <time>2023-12-30T13:50:22Z</time>
      </trkpt>
      <trkpt lat="43.01393" lon="3.06383">
        <ele>7.8</ele>
        <time>2023-12-30T13:50:23Z</time>
      </trkpt>
      <trkpt lat="43.01391" lon="3.06381">
        <ele>7.8</ele>
        <time>2023-12-30T13:50:25Z</time>
      </trkpt>
      <trkpt lat="43.01389" lon="3.06379">
        <ele>7.8</ele>
        <time>2023-12-30T13:50:26Z</time>
      </trkpt>
      <trkpt lat="43.01388" lon="3.06378">
        <ele>7.8</ele>
        <time>2023-12-30T13:50:27Z</time>
      </trkpt>
      <trkpt lat="43.01386" lon="3.06376">
        <ele>7.8</ele>
        <time>2023-12-30T13:50:28Z</time>
      </trkpt>
      <trkpt lat="43.01384" lon="3.06375">
        <ele>7.8</ele>
        <time>2023-12-30T13:50:29Z</time>
      </trkpt>
      <trkpt lat="43.01383" lon="3.06374">
        <ele>7.8</ele>
        <time>2023-12-30T13:50:30Z</time>
      </trkpt>
      <trkpt lat="43.01381" lon="3.06372">
        <ele>7.8</ele>
        <time>2023-12-30T13:50:31Z</time>
      </trkpt>
      <trkpt lat="43.0138" lon="3.0637">
        <ele>7.8</ele>
        <time>2023-12-30T13:50:32Z</time>
      </trkpt>
      <trkpt lat="43.01378" lon="3.06369">
        <ele>8</ele>
        <time>2023-12-30T13:50:33Z</time>
      </trkpt>
      <trkpt lat="43.01373" lon="3.06366">
        <ele>8</ele>
        <time>2023-12-30T13:50:36Z</time>
      </trkpt>
      <trkpt lat="43.01372" lon="3.06364">
        <ele>8</ele>
        <time>2023-12-30T13:50:37Z</time>
      </trkpt>
      <trkpt lat="43.0137" lon="3.06361">
        <ele>8</ele>
        <time>2023-12-30T13:50:39Z</time>
      </trkpt>
      <trkpt lat="43.0137" lon="3.0636">
        <ele>8</ele>
        <time>2023-12-30T13:50:40Z</time>
      </trkpt>
      <trkpt lat="43.0137" lon="3.06358">
        <ele>8</ele>
        <time>2023-12-30T13:50:41Z</time>
      </trkpt>
      <trkpt lat="43.0137" lon="3.06356">
        <ele>8</ele>
        <time>2023-12-30T13:50:42Z</time>
      </trkpt>
      <trkpt lat="43.0137" lon="3.06355">
        <ele>8</ele>
        <time>2023-12-30T13:50:43Z</time>
      </trkpt>
      <trkpt lat="43.01371" lon="3.06354">
        <ele>8</ele>
        <time>2023-12-30T13:50:44Z</time>
      </trkpt>
      <trkpt lat="43.01371" lon="3.06352">
        <ele>8</ele>
        <time>2023-12-30T13:50:45Z</time>
      </trkpt>
      <trkpt lat="43.01372" lon="3.06349">
        <ele>8</ele>
        <time>2023-12-30T13:50:47Z</time>
      </trkpt>
      <trkpt lat="43.01372" lon="3.06347">
        <ele>7.8</ele>
        <time>2023-12-30T13:50:48Z</time>
      </trkpt>
      <trkpt lat="43.01372" lon="3.06345">
        <ele>7.8</ele>
        <time>2023-12-30T13:50:49Z</time>
      </trkpt>
      <trkpt lat="43.01372" lon="3.06343">
        <ele>7.8</ele>
        <time>2023-12-30T13:50:50Z</time>
      </trkpt>
      <trkpt lat="43.01371" lon="3.06341">
        <ele>7.8</ele>
        <time>2023-12-30T13:50:51Z</time>
      </trkpt>
      <trkpt lat="43.0137" lon="3.06338">
        <ele>7.8</ele>
        <time>2023-12-30T13:50:53Z</time>
      </trkpt>
      <trkpt lat="43.01369" lon="3.06336">
        <ele>7.8</ele>
        <time>2023-12-30T13:50:54Z</time>
      </trkpt>
      <trkpt lat="43.01367" lon="3.06332">
        <ele>7.8</ele>
        <time>2023-12-30T13:50:56Z</time>
      </trkpt>
      <trkpt lat="43.01356" lon="3.06323">
        <ele>8</ele>
        <time>2023-12-30T13:51:04Z</time>
      </trkpt>
      <trkpt lat="43.01343" lon="3.06315">
        <ele>7.8</ele>
        <time>2023-12-30T13:51:12Z</time>
      </trkpt>
      <trkpt lat="43.01325" lon="3.06302">
        <ele>8</ele>
        <time>2023-12-30T13:51:22Z</time>
      </trkpt>
      <trkpt lat="43.01312" lon="3.06292">
        <ele>8</ele>
        <time>2023-12-30T13:51:30Z</time>
      </trkpt>
      <trkpt lat="43.0131" lon="3.06291">
        <ele>8</ele>
        <time>2023-12-30T13:51:31Z</time>
      </trkpt>
      <trkpt lat="43.01292" lon="3.06277">
        <ele>8</ele>
        <time>2023-12-30T13:51:41Z</time>
      </trkpt>
      <trkpt lat="43.0128" lon="3.06269">
        <ele>8</ele>
        <time>2023-12-30T13:51:47Z</time>
      </trkpt>
      <trkpt lat="43.0127" lon="3.06262">
        <ele>8</ele>
        <time>2023-12-30T13:51:52Z</time>
      </trkpt>
      <trkpt lat="43.01249" lon="3.06247">
        <ele>8.2</ele>
        <time>2023-12-30T13:52:03Z</time>
      </trkpt>
      <trkpt lat="43.01229" lon="3.06233">
        <ele>8.2</ele>
        <time>2023-12-30T13:52:13Z</time>
      </trkpt>
      <trkpt lat="43.01224" lon="3.0623">
        <ele>8.2</ele>
        <time>2023-12-30T13:52:15Z</time>
      </trkpt>
      <trkpt lat="43.01206" lon="3.06217">
        <ele>8.4</ele>
        <time>2023-12-30T13:52:24Z</time>
      </trkpt>
      <trkpt lat="43.01204" lon="3.06215">
        <ele>8.4</ele>
        <time>2023-12-30T13:52:25Z</time>
      </trkpt>
      <trkpt lat="43.01202" lon="3.06214">
        <ele>8.4</ele>
        <time>2023-12-30T13:52:26Z</time>
      </trkpt>
      <trkpt lat="43.012" lon="3.06213">
        <ele>8.4</ele>
        <time>2023-12-30T13:52:27Z</time>
      </trkpt>
      <trkpt lat="43.01198" lon="3.06211">
        <ele>8.4</ele>
        <time>2023-12-30T13:52:28Z</time>
      </trkpt>
      <trkpt lat="43.01196" lon="3.0621">
        <ele>8.4</ele>
        <time>2023-12-30T13:52:29Z</time>
      </trkpt>
      <trkpt lat="43.01194" lon="3.06208">
        <ele>8.4</ele>
        <time>2023-12-30T13:52:30Z</time>
      </trkpt>
      <trkpt lat="43.01186" lon="3.06203">
        <ele>8.4</ele>
        <time>2023-12-30T13:52:34Z</time>
      </trkpt>
      <trkpt lat="43.01184" lon="3.06201">
        <ele>8.4</ele>
        <time>2023-12-30T13:52:35Z</time>
      </trkpt>
      <trkpt lat="43.01182" lon="3.062">
        <ele>8.4</ele>
        <time>2023-12-30T13:52:36Z</time>
      </trkpt>
      <trkpt lat="43.01175" lon="3.06195">
        <ele>8.2</ele>
        <time>2023-12-30T13:52:40Z</time>
      </trkpt>
      <trkpt lat="43.01173" lon="3.06193">
        <ele>8.2</ele>
        <time>2023-12-30T13:52:41Z</time>
      </trkpt>
      <trkpt lat="43.01171" lon="3.06192">
        <ele>8.2</ele>
        <time>2023-12-30T13:52:42Z</time>
      </trkpt>
      <trkpt lat="43.01169" lon="3.0619">
        <ele>8.2</ele>
        <time>2023-12-30T13:52:43Z</time>
      </trkpt>
      <trkpt lat="43.01161" lon="3.06185">
        <ele>8.2</ele>
        <time>2023-12-30T13:52:47Z</time>
      </trkpt>
      <trkpt lat="43.01136" lon="3.06167">
        <ele>8.2</ele>
        <time>2023-12-30T13:52:59Z</time>
      </trkpt>
      <trkpt lat="43.01121" lon="3.06156">
        <ele>8.2</ele>
        <time>2023-12-30T13:53:07Z</time>
      </trkpt>
      <trkpt lat="43.01119" lon="3.06155">
        <ele>8.2</ele>
        <time>2023-12-30T13:53:08Z</time>
      </trkpt>
      <trkpt lat="43.01117" lon="3.06154">
        <ele>8.2</ele>
        <time>2023-12-30T13:53:09Z</time>
      </trkpt>
      <trkpt lat="43.01115" lon="3.06152">
        <ele>8.2</ele>
        <time>2023-12-30T13:53:10Z</time>
      </trkpt>
      <trkpt lat="43.01092" lon="3.06136">
        <ele>8.8</ele>
        <time>2023-12-30T13:53:21Z</time>
      </trkpt>
      <trkpt lat="43.01077" lon="3.06126">
        <ele>8.8</ele>
        <time>2023-12-30T13:53:28Z</time>
      </trkpt>
      <trkpt lat="43.01075" lon="3.06125">
        <ele>8.8</ele>
        <time>2023-12-30T13:53:29Z</time>
      </trkpt>
      <trkpt lat="43.01071" lon="3.06122">
        <ele>8.8</ele>
        <time>2023-12-30T13:53:31Z</time>
      </trkpt>
      <trkpt lat="43.01069" lon="3.06121">
        <ele>8.8</ele>
        <time>2023-12-30T13:53:32Z</time>
      </trkpt>
      <trkpt lat="43.01056" lon="3.06111">
        <ele>8.8</ele>
        <time>2023-12-30T13:53:38Z</time>
      </trkpt>
      <trkpt lat="43.01048" lon="3.06106">
        <ele>8.8</ele>
        <time>2023-12-30T13:53:42Z</time>
      </trkpt>
      <trkpt lat="43.01021" lon="3.06087">
        <ele>8.8</ele>
        <time>2023-12-30T13:53:55Z</time>
      </trkpt>
      <trkpt lat="43.01011" lon="3.06079">
        <ele>8.8</ele>
        <time>2023-12-30T13:54:00Z</time>
      </trkpt>
      <trkpt lat="43.01007" lon="3.06077">
        <ele>8.8</ele>
        <time>2023-12-30T13:54:02Z</time>
      </trkpt>
      <trkpt lat="43.01005" lon="3.06076">
        <ele>8.8</ele>
        <time>2023-12-30T13:54:03Z</time>
      </trkpt>
      <trkpt lat="43.01003" lon="3.06075">
        <ele>8.8</ele>
        <time>2023-12-30T13:54:04Z</time>
      </trkpt>
      <trkpt lat="43.01002" lon="3.06075">
        <ele>8.8</ele>
        <time>2023-12-30T13:54:05Z</time>
      </trkpt>
      <trkpt lat="43.01" lon="3.06075">
        <ele>9</ele>
        <time>2023-12-30T13:54:06Z</time>
      </trkpt>
      <trkpt lat="43.00999" lon="3.06076">
        <ele>9</ele>
        <time>2023-12-30T13:54:07Z</time>
      </trkpt>
      <trkpt lat="43.00997" lon="3.06076">
        <ele>9</ele>
        <time>2023-12-30T13:54:08Z</time>
      </trkpt>
      <trkpt lat="43.00996" lon="3.06075">
        <ele>9</ele>
        <time>2023-12-30T13:54:09Z</time>
      </trkpt>
      <trkpt lat="43.00995" lon="3.06074">
        <ele>9.2</ele>
        <time>2023-12-30T13:54:10Z</time>
      </trkpt>
      <trkpt lat="43.00993" lon="3.06073">
        <ele>9.2</ele>
        <time>2023-12-30T13:54:11Z</time>
      </trkpt>
      <trkpt lat="43.00992" lon="3.06072">
        <ele>9.2</ele>
        <time>2023-12-30T13:54:12Z</time>
      </trkpt>
      <trkpt lat="43.0099" lon="3.0607">
        <ele>9.2</ele>
        <time>2023-12-30T13:54:13Z</time>
      </trkpt>
      <trkpt lat="43.00988" lon="3.06069">
        <ele>9.2</ele>
        <time>2023-12-30T13:54:14Z</time>
      </trkpt>
      <trkpt lat="43.00975" lon="3.06059">
        <ele>9</ele>
        <time>2023-12-30T13:54:21Z</time>
      </trkpt>
      <trkpt lat="43.0095" lon="3.06041">
        <ele>9</ele>
        <time>2023-12-30T13:54:33Z</time>
      </trkpt>
      <trkpt lat="43.00944" lon="3.06036">
        <ele>9</ele>
        <time>2023-12-30T13:54:36Z</time>
      </trkpt>
      <trkpt lat="43.00933" lon="3.06028">
        <ele>8.8</ele>
        <time>2023-12-30T13:54:41Z</time>
      </trkpt>
      <trkpt lat="43.00929" lon="3.06021">
        <ele>9</ele>
        <time>2023-12-30T13:54:44Z</time>
      </trkpt>
      <trkpt lat="43.00928" lon="3.06019">
        <ele>9</ele>
        <time>2023-12-30T13:54:45Z</time>
      </trkpt>
      <trkpt lat="43.00922" lon="3.06014">
        <ele>8.8</ele>
        <time>2023-12-30T13:54:48Z</time>
      </trkpt>
      <trkpt lat="43.00918" lon="3.06011">
        <ele>8.8</ele>
        <time>2023-12-30T13:54:50Z</time>
      </trkpt>
      <trkpt lat="43.00916" lon="3.0601">
        <ele>8.8</ele>
        <time>2023-12-30T13:54:51Z</time>
      </trkpt>
      <trkpt lat="43.00914" lon="3.06008">
        <ele>8.8</ele>
        <time>2023-12-30T13:54:52Z</time>
      </trkpt>
      <trkpt lat="43.00912" lon="3.06007">
        <ele>9</ele>
        <time>2023-12-30T13:54:53Z</time>
      </trkpt>
      <trkpt lat="43.00905" lon="3.06001">
        <ele>9</ele>
        <time>2023-12-30T13:54:57Z</time>
      </trkpt>
      <trkpt lat="43.00903" lon="3.06">
        <ele>9</ele>
        <time>2023-12-30T13:54:58Z</time>
      </trkpt>
      <trkpt lat="43.00901" lon="3.05998">
        <ele>9</ele>
        <time>2023-12-30T13:54:59Z</time>
      </trkpt>
      <trkpt lat="43.009" lon="3.05997">
        <ele>9</ele>
        <time>2023-12-30T13:55:00Z</time>
      </trkpt>
      <trkpt lat="43.00898" lon="3.05996">
        <ele>9</ele>
        <time>2023-12-30T13:55:01Z</time>
      </trkpt>
      <trkpt lat="43.00898" lon="3.05996">
        <ele>9</ele>
        <time>2023-12-30T13:55:02Z</time>
      </trkpt>
      <trkpt lat="43.0089" lon="3.05992">
        <ele>9.2</ele>
        <time>2023-12-30T13:55:05Z</time>
      </trkpt>
      <trkpt lat="43.00888" lon="3.05992">
        <ele>9.2</ele>
        <time>2023-12-30T13:55:06Z</time>
      </trkpt>
      <trkpt lat="43.00886" lon="3.05991">
        <ele>9.2</ele>
        <time>2023-12-30T13:55:07Z</time>
      </trkpt>
      <trkpt lat="43.00884" lon="3.05991">
        <ele>9.2</ele>
        <time>2023-12-30T13:55:08Z</time>
      </trkpt>
      <trkpt lat="43.0088" lon="3.05991">
        <ele>9.2</ele>
        <time>2023-12-30T13:55:10Z</time>
      </trkpt>
      <trkpt lat="43.00878" lon="3.0599">
        <ele>9.2</ele>
        <time>2023-12-30T13:55:11Z</time>
      </trkpt>
      <trkpt lat="43.00876" lon="3.05989">
        <ele>9.2</ele>
        <time>2023-12-30T13:55:12Z</time>
      </trkpt>
      <trkpt lat="43.00874" lon="3.05988">
        <ele>9.2</ele>
        <time>2023-12-30T13:55:13Z</time>
      </trkpt>
      <trkpt lat="43.00873" lon="3.05987">
        <ele>9.2</ele>
        <time>2023-12-30T13:55:14Z</time>
      </trkpt>
      <trkpt lat="43.00871" lon="3.05986">
        <ele>9.2</ele>
        <time>2023-12-30T13:55:15Z</time>
      </trkpt>
      <trkpt lat="43.0087" lon="3.05985">
        <ele>9.2</ele>
        <time>2023-12-30T13:55:16Z</time>
      </trkpt>
      <trkpt lat="43.00869" lon="3.05983">
        <ele>9.2</ele>
        <time>2023-12-30T13:55:17Z</time>
      </trkpt>
      <trkpt lat="43.00868" lon="3.05982">
        <ele>9.2</ele>
        <time>2023-12-30T13:55:18Z</time>
      </trkpt>
      <trkpt lat="43.00866" lon="3.05981">
        <ele>9.2</ele>
        <time>2023-12-30T13:55:19Z</time>
      </trkpt>
      <trkpt lat="43.00865" lon="3.0598">
        <ele>9.2</ele>
        <time>2023-12-30T13:55:20Z</time>
      </trkpt>
      <trkpt lat="43.00864" lon="3.0598">
        <ele>9.2</ele>
        <time>2023-12-30T13:55:21Z</time>
      </trkpt>
      <trkpt lat="43.00852" lon="3.05972">
        <ele>9</ele>
        <time>2023-12-30T13:55:26Z</time>
      </trkpt>
      <trkpt lat="43.0085" lon="3.0597">
        <ele>9</ele>
        <time>2023-12-30T13:55:27Z</time>
      </trkpt>
      <trkpt lat="43.00848" lon="3.05968">
        <ele>9</ele>
        <time>2023-12-30T13:55:28Z</time>
      </trkpt>
      <trkpt lat="43.00846" lon="3.05967">
        <ele>8.8</ele>
        <time>2023-12-30T13:55:29Z</time>
      </trkpt>
      <trkpt lat="43.00844" lon="3.05965">
        <ele>8.8</ele>
        <time>2023-12-30T13:55:30Z</time>
      </trkpt>
      <trkpt lat="43.00836" lon="3.0596">
        <ele>8.8</ele>
        <time>2023-12-30T13:55:34Z</time>
      </trkpt>
      <trkpt lat="43.00829" lon="3.05954">
        <ele>8.8</ele>
        <time>2023-12-30T13:55:37Z</time>
      </trkpt>
      <trkpt lat="43.00827" lon="3.05952">
        <ele>8.8</ele>
        <time>2023-12-30T13:55:38Z</time>
      </trkpt>
      <trkpt lat="43.00826" lon="3.0595">
        <ele>8.8</ele>
        <time>2023-12-30T13:55:39Z</time>
      </trkpt>
      <trkpt lat="43.0082" lon="3.05944">
        <ele>9</ele>
        <time>2023-12-30T13:55:42Z</time>
      </trkpt>
      <trkpt lat="43.00814" lon="3.0594">
        <ele>9</ele>
        <time>2023-12-30T13:55:45Z</time>
      </trkpt>
      <trkpt lat="43.00812" lon="3.05939">
        <ele>9</ele>
        <time>2023-12-30T13:55:46Z</time>
      </trkpt>
      <trkpt lat="43.0081" lon="3.05937">
        <ele>9</ele>
        <time>2023-12-30T13:55:47Z</time>
      </trkpt>
      <trkpt lat="43.00809" lon="3.05935">
        <ele>9</ele>
        <time>2023-12-30T13:55:48Z</time>
      </trkpt>
      <trkpt lat="43.00807" lon="3.05934">
        <ele>9</ele>
        <time>2023-12-30T13:55:49Z</time>
      </trkpt>
      <trkpt lat="43.00804" lon="3.05932">
        <ele>9</ele>
        <time>2023-12-30T13:55:50Z</time>
      </trkpt>
      <trkpt lat="43.00803" lon="3.05931">
        <ele>9</ele>
        <time>2023-12-30T13:55:51Z</time>
      </trkpt>
      <trkpt lat="43.00801" lon="3.0593">
        <ele>9</ele>
        <time>2023-12-30T13:55:52Z</time>
      </trkpt>
      <trkpt lat="43.00799" lon="3.05929">
        <ele>9</ele>
        <time>2023-12-30T13:55:53Z</time>
      </trkpt>
      <trkpt lat="43.00798" lon="3.05927">
        <ele>9.2</ele>
        <time>2023-12-30T13:55:54Z</time>
      </trkpt>
      <trkpt lat="43.00794" lon="3.05925">
        <ele>9</ele>
        <time>2023-12-30T13:55:56Z</time>
      </trkpt>
      <trkpt lat="43.00792" lon="3.05924">
        <ele>9</ele>
        <time>2023-12-30T13:55:57Z</time>
      </trkpt>
      <trkpt lat="43.0079" lon="3.05923">
        <ele>9</ele>
        <time>2023-12-30T13:55:58Z</time>
      </trkpt>
      <trkpt lat="43.00788" lon="3.05922">
        <ele>9</ele>
        <time>2023-12-30T13:55:59Z</time>
      </trkpt>
      <trkpt lat="43.00786" lon="3.05921">
        <ele>9</ele>
        <time>2023-12-30T13:56:00Z</time>
      </trkpt>
      <trkpt lat="43.00784" lon="3.05919">
        <ele>9</ele>
        <time>2023-12-30T13:56:01Z</time>
      </trkpt>
      <trkpt lat="43.00783" lon="3.05917">
        <ele>9</ele>
        <time>2023-12-30T13:56:02Z</time>
      </trkpt>
      <trkpt lat="43.00781" lon="3.05916">
        <ele>9</ele>
        <time>2023-12-30T13:56:03Z</time>
      </trkpt>
      <trkpt lat="43.00777" lon="3.05913">
        <ele>9</ele>
        <time>2023-12-30T13:56:06Z</time>
      </trkpt>
      <trkpt lat="43.00775" lon="3.05912">
        <ele>9</ele>
        <time>2023-12-30T13:56:07Z</time>
      </trkpt>
      <trkpt lat="43.00774" lon="3.0591">
        <ele>9</ele>
        <time>2023-12-30T13:56:08Z</time>
      </trkpt>
      <trkpt lat="43.00772" lon="3.05909">
        <ele>9</ele>
        <time>2023-12-30T13:56:09Z</time>
      </trkpt>
      <trkpt lat="43.0077" lon="3.05908">
        <ele>9</ele>
        <time>2023-12-30T13:56:10Z</time>
      </trkpt>
      <trkpt lat="43.00769" lon="3.05907">
        <ele>9</ele>
        <time>2023-12-30T13:56:11Z</time>
      </trkpt>
      <trkpt lat="43.00768" lon="3.05906">
        <ele>8.8</ele>
        <time>2023-12-30T13:56:12Z</time>
      </trkpt>
      <trkpt lat="43.00766" lon="3.05905">
        <ele>8.8</ele>
        <time>2023-12-30T13:56:13Z</time>
      </trkpt>
      <trkpt lat="43.00765" lon="3.05904">
        <ele>8.8</ele>
        <time>2023-12-30T13:56:14Z</time>
      </trkpt>
      <trkpt lat="43.00763" lon="3.05904">
        <ele>8.8</ele>
        <time>2023-12-30T13:56:15Z</time>
      </trkpt>
      <trkpt lat="43.00761" lon="3.05903">
        <ele>8.8</ele>
        <time>2023-12-30T13:56:16Z</time>
      </trkpt>
      <trkpt lat="43.0076" lon="3.05903">
        <ele>8.8</ele>
        <time>2023-12-30T13:56:17Z</time>
      </trkpt>
      <trkpt lat="43.00758" lon="3.05902">
        <ele>8.8</ele>
        <time>2023-12-30T13:56:18Z</time>
      </trkpt>
      <trkpt lat="43.00757" lon="3.05901">
        <ele>8.8</ele>
        <time>2023-12-30T13:56:19Z</time>
      </trkpt>
      <trkpt lat="43.00755" lon="3.05901">
        <ele>9</ele>
        <time>2023-12-30T13:56:20Z</time>
      </trkpt>
      <trkpt lat="43.00753" lon="3.05901">
        <ele>9</ele>
        <time>2023-12-30T13:56:21Z</time>
      </trkpt>
      <trkpt lat="43.00749" lon="3.05898">
        <ele>9</ele>
        <time>2023-12-30T13:56:23Z</time>
      </trkpt>
      <trkpt lat="43.00739" lon="3.05891">
        <ele>9.2</ele>
        <time>2023-12-30T13:56:27Z</time>
      </trkpt>
      <trkpt lat="43.00731" lon="3.05886">
        <ele>9</ele>
        <time>2023-12-30T13:56:30Z</time>
      </trkpt>
      <trkpt lat="43.00718" lon="3.05876">
        <ele>8.8</ele>
        <time>2023-12-30T13:56:36Z</time>
      </trkpt>
      <trkpt lat="43.00716" lon="3.05875">
        <ele>9</ele>
        <time>2023-12-30T13:56:37Z</time>
      </trkpt>
      <trkpt lat="43.00714" lon="3.05872">
        <ele>9</ele>
        <time>2023-12-30T13:56:38Z</time>
      </trkpt>
      <trkpt lat="43.00712" lon="3.05871">
        <ele>9</ele>
        <time>2023-12-30T13:56:39Z</time>
      </trkpt>
      <trkpt lat="43.0071" lon="3.05869">
        <ele>8.8</ele>
        <time>2023-12-30T13:56:40Z</time>
      </trkpt>
      <trkpt lat="43.00708" lon="3.05868">
        <ele>8.8</ele>
        <time>2023-12-30T13:56:41Z</time>
      </trkpt>
      <trkpt lat="43.00706" lon="3.05867">
        <ele>8.8</ele>
        <time>2023-12-30T13:56:42Z</time>
      </trkpt>
      <trkpt lat="43.00704" lon="3.05865">
        <ele>8.8</ele>
        <time>2023-12-30T13:56:43Z</time>
      </trkpt>
      <trkpt lat="43.00702" lon="3.05864">
        <ele>8.8</ele>
        <time>2023-12-30T13:56:44Z</time>
      </trkpt>
      <trkpt lat="43.007" lon="3.05863">
        <ele>8.8</ele>
        <time>2023-12-30T13:56:45Z</time>
      </trkpt>
      <trkpt lat="43.00698" lon="3.05861">
        <ele>8.8</ele>
        <time>2023-12-30T13:56:46Z</time>
      </trkpt>
      <trkpt lat="43.00696" lon="3.05859">
        <ele>8.8</ele>
        <time>2023-12-30T13:56:47Z</time>
      </trkpt>
      <trkpt lat="43.00694" lon="3.05858">
        <ele>8.8</ele>
        <time>2023-12-30T13:56:48Z</time>
      </trkpt>
      <trkpt lat="43.0068" lon="3.05846">
        <ele>8.8</ele>
        <time>2023-12-30T13:56:55Z</time>
      </trkpt>
      <trkpt lat="43.00671" lon="3.05836">
        <ele>8.8</ele>
        <time>2023-12-30T13:57:00Z</time>
      </trkpt>
      <trkpt lat="43.00669" lon="3.05834">
        <ele>9</ele>
        <time>2023-12-30T13:57:01Z</time>
      </trkpt>
      <trkpt lat="43.00667" lon="3.05833">
        <ele>9</ele>
        <time>2023-12-30T13:57:02Z</time>
      </trkpt>
      <trkpt lat="43.00664" lon="3.05829">
        <ele>9</ele>
        <time>2023-12-30T13:57:04Z</time>
      </trkpt>
      <trkpt lat="43.00649" lon="3.05817">
        <ele>8.8</ele>
        <time>2023-12-30T13:57:12Z</time>
      </trkpt>
      <trkpt lat="43.00647" lon="3.05816">
        <ele>8.8</ele>
        <time>2023-12-30T13:57:13Z</time>
      </trkpt>
      <trkpt lat="43.00645" lon="3.05815">
        <ele>8.8</ele>
        <time>2023-12-30T13:57:14Z</time>
      </trkpt>
      <trkpt lat="43.00644" lon="3.05814">
        <ele>8.8</ele>
        <time>2023-12-30T13:57:15Z</time>
      </trkpt>
      <trkpt lat="43.00642" lon="3.05812">
        <ele>8.8</ele>
        <time>2023-12-30T13:57:16Z</time>
      </trkpt>
      <trkpt lat="43.0064" lon="3.05811">
        <ele>8.8</ele>
        <time>2023-12-30T13:57:17Z</time>
      </trkpt>
      <trkpt lat="43.00638" lon="3.0581">
        <ele>8.8</ele>
        <time>2023-12-30T13:57:18Z</time>
      </trkpt>
      <trkpt lat="43.00636" lon="3.05809">
        <ele>8.8</ele>
        <time>2023-12-30T13:57:19Z</time>
      </trkpt>
      <trkpt lat="43.00635" lon="3.05808">
        <ele>8.8</ele>
        <time>2023-12-30T13:57:20Z</time>
      </trkpt>
      <trkpt lat="43.00633" lon="3.05808">
        <ele>8.8</ele>
        <time>2023-12-30T13:57:21Z</time>
      </trkpt>
      <trkpt lat="43.00631" lon="3.05808">
        <ele>8.8</ele>
        <time>2023-12-30T13:57:22Z</time>
      </trkpt>
      <trkpt lat="43.0063" lon="3.05808">
        <ele>8.8</ele>
        <time>2023-12-30T13:57:23Z</time>
      </trkpt>
      <trkpt lat="43.00628" lon="3.05808">
        <ele>8.8</ele>
        <time>2023-12-30T13:57:24Z</time>
      </trkpt>
      <trkpt lat="43.00627" lon="3.05807">
        <ele>8.8</ele>
        <time>2023-12-30T13:57:25Z</time>
      </trkpt>
      <trkpt lat="43.00625" lon="3.05807">
        <ele>8.8</ele>
        <time>2023-12-30T13:57:26Z</time>
      </trkpt>
      <trkpt lat="43.00624" lon="3.05806">
        <ele>9</ele>
        <time>2023-12-30T13:57:27Z</time>
      </trkpt>
      <trkpt lat="43.00622" lon="3.05805">
        <ele>9</ele>
        <time>2023-12-30T13:57:28Z</time>
      </trkpt>
      <trkpt lat="43.0062" lon="3.05804">
        <ele>9</ele>
        <time>2023-12-30T13:57:29Z</time>
      </trkpt>
      <trkpt lat="43.00619" lon="3.05803">
        <ele>9</ele>
        <time>2023-12-30T13:57:30Z</time>
      </trkpt>
      <trkpt lat="43.00619" lon="3.05803">
        <ele>9</ele>
        <time>2023-12-30T13:57:31Z</time>
      </trkpt>
      <trkpt lat="43.00618" lon="3.05802">
        <ele>9</ele>
        <time>2023-12-30T13:57:32Z</time>
      </trkpt>
      <trkpt lat="43.00617" lon="3.05801">
        <ele>9.2</ele>
        <time>2023-12-30T13:57:33Z</time>
      </trkpt>
      <trkpt lat="43.00616" lon="3.058">
        <ele>9.4</ele>
        <time>2023-12-30T13:57:35Z</time>
      </trkpt>
      <trkpt lat="43.00615" lon="3.058">
        <ele>9.4</ele>
        <time>2023-12-30T13:57:36Z</time>
      </trkpt>
      <trkpt lat="43.00615" lon="3.05799">
        <ele>9.4</ele>
        <time>2023-12-30T13:57:37Z</time>
      </trkpt>
      <trkpt lat="43.00614" lon="3.05798">
        <ele>9.4</ele>
        <time>2023-12-30T13:57:38Z</time>
      </trkpt>
      <trkpt lat="43.00614" lon="3.05797">
        <ele>9.4</ele>
        <time>2023-12-30T13:57:39Z</time>
      </trkpt>
      <trkpt lat="43.00614" lon="3.05797">
        <ele>9.4</ele>
        <time>2023-12-30T13:57:40Z</time>
      </trkpt>
      <trkpt lat="43.00618" lon="3.05802">
        <ele>9.8</ele>
        <time>2023-12-30T13:58:30Z</time>
      </trkpt>
      <trkpt lat="43.00619" lon="3.05803">
        <ele>9.8</ele>
        <time>2023-12-30T13:58:31Z</time>
      </trkpt>
      <trkpt lat="43.00621" lon="3.05805">
        <ele>9.8</ele>
        <time>2023-12-30T13:58:32Z</time>
      </trkpt>
      <trkpt lat="43.00622" lon="3.05807">
        <ele>9.8</ele>
        <time>2023-12-30T13:58:33Z</time>
      </trkpt>
      <trkpt lat="43.00622" lon="3.05809">
        <ele>9.8</ele>
        <time>2023-12-30T13:58:34Z</time>
      </trkpt>
      <trkpt lat="43.00622" lon="3.05812">
        <ele>9.8</ele>
        <time>2023-12-30T13:58:35Z</time>
      </trkpt>
      <trkpt lat="43.0062" lon="3.05815">
        <ele>9.6</ele>
        <time>2023-12-30T13:58:38Z</time>
      </trkpt>
      <trkpt lat="43.00616" lon="3.05818">
        <ele>9.6</ele>
        <time>2023-12-30T13:58:40Z</time>
      </trkpt>
      <trkpt lat="43.00614" lon="3.05818">
        <ele>9.4</ele>
        <time>2023-12-30T13:58:41Z</time>
      </trkpt>
      <trkpt lat="43.00612" lon="3.05818">
        <ele>9.4</ele>
        <time>2023-12-30T13:58:42Z</time>
      </trkpt>
      <trkpt lat="43.0061" lon="3.05817">
        <ele>9</ele>
        <time>2023-12-30T13:58:43Z</time>
      </trkpt>
      <trkpt lat="43.00609" lon="3.05816">
        <ele>9</ele>
        <time>2023-12-30T13:58:44Z</time>
      </trkpt>
      <trkpt lat="43.00608" lon="3.05814">
        <ele>8.8</ele>
        <time>2023-12-30T13:58:45Z</time>
      </trkpt>
      <trkpt lat="43.00607" lon="3.05812">
        <ele>8.8</ele>
        <time>2023-12-30T13:58:46Z</time>
      </trkpt>
      <trkpt lat="43.00606" lon="3.0581">
        <ele>8.6</ele>
        <time>2023-12-30T13:58:47Z</time>
      </trkpt>
      <trkpt lat="43.00605" lon="3.05808">
        <ele>8.6</ele>
        <time>2023-12-30T13:58:48Z</time>
      </trkpt>
      <trkpt lat="43.006" lon="3.05799">
        <ele>8.4</ele>
        <time>2023-12-30T13:58:53Z</time>
      </trkpt>
      <trkpt lat="43.00594" lon="3.05792">
        <ele>8.4</ele>
        <time>2023-12-30T13:58:57Z</time>
      </trkpt>
      <trkpt lat="43.0059" lon="3.05786">
        <ele>8.4</ele>
        <time>2023-12-30T13:59:01Z</time>
      </trkpt>
      <trkpt lat="43.00589" lon="3.05785">
        <ele>8.4</ele>
        <time>2023-12-30T13:59:02Z</time>
      </trkpt>
      <trkpt lat="43.00587" lon="3.05784">
        <ele>8.4</ele>
        <time>2023-12-30T13:59:03Z</time>
      </trkpt>
      <trkpt lat="43.00586" lon="3.05783">
        <ele>8.4</ele>
        <time>2023-12-30T13:59:04Z</time>
      </trkpt>
      <trkpt lat="43.00583" lon="3.05781">
        <ele>8.4</ele>
        <time>2023-12-30T13:59:06Z</time>
      </trkpt>
      <trkpt lat="43.00577" lon="3.05778">
        <ele>8.4</ele>
        <time>2023-12-30T13:59:10Z</time>
      </trkpt>
      <trkpt lat="43.00575" lon="3.05778">
        <ele>8.4</ele>
        <time>2023-12-30T13:59:11Z</time>
      </trkpt>
      <trkpt lat="43.00566" lon="3.05774">
        <ele>8.4</ele>
        <time>2023-12-30T13:59:17Z</time>
      </trkpt>
      <trkpt lat="43.0055" lon="3.05768">
        <ele>8.4</ele>
        <time>2023-12-30T13:59:26Z</time>
      </trkpt>
      <trkpt lat="43.00527" lon="3.05752">
        <ele>8.4</ele>
        <time>2023-12-30T13:59:39Z</time>
      </trkpt>
      <trkpt lat="43.00515" lon="3.05744">
        <ele>8.4</ele>
        <time>2023-12-30T13:59:46Z</time>
      </trkpt>
      <trkpt lat="43.00513" lon="3.05744">
        <ele>8.4</ele>
        <time>2023-12-30T13:59:47Z</time>
      </trkpt>
      <trkpt lat="43.00512" lon="3.05743">
        <ele>8.4</ele>
        <time>2023-12-30T13:59:48Z</time>
      </trkpt>
      <trkpt lat="43.0051" lon="3.05742">
        <ele>8.4</ele>
        <time>2023-12-30T13:59:49Z</time>
      </trkpt>
      <trkpt lat="43.00508" lon="3.05741">
        <ele>8.4</ele>
        <time>2023-12-30T13:59:50Z</time>
      </trkpt>
      <trkpt lat="43.00506" lon="3.0574">
        <ele>8.4</ele>
        <time>2023-12-30T13:59:51Z</time>
      </trkpt>
      <trkpt lat="43.00505" lon="3.05739">
        <ele>8.4</ele>
        <time>2023-12-30T13:59:52Z</time>
      </trkpt>
      <trkpt lat="43.00503" lon="3.05738">
        <ele>8.4</ele>
        <time>2023-12-30T13:59:53Z</time>
      </trkpt>
      <trkpt lat="43.005" lon="3.05736">
        <ele>8.4</ele>
        <time>2023-12-30T13:59:55Z</time>
      </trkpt>
      <trkpt lat="43.00498" lon="3.05735">
        <ele>8.4</ele>
        <time>2023-12-30T13:59:56Z</time>
      </trkpt>
      <trkpt lat="43.00496" lon="3.05734">
        <ele>8.4</ele>
        <time>2023-12-30T13:59:57Z</time>
      </trkpt>
      <trkpt lat="43.00487" lon="3.05726">
        <ele>8.8</ele>
        <time>2023-12-30T14:00:03Z</time>
      </trkpt>
      <trkpt lat="43.00485" lon="3.05724">
        <ele>8.8</ele>
        <time>2023-12-30T14:00:04Z</time>
      </trkpt>
      <trkpt lat="43.00484" lon="3.05723">
        <ele>8.8</ele>
        <time>2023-12-30T14:00:05Z</time>
      </trkpt>
      <trkpt lat="43.00467" lon="3.05711">
        <ele>8.6</ele>
        <time>2023-12-30T14:00:15Z</time>
      </trkpt>
      <trkpt lat="43.00464" lon="3.05708">
        <ele>8.6</ele>
        <time>2023-12-30T14:00:17Z</time>
      </trkpt>
      <trkpt lat="43.00462" lon="3.05707">
        <ele>8.6</ele>
        <time>2023-12-30T14:00:18Z</time>
      </trkpt>
      <trkpt lat="43.0045" lon="3.05697">
        <ele>8.8</ele>
        <time>2023-12-30T14:00:25Z</time>
      </trkpt>
      <trkpt lat="43.00427" lon="3.0568">
        <ele>8.8</ele>
        <time>2023-12-30T14:00:37Z</time>
      </trkpt>
      <trkpt lat="43.0041" lon="3.05667">
        <ele>9</ele>
        <time>2023-12-30T14:00:46Z</time>
      </trkpt>
      <trkpt lat="43.00398" lon="3.05658">
        <ele>8.8</ele>
        <time>2023-12-30T14:00:52Z</time>
      </trkpt>
      <trkpt lat="43.00396" lon="3.05657">
        <ele>8.8</ele>
        <time>2023-12-30T14:00:53Z</time>
      </trkpt>
      <trkpt lat="43.00394" lon="3.05656">
        <ele>8.8</ele>
        <time>2023-12-30T14:00:54Z</time>
      </trkpt>
      <trkpt lat="43.00392" lon="3.05654">
        <ele>8.8</ele>
        <time>2023-12-30T14:00:55Z</time>
      </trkpt>
      <trkpt lat="43.0039" lon="3.05653">
        <ele>8.8</ele>
        <time>2023-12-30T14:00:56Z</time>
      </trkpt>
      <trkpt lat="43.00388" lon="3.05652">
        <ele>8.6</ele>
        <time>2023-12-30T14:00:57Z</time>
      </trkpt>
      <trkpt lat="43.00386" lon="3.0565">
        <ele>8.6</ele>
        <time>2023-12-30T14:00:58Z</time>
      </trkpt>
      <trkpt lat="43.00378" lon="3.05644">
        <ele>8.6</ele>
        <time>2023-12-30T14:01:02Z</time>
      </trkpt>
      <trkpt lat="43.00374" lon="3.05641">
        <ele>8.6</ele>
        <time>2023-12-30T14:01:04Z</time>
      </trkpt>
      <trkpt lat="43.00358" lon="3.05632">
        <ele>8.6</ele>
        <time>2023-12-30T14:01:12Z</time>
      </trkpt>
      <trkpt lat="43.00354" lon="3.0563">
        <ele>8.6</ele>
        <time>2023-12-30T14:01:14Z</time>
      </trkpt>
      <trkpt lat="43.00352" lon="3.05629">
        <ele>8.6</ele>
        <time>2023-12-30T14:01:15Z</time>
      </trkpt>
      <trkpt lat="43.0035" lon="3.05628">
        <ele>8.6</ele>
        <time>2023-12-30T14:01:16Z</time>
      </trkpt>
      <trkpt lat="43.00348" lon="3.05626">
        <ele>8.8</ele>
        <time>2023-12-30T14:01:17Z</time>
      </trkpt>
      <trkpt lat="43.00327" lon="3.05615">
        <ele>8.6</ele>
        <time>2023-12-30T14:01:27Z</time>
      </trkpt>
      <trkpt lat="43.00302" lon="3.05607">
        <ele>8.6</ele>
        <time>2023-12-30T14:01:38Z</time>
      </trkpt>
      <trkpt lat="43.003" lon="3.05606">
        <ele>8.6</ele>
        <time>2023-12-30T14:01:39Z</time>
      </trkpt>
      <trkpt lat="43.00298" lon="3.05605">
        <ele>8.6</ele>
        <time>2023-12-30T14:01:40Z</time>
      </trkpt>
      <trkpt lat="43.00296" lon="3.05604">
        <ele>8.6</ele>
        <time>2023-12-30T14:01:41Z</time>
      </trkpt>
      <trkpt lat="43.00283" lon="3.05599">
        <ele>8.6</ele>
        <time>2023-12-30T14:01:47Z</time>
      </trkpt>
      <trkpt lat="43.00281" lon="3.05598">
        <ele>8.6</ele>
        <time>2023-12-30T14:01:48Z</time>
      </trkpt>
      <trkpt lat="43.0026" lon="3.05595">
        <ele>8.6</ele>
        <time>2023-12-30T14:01:57Z</time>
      </trkpt>
      <trkpt lat="43.00236" lon="3.05594">
        <ele>8.4</ele>
        <time>2023-12-30T14:02:07Z</time>
      </trkpt>
      <trkpt lat="43.00218" lon="3.05604">
        <ele>8.2</ele>
        <time>2023-12-30T14:02:15Z</time>
      </trkpt>
      <trkpt lat="43.00216" lon="3.05606">
        <ele>8.2</ele>
        <time>2023-12-30T14:02:16Z</time>
      </trkpt>
      <trkpt lat="43.00214" lon="3.05607">
        <ele>8.2</ele>
        <time>2023-12-30T14:02:17Z</time>
      </trkpt>
      <trkpt lat="43.00212" lon="3.05609">
        <ele>8.2</ele>
        <time>2023-12-30T14:02:18Z</time>
      </trkpt>
      <trkpt lat="43.0021" lon="3.0561">
        <ele>8.2</ele>
        <time>2023-12-30T14:02:19Z</time>
      </trkpt>
      <trkpt lat="43.00206" lon="3.05613">
        <ele>8.2</ele>
        <time>2023-12-30T14:02:21Z</time>
      </trkpt>
      <trkpt lat="43.00204" lon="3.05615">
        <ele>8.4</ele>
        <time>2023-12-30T14:02:22Z</time>
      </trkpt>
      <trkpt lat="43.002" lon="3.05619">
        <ele>8.4</ele>
        <time>2023-12-30T14:02:24Z</time>
      </trkpt>
      <trkpt lat="43.00198" lon="3.0562">
        <ele>8.4</ele>
        <time>2023-12-30T14:02:25Z</time>
      </trkpt>
      <trkpt lat="43.0019" lon="3.05627">
        <ele>8.4</ele>
        <time>2023-12-30T14:02:29Z</time>
      </trkpt>
      <trkpt lat="43.00182" lon="3.05633">
        <ele>8.4</ele>
        <time>2023-12-30T14:02:33Z</time>
      </trkpt>
      <trkpt lat="43.00177" lon="3.05638">
        <ele>8.4</ele>
        <time>2023-12-30T14:02:36Z</time>
      </trkpt>
      <trkpt lat="43.00175" lon="3.05639">
        <ele>8.4</ele>
        <time>2023-12-30T14:02:37Z</time>
      </trkpt>
      <trkpt lat="43.00163" lon="3.0565">
        <ele>8.4</ele>
        <time>2023-12-30T14:02:43Z</time>
      </trkpt>
      <trkpt lat="43.00161" lon="3.05652">
        <ele>8.4</ele>
        <time>2023-12-30T14:02:44Z</time>
      </trkpt>
      <trkpt lat="43.00142" lon="3.0567">
        <ele>8.4</ele>
        <time>2023-12-30T14:02:54Z</time>
      </trkpt>
      <trkpt lat="43.00129" lon="3.05685">
        <ele>8.4</ele>
        <time>2023-12-30T14:03:01Z</time>
      </trkpt>
      <trkpt lat="43.00128" lon="3.05687">
        <ele>8.4</ele>
        <time>2023-12-30T14:03:02Z</time>
      </trkpt>
      <trkpt lat="43.00126" lon="3.05689">
        <ele>8.4</ele>
        <time>2023-12-30T14:03:03Z</time>
      </trkpt>
      <trkpt lat="43.00124" lon="3.05691">
        <ele>8.4</ele>
        <time>2023-12-30T14:03:04Z</time>
      </trkpt>
      <trkpt lat="43.00122" lon="3.05693">
        <ele>8.4</ele>
        <time>2023-12-30T14:03:05Z</time>
      </trkpt>
      <trkpt lat="43.00121" lon="3.05695">
        <ele>8.4</ele>
        <time>2023-12-30T14:03:06Z</time>
      </trkpt>
      <trkpt lat="43.00119" lon="3.05697">
        <ele>8.4</ele>
        <time>2023-12-30T14:03:07Z</time>
      </trkpt>
      <trkpt lat="43.0011" lon="3.0571">
        <ele>8.2</ele>
        <time>2023-12-30T14:03:13Z</time>
      </trkpt>
      <trkpt lat="43.00103" lon="3.05718">
        <ele>8.2</ele>
        <time>2023-12-30T14:03:17Z</time>
      </trkpt>
      <trkpt lat="43.00101" lon="3.05718">
        <ele>8.2</ele>
        <time>2023-12-30T14:03:18Z</time>
      </trkpt>
      <trkpt lat="43.00099" lon="3.05718">
        <ele>8.2</ele>
        <time>2023-12-30T14:03:19Z</time>
      </trkpt>
      <trkpt lat="43.00094" lon="3.05712">
        <ele>8.2</ele>
        <time>2023-12-30T14:03:22Z</time>
      </trkpt>
      <trkpt lat="43.00093" lon="3.0571">
        <ele>8.4</ele>
        <time>2023-12-30T14:03:23Z</time>
      </trkpt>
      <trkpt lat="43.00092" lon="3.05708">
        <ele>8.4</ele>
        <time>2023-12-30T14:03:24Z</time>
      </trkpt>
      <trkpt lat="43.00091" lon="3.05706">
        <ele>8.4</ele>
        <time>2023-12-30T14:03:25Z</time>
      </trkpt>
      <trkpt lat="43.00089" lon="3.05704">
        <ele>8.4</ele>
        <time>2023-12-30T14:03:26Z</time>
      </trkpt>
      <trkpt lat="43.00088" lon="3.05703">
        <ele>8.4</ele>
        <time>2023-12-30T14:03:27Z</time>
      </trkpt>
      <trkpt lat="43.00086" lon="3.05703">
        <ele>8.6</ele>
        <time>2023-12-30T14:03:28Z</time>
      </trkpt>
      <trkpt lat="43.00085" lon="3.05703">
        <ele>8.6</ele>
        <time>2023-12-30T14:03:29Z</time>
      </trkpt>
      <trkpt lat="43.00084" lon="3.05703">
        <ele>8.6</ele>
        <time>2023-12-30T14:03:30Z</time>
      </trkpt>
      <trkpt lat="43.00083" lon="3.05703">
        <ele>8.8</ele>
        <time>2023-12-30T14:03:31Z</time>
      </trkpt>
      <trkpt lat="43.00083" lon="3.05703">
        <ele>8.4</ele>
        <time>2023-12-30T14:03:33Z</time>
      </trkpt>
      <trkpt lat="43.0007" lon="3.05696">
        <ele>8</ele>
        <time>2023-12-30T14:04:42Z</time>
      </trkpt>
      <trkpt lat="43.00058" lon="3.05689">
        <ele>8</ele>
        <time>2023-12-30T14:04:50Z</time>
      </trkpt>
      <trkpt lat="43.0004" lon="3.05681">
        <ele>8</ele>
        <time>2023-12-30T14:05:00Z</time>
      </trkpt>
      <trkpt lat="43.0003" lon="3.05677">
        <ele>8</ele>
        <time>2023-12-30T14:05:06Z</time>
      </trkpt>
      <trkpt lat="43.00029" lon="3.05676">
        <ele>8.2</ele>
        <time>2023-12-30T14:05:07Z</time>
      </trkpt>
      <trkpt lat="43.00028" lon="3.05676">
        <ele>8.2</ele>
        <time>2023-12-30T14:05:08Z</time>
      </trkpt>
      <trkpt lat="43.00027" lon="3.05676">
        <ele>8.2</ele>
        <time>2023-12-30T14:05:09Z</time>
      </trkpt>
      <trkpt lat="43.00021" lon="3.05674">
        <ele>8.2</ele>
        <time>2023-12-30T14:05:13Z</time>
      </trkpt>
      <trkpt lat="43.0002" lon="3.05674">
        <ele>8.2</ele>
        <time>2023-12-30T14:05:14Z</time>
      </trkpt>
      <trkpt lat="43.00018" lon="3.05675">
        <ele>8</ele>
        <time>2023-12-30T14:05:15Z</time>
      </trkpt>
      <trkpt lat="43.00005" lon="3.05672">
        <ele>8</ele>
        <time>2023-12-30T14:05:22Z</time>
      </trkpt>
      <trkpt lat="42.99983" lon="3.05661">
        <ele>8.2</ele>
        <time>2023-12-30T14:05:33Z</time>
      </trkpt>
      <trkpt lat="42.99974" lon="3.05655">
        <ele>8.2</ele>
        <time>2023-12-30T14:05:38Z</time>
      </trkpt>
      <trkpt lat="42.99973" lon="3.05653">
        <ele>8.2</ele>
        <time>2023-12-30T14:05:39Z</time>
      </trkpt>
      <trkpt lat="42.99972" lon="3.05651">
        <ele>8.2</ele>
        <time>2023-12-30T14:05:40Z</time>
      </trkpt>
      <trkpt lat="42.99971" lon="3.05649">
        <ele>8.2</ele>
        <time>2023-12-30T14:05:41Z</time>
      </trkpt>
      <trkpt lat="42.9997" lon="3.05648">
        <ele>8.2</ele>
        <time>2023-12-30T14:05:42Z</time>
      </trkpt>
      <trkpt lat="42.99968" lon="3.05647">
        <ele>8.4</ele>
        <time>2023-12-30T14:05:43Z</time>
      </trkpt>
      <trkpt lat="42.99966" lon="3.05646">
        <ele>8.6</ele>
        <time>2023-12-30T14:05:44Z</time>
      </trkpt>
      <trkpt lat="42.99965" lon="3.05646">
        <ele>8.4</ele>
        <time>2023-12-30T14:05:45Z</time>
      </trkpt>
      <trkpt lat="42.99963" lon="3.05645">
        <ele>8.4</ele>
        <time>2023-12-30T14:05:46Z</time>
      </trkpt>
      <trkpt lat="42.99959" lon="3.05645">
        <ele>8.4</ele>
        <time>2023-12-30T14:05:48Z</time>
      </trkpt>
      <trkpt lat="42.99957" lon="3.05645">
        <ele>8.4</ele>
        <time>2023-12-30T14:05:49Z</time>
      </trkpt>
      <trkpt lat="42.99955" lon="3.05645">
        <ele>8.4</ele>
        <time>2023-12-30T14:05:50Z</time>
      </trkpt>
      <trkpt lat="42.99942" lon="3.05642">
        <ele>8.4</ele>
        <time>2023-12-30T14:05:57Z</time>
      </trkpt>
      <trkpt lat="42.99941" lon="3.05641">
        <ele>8.4</ele>
        <time>2023-12-30T14:05:58Z</time>
      </trkpt>
      <trkpt lat="42.9994" lon="3.05639">
        <ele>8.4</ele>
        <time>2023-12-30T14:05:59Z</time>
      </trkpt>
      <trkpt lat="42.99938" lon="3.05637">
        <ele>8.4</ele>
        <time>2023-12-30T14:06:00Z</time>
      </trkpt>
      <trkpt lat="42.99937" lon="3.05635">
        <ele>8.4</ele>
        <time>2023-12-30T14:06:01Z</time>
      </trkpt>
      <trkpt lat="42.99935" lon="3.05633">
        <ele>8.6</ele>
        <time>2023-12-30T14:06:02Z</time>
      </trkpt>
      <trkpt lat="42.99934" lon="3.05631">
        <ele>8.6</ele>
        <time>2023-12-30T14:06:03Z</time>
      </trkpt>
      <trkpt lat="42.99931" lon="3.05627">
        <ele>8.8</ele>
        <time>2023-12-30T14:06:05Z</time>
      </trkpt>
      <trkpt lat="42.99919" lon="3.05609">
        <ele>9</ele>
        <time>2023-12-30T14:06:13Z</time>
      </trkpt>
      <trkpt lat="42.99915" lon="3.05603">
        <ele>9</ele>
        <time>2023-12-30T14:06:16Z</time>
      </trkpt>
      <trkpt lat="42.99914" lon="3.05601">
        <ele>9</ele>
        <time>2023-12-30T14:06:17Z</time>
      </trkpt>
      <trkpt lat="42.99913" lon="3.05599">
        <ele>9</ele>
        <time>2023-12-30T14:06:18Z</time>
      </trkpt>
      <trkpt lat="42.99911" lon="3.05596">
        <ele>9</ele>
        <time>2023-12-30T14:06:19Z</time>
      </trkpt>
      <trkpt lat="42.9991" lon="3.05594">
        <ele>9</ele>
        <time>2023-12-30T14:06:20Z</time>
      </trkpt>
      <trkpt lat="42.99909" lon="3.05592">
        <ele>9</ele>
        <time>2023-12-30T14:06:21Z</time>
      </trkpt>
      <trkpt lat="42.99908" lon="3.05591">
        <ele>9</ele>
        <time>2023-12-30T14:06:22Z</time>
      </trkpt>
      <trkpt lat="42.99906" lon="3.05589">
        <ele>9</ele>
        <time>2023-12-30T14:06:23Z</time>
      </trkpt>
      <trkpt lat="42.99905" lon="3.05588">
        <ele>9</ele>
        <time>2023-12-30T14:06:24Z</time>
      </trkpt>
      <trkpt lat="42.99903" lon="3.05588">
        <ele>9</ele>
        <time>2023-12-30T14:06:25Z</time>
      </trkpt>
      <trkpt lat="42.99901" lon="3.05587">
        <ele>9</ele>
        <time>2023-12-30T14:06:26Z</time>
      </trkpt>
      <trkpt lat="42.999" lon="3.05587">
        <ele>9</ele>
        <time>2023-12-30T14:06:27Z</time>
      </trkpt>
      <trkpt lat="42.99898" lon="3.05587">
        <ele>9</ele>
        <time>2023-12-30T14:06:28Z</time>
      </trkpt>
      <trkpt lat="42.99896" lon="3.05587">
        <ele>9</ele>
        <time>2023-12-30T14:06:29Z</time>
      </trkpt>
      <trkpt lat="42.99892" lon="3.05585">
        <ele>9</ele>
        <time>2023-12-30T14:06:31Z</time>
      </trkpt>
      <trkpt lat="42.99875" lon="3.05577">
        <ele>9</ele>
        <time>2023-12-30T14:06:41Z</time>
      </trkpt>
      <trkpt lat="42.99874" lon="3.05577">
        <ele>9</ele>
        <time>2023-12-30T14:06:42Z</time>
      </trkpt>
      <trkpt lat="42.99867" lon="3.05576">
        <ele>8.8</ele>
        <time>2023-12-30T14:06:46Z</time>
      </trkpt>
      <trkpt lat="42.99865" lon="3.05575">
        <ele>8.6</ele>
        <time>2023-12-30T14:06:47Z</time>
      </trkpt>
      <trkpt lat="42.99863" lon="3.05575">
        <ele>8.6</ele>
        <time>2023-12-30T14:06:48Z</time>
      </trkpt>
      <trkpt lat="42.99862" lon="3.05575">
        <ele>8.6</ele>
        <time>2023-12-30T14:06:49Z</time>
      </trkpt>
      <trkpt lat="42.99854" lon="3.05573">
        <ele>8.6</ele>
        <time>2023-12-30T14:06:53Z</time>
      </trkpt>
      <trkpt lat="42.99848" lon="3.05571">
        <ele>8.8</ele>
        <time>2023-12-30T14:06:57Z</time>
      </trkpt>
      <trkpt lat="42.99843" lon="3.05569">
        <ele>8.6</ele>
        <time>2023-12-30T14:07:00Z</time>
      </trkpt>
      <trkpt lat="42.99838" lon="3.05568">
        <ele>8.6</ele>
        <time>2023-12-30T14:07:03Z</time>
      </trkpt>
      <trkpt lat="42.99828" lon="3.05565">
        <ele>8.6</ele>
        <time>2023-12-30T14:07:09Z</time>
      </trkpt>
      <trkpt lat="42.99827" lon="3.05565">
        <ele>8.8</ele>
        <time>2023-12-30T14:07:10Z</time>
      </trkpt>
      <trkpt lat="42.99825" lon="3.05564">
        <ele>8.8</ele>
        <time>2023-12-30T14:07:11Z</time>
      </trkpt>
      <trkpt lat="42.99824" lon="3.05564">
        <ele>8.8</ele>
        <time>2023-12-30T14:07:12Z</time>
      </trkpt>
      <trkpt lat="42.99822" lon="3.05564">
        <ele>8.8</ele>
        <time>2023-12-30T14:07:13Z</time>
      </trkpt>
      <trkpt lat="42.99821" lon="3.05563">
        <ele>8.8</ele>
        <time>2023-12-30T14:07:14Z</time>
      </trkpt>
      <trkpt lat="42.99819" lon="3.05563">
        <ele>8.8</ele>
        <time>2023-12-30T14:07:15Z</time>
      </trkpt>
      <trkpt lat="42.99818" lon="3.05563">
        <ele>8.8</ele>
        <time>2023-12-30T14:07:16Z</time>
      </trkpt>
      <trkpt lat="42.99816" lon="3.05562">
        <ele>8.8</ele>
        <time>2023-12-30T14:07:17Z</time>
      </trkpt>
      <trkpt lat="42.9981" lon="3.0556">
        <ele>8.8</ele>
        <time>2023-12-30T14:07:21Z</time>
      </trkpt>
      <trkpt lat="42.99799" lon="3.05556">
        <ele>9</ele>
        <time>2023-12-30T14:07:28Z</time>
      </trkpt>
      <trkpt lat="42.99798" lon="3.05555">
        <ele>9</ele>
        <time>2023-12-30T14:07:29Z</time>
      </trkpt>
      <trkpt lat="42.99796" lon="3.05554">
        <ele>9</ele>
        <time>2023-12-30T14:07:30Z</time>
      </trkpt>
      <trkpt lat="42.99795" lon="3.05553">
        <ele>9</ele>
        <time>2023-12-30T14:07:31Z</time>
      </trkpt>
      <trkpt lat="42.9979" lon="3.05551">
        <ele>9</ele>
        <time>2023-12-30T14:07:34Z</time>
      </trkpt>
      <trkpt lat="42.99775" lon="3.05546">
        <ele>9</ele>
        <time>2023-12-30T14:07:44Z</time>
      </trkpt>
      <trkpt lat="42.99772" lon="3.05544">
        <ele>9</ele>
        <time>2023-12-30T14:07:46Z</time>
      </trkpt>
      <trkpt lat="42.99764" lon="3.05541">
        <ele>9</ele>
        <time>2023-12-30T14:07:51Z</time>
      </trkpt>
      <trkpt lat="42.9976" lon="3.05538">
        <ele>9</ele>
        <time>2023-12-30T14:07:54Z</time>
      </trkpt>
      <trkpt lat="42.99753" lon="3.05533">
        <ele>9.2</ele>
        <time>2023-12-30T14:07:59Z</time>
      </trkpt>
      <trkpt lat="42.99751" lon="3.05532">
        <ele>9.2</ele>
        <time>2023-12-30T14:08:00Z</time>
      </trkpt>
      <trkpt lat="42.9975" lon="3.05531">
        <ele>9.2</ele>
        <time>2023-12-30T14:08:01Z</time>
      </trkpt>
      <trkpt lat="42.99744" lon="3.05525">
        <ele>9.2</ele>
        <time>2023-12-30T14:08:06Z</time>
      </trkpt>
      <trkpt lat="42.99729" lon="3.05514">
        <ele>9.2</ele>
        <time>2023-12-30T14:08:16Z</time>
      </trkpt>
      <trkpt lat="42.99728" lon="3.05513">
        <ele>9.2</ele>
        <time>2023-12-30T14:08:17Z</time>
      </trkpt>
      <trkpt lat="42.99725" lon="3.05509">
        <ele>9.2</ele>
        <time>2023-12-30T14:08:20Z</time>
      </trkpt>
      <trkpt lat="42.99723" lon="3.05508">
        <ele>9.2</ele>
        <time>2023-12-30T14:08:21Z</time>
      </trkpt>
      <trkpt lat="42.99721" lon="3.05506">
        <ele>9.2</ele>
        <time>2023-12-30T14:08:23Z</time>
      </trkpt>
      <trkpt lat="42.99719" lon="3.05505">
        <ele>9.2</ele>
        <time>2023-12-30T14:08:24Z</time>
      </trkpt>
      <trkpt lat="42.99717" lon="3.05505">
        <ele>9.2</ele>
        <time>2023-12-30T14:08:25Z</time>
      </trkpt>
      <trkpt lat="42.9971" lon="3.05505">
        <ele>9.2</ele>
        <time>2023-12-30T14:08:30Z</time>
      </trkpt>
      <trkpt lat="42.99708" lon="3.05506">
        <ele>9.2</ele>
        <time>2023-12-30T14:08:31Z</time>
      </trkpt>
      <trkpt lat="42.99707" lon="3.05507">
        <ele>9.2</ele>
        <time>2023-12-30T14:08:32Z</time>
      </trkpt>
      <trkpt lat="42.99706" lon="3.05508">
        <ele>9</ele>
        <time>2023-12-30T14:08:33Z</time>
      </trkpt>
      <trkpt lat="42.99703" lon="3.05512">
        <ele>8.8</ele>
        <time>2023-12-30T14:08:36Z</time>
      </trkpt>
      <trkpt lat="42.99702" lon="3.05514">
        <ele>8.8</ele>
        <time>2023-12-30T14:08:37Z</time>
      </trkpt>
      <trkpt lat="42.99702" lon="3.05515">
        <ele>8.8</ele>
        <time>2023-12-30T14:08:38Z</time>
      </trkpt>
      <trkpt lat="42.99701" lon="3.05516">
        <ele>8.8</ele>
        <time>2023-12-30T14:08:39Z</time>
      </trkpt>
      <trkpt lat="42.997" lon="3.05517">
        <ele>8.8</ele>
        <time>2023-12-30T14:08:40Z</time>
      </trkpt>
      <trkpt lat="42.99699" lon="3.05518">
        <ele>8.8</ele>
        <time>2023-12-30T14:08:41Z</time>
      </trkpt>
      <trkpt lat="42.99698" lon="3.05519">
        <ele>8.8</ele>
        <time>2023-12-30T14:08:42Z</time>
      </trkpt>
      <trkpt lat="42.99696" lon="3.0552">
        <ele>8.8</ele>
        <time>2023-12-30T14:08:43Z</time>
      </trkpt>
      <trkpt lat="42.99695" lon="3.05522">
        <ele>8.8</ele>
        <time>2023-12-30T14:08:44Z</time>
      </trkpt>
      <trkpt lat="42.9969" lon="3.05523">
        <ele>8.8</ele>
        <time>2023-12-30T14:08:47Z</time>
      </trkpt>
      <trkpt lat="42.99689" lon="3.05522">
        <ele>8.8</ele>
        <time>2023-12-30T14:08:48Z</time>
      </trkpt>
      <trkpt lat="42.99687" lon="3.05519">
        <ele>8.8</ele>
        <time>2023-12-30T14:08:51Z</time>
      </trkpt>
      <trkpt lat="42.99687" lon="3.05518">
        <ele>8.8</ele>
        <time>2023-12-30T14:08:52Z</time>
      </trkpt>
      <trkpt lat="42.99687" lon="3.05517">
        <ele>8.8</ele>
        <time>2023-12-30T14:08:53Z</time>
      </trkpt>
      <trkpt lat="42.99687" lon="3.05515">
        <ele>8.8</ele>
        <time>2023-12-30T14:08:54Z</time>
      </trkpt>
      <trkpt lat="42.99687" lon="3.05514">
        <ele>8.8</ele>
        <time>2023-12-30T14:08:55Z</time>
      </trkpt>
      <trkpt lat="42.99687" lon="3.05514">
        <ele>8.8</ele>
        <time>2023-12-30T14:08:56Z</time>
      </trkpt>
      <trkpt lat="42.99687" lon="3.05513">
        <ele>8.8</ele>
        <time>2023-12-30T14:08:57Z</time>
      </trkpt>
      <trkpt lat="42.99686" lon="3.05512">
        <ele>8.8</ele>
        <time>2023-12-30T14:08:58Z</time>
      </trkpt>
      <trkpt lat="42.99686" lon="3.05511">
        <ele>9</ele>
        <time>2023-12-30T14:08:59Z</time>
      </trkpt>
      <trkpt lat="42.99685" lon="3.0551">
        <ele>9</ele>
        <time>2023-12-30T14:09:00Z</time>
      </trkpt>
      <trkpt lat="42.99684" lon="3.05509">
        <ele>9</ele>
        <time>2023-12-30T14:09:01Z</time>
      </trkpt>
      <trkpt lat="42.99683" lon="3.05509">
        <ele>8.8</ele>
        <time>2023-12-30T14:09:02Z</time>
      </trkpt>
      <trkpt lat="42.99683" lon="3.05511">
        <ele>8.8</ele>
        <time>2023-12-30T14:09:03Z</time>
      </trkpt>
      <trkpt lat="42.99683" lon="3.05512">
        <ele>8.8</ele>
        <time>2023-12-30T14:09:04Z</time>
      </trkpt>
      <trkpt lat="42.99683" lon="3.05513">
        <ele>9</ele>
        <time>2023-12-30T14:09:05Z</time>
      </trkpt>
      <trkpt lat="42.99683" lon="3.05513">
        <ele>9</ele>
        <time>2023-12-30T14:09:06Z</time>
      </trkpt>
      <trkpt lat="42.99683" lon="3.05513">
        <ele>9</ele>
        <time>2023-12-30T14:09:08Z</time>
      </trkpt>
      <trkpt lat="42.99684" lon="3.05505">
        <ele>9</ele>
        <time>2023-12-30T14:15:00Z</time>
      </trkpt>
      <trkpt lat="42.99685" lon="3.05503">
        <ele>9</ele>
        <time>2023-12-30T14:15:01Z</time>
      </trkpt>
      <trkpt lat="42.99685" lon="3.05498">
        <ele>9</ele>
        <time>2023-12-30T14:15:03Z</time>
      </trkpt>
      <trkpt lat="42.99685" lon="3.05496">
        <ele>9</ele>
        <time>2023-12-30T14:15:04Z</time>
      </trkpt>
      <trkpt lat="42.99685" lon="3.05494">
        <ele>9</ele>
        <time>2023-12-30T14:15:05Z</time>
      </trkpt>
      <trkpt lat="42.99685" lon="3.05482">
        <ele>9</ele>
        <time>2023-12-30T14:15:09Z</time>
      </trkpt>
      <trkpt lat="42.99686" lon="3.05479">
        <ele>9</ele>
        <time>2023-12-30T14:15:10Z</time>
      </trkpt>
      <trkpt lat="42.99686" lon="3.05476">
        <ele>9</ele>
        <time>2023-12-30T14:15:11Z</time>
      </trkpt>
      <trkpt lat="42.99689" lon="3.05462">
        <ele>9</ele>
        <time>2023-12-30T14:15:16Z</time>
      </trkpt>
      <trkpt lat="42.9969" lon="3.05457">
        <ele>9</ele>
        <time>2023-12-30T14:15:18Z</time>
      </trkpt>
      <trkpt lat="42.9969" lon="3.05454">
        <ele>9</ele>
        <time>2023-12-30T14:15:19Z</time>
      </trkpt>
      <trkpt lat="42.99691" lon="3.05451">
        <ele>9</ele>
        <time>2023-12-30T14:15:20Z</time>
      </trkpt>
      <trkpt lat="42.99691" lon="3.05448">
        <ele>9.2</ele>
        <time>2023-12-30T14:15:21Z</time>
      </trkpt>
      <trkpt lat="42.99692" lon="3.0544">
        <ele>9.2</ele>
        <time>2023-12-30T14:15:24Z</time>
      </trkpt>
      <trkpt lat="42.99693" lon="3.05408">
        <ele>9.2</ele>
        <time>2023-12-30T14:15:34Z</time>
      </trkpt>
      <trkpt lat="42.99694" lon="3.05376">
        <ele>9.2</ele>
        <time>2023-12-30T14:15:44Z</time>
      </trkpt>
      <trkpt lat="42.99698" lon="3.05343">
        <ele>9</ele>
        <time>2023-12-30T14:15:54Z</time>
      </trkpt>
      <trkpt lat="42.99702" lon="3.05304">
        <ele>9.2</ele>
        <time>2023-12-30T14:16:06Z</time>
      </trkpt>
      <trkpt lat="42.99702" lon="3.05301">
        <ele>9.2</ele>
        <time>2023-12-30T14:16:07Z</time>
      </trkpt>
      <trkpt lat="42.99703" lon="3.05298">
        <ele>9.2</ele>
        <time>2023-12-30T14:16:08Z</time>
      </trkpt>
      <trkpt lat="42.99703" lon="3.05296">
        <ele>9.2</ele>
        <time>2023-12-30T14:16:09Z</time>
      </trkpt>
      <trkpt lat="42.99704" lon="3.05292">
        <ele>9.2</ele>
        <time>2023-12-30T14:16:10Z</time>
      </trkpt>
      <trkpt lat="42.99704" lon="3.0529">
        <ele>9.2</ele>
        <time>2023-12-30T14:16:11Z</time>
      </trkpt>
      <trkpt lat="42.99705" lon="3.05287">
        <ele>9.2</ele>
        <time>2023-12-30T14:16:12Z</time>
      </trkpt>
      <trkpt lat="42.99706" lon="3.05272">
        <ele>9.2</ele>
        <time>2023-12-30T14:16:17Z</time>
      </trkpt>
      <trkpt lat="42.99708" lon="3.05266">
        <ele>9.2</ele>
        <time>2023-12-30T14:16:19Z</time>
      </trkpt>
      <trkpt lat="42.99708" lon="3.0526">
        <ele>9.2</ele>
        <time>2023-12-30T14:16:21Z</time>
      </trkpt>
      <trkpt lat="42.99709" lon="3.05257">
        <ele>9.2</ele>
        <time>2023-12-30T14:16:22Z</time>
      </trkpt>
      <trkpt lat="42.99709" lon="3.05251">
        <ele>9.2</ele>
        <time>2023-12-30T14:16:24Z</time>
      </trkpt>
      <trkpt lat="42.99709" lon="3.05248">
        <ele>9.2</ele>
        <time>2023-12-30T14:16:25Z</time>
      </trkpt>
      <trkpt lat="42.99709" lon="3.05246">
        <ele>9.2</ele>
        <time>2023-12-30T14:16:26Z</time>
      </trkpt>
      <trkpt lat="42.9971" lon="3.05243">
        <ele>9.2</ele>
        <time>2023-12-30T14:16:27Z</time>
      </trkpt>
      <trkpt lat="42.9971" lon="3.0524">
        <ele>9.2</ele>
        <time>2023-12-30T14:16:28Z</time>
      </trkpt>
      <trkpt lat="42.99711" lon="3.05234">
        <ele>9.2</ele>
        <time>2023-12-30T14:16:30Z</time>
      </trkpt>
      <trkpt lat="42.99713" lon="3.0521">
        <ele>9.2</ele>
        <time>2023-12-30T14:16:38Z</time>
      </trkpt>
      <trkpt lat="42.99717" lon="3.0518">
        <ele>9.2</ele>
        <time>2023-12-30T14:16:48Z</time>
      </trkpt>
      <trkpt lat="42.99717" lon="3.05178">
        <ele>9.2</ele>
        <time>2023-12-30T14:16:49Z</time>
      </trkpt>
      <trkpt lat="42.99718" lon="3.05175">
        <ele>9.2</ele>
        <time>2023-12-30T14:16:50Z</time>
      </trkpt>
      <trkpt lat="42.99718" lon="3.05171">
        <ele>9.2</ele>
        <time>2023-12-30T14:16:51Z</time>
      </trkpt>
      <trkpt lat="42.99719" lon="3.05162">
        <ele>9.4</ele>
        <time>2023-12-30T14:16:54Z</time>
      </trkpt>
      <trkpt lat="42.99719" lon="3.0516">
        <ele>9.2</ele>
        <time>2023-12-30T14:16:55Z</time>
      </trkpt>
      <trkpt lat="42.99721" lon="3.0515">
        <ele>9.2</ele>
        <time>2023-12-30T14:16:58Z</time>
      </trkpt>
      <trkpt lat="42.99721" lon="3.05141">
        <ele>9.2</ele>
        <time>2023-12-30T14:17:01Z</time>
      </trkpt>
      <trkpt lat="42.99722" lon="3.05135">
        <ele>9.2</ele>
        <time>2023-12-30T14:17:03Z</time>
      </trkpt>
      <trkpt lat="42.99723" lon="3.05133">
        <ele>9.2</ele>
        <time>2023-12-30T14:17:04Z</time>
      </trkpt>
      <trkpt lat="42.99724" lon="3.05131">
        <ele>9.4</ele>
        <time>2023-12-30T14:17:05Z</time>
      </trkpt>
      <trkpt lat="42.99724" lon="3.05128">
        <ele>9.4</ele>
        <time>2023-12-30T14:17:06Z</time>
      </trkpt>
      <trkpt lat="42.99725" lon="3.05125">
        <ele>9.4</ele>
        <time>2023-12-30T14:17:07Z</time>
      </trkpt>
      <trkpt lat="42.99725" lon="3.05123">
        <ele>9.4</ele>
        <time>2023-12-30T14:17:08Z</time>
      </trkpt>
      <trkpt lat="42.99725" lon="3.05122">
        <ele>9.4</ele>
        <time>2023-12-30T14:17:09Z</time>
      </trkpt>
      <trkpt lat="42.99725" lon="3.0512">
        <ele>9.4</ele>
        <time>2023-12-30T14:17:10Z</time>
      </trkpt>
      <trkpt lat="42.99725" lon="3.05115">
        <ele>9.4</ele>
        <time>2023-12-30T14:17:12Z</time>
      </trkpt>
      <trkpt lat="42.99729" lon="3.05092">
        <ele>9.4</ele>
        <time>2023-12-30T14:17:21Z</time>
      </trkpt>
      <trkpt lat="42.99729" lon="3.05088">
        <ele>9.4</ele>
        <time>2023-12-30T14:17:23Z</time>
      </trkpt>
      <trkpt lat="42.99729" lon="3.05086">
        <ele>9.6</ele>
        <time>2023-12-30T14:17:24Z</time>
      </trkpt>
      <trkpt lat="42.9973" lon="3.05084">
        <ele>9.6</ele>
        <time>2023-12-30T14:17:25Z</time>
      </trkpt>
      <trkpt lat="42.9973" lon="3.05081">
        <ele>9.6</ele>
        <time>2023-12-30T14:17:26Z</time>
      </trkpt>
      <trkpt lat="42.9973" lon="3.05078">
        <ele>9.6</ele>
        <time>2023-12-30T14:17:27Z</time>
      </trkpt>
      <trkpt lat="42.99731" lon="3.05073">
        <ele>9.6</ele>
        <time>2023-12-30T14:17:29Z</time>
      </trkpt>
      <trkpt lat="42.99733" lon="3.05052">
        <ele>9.6</ele>
        <time>2023-12-30T14:17:38Z</time>
      </trkpt>
      <trkpt lat="42.99733" lon="3.05049">
        <ele>9.6</ele>
        <time>2023-12-30T14:17:39Z</time>
      </trkpt>
      <trkpt lat="42.99732" lon="3.05047">
        <ele>9.6</ele>
        <time>2023-12-30T14:17:40Z</time>
      </trkpt>
      <trkpt lat="42.99732" lon="3.05044">
        <ele>9.6</ele>
        <time>2023-12-30T14:17:41Z</time>
      </trkpt>
      <trkpt lat="42.99734" lon="3.05018">
        <ele>9.6</ele>
        <time>2023-12-30T14:17:50Z</time>
      </trkpt>
      <trkpt lat="42.99739" lon="3.04993">
        <ele>9.6</ele>
        <time>2023-12-30T14:17:59Z</time>
      </trkpt>
      <trkpt lat="42.99739" lon="3.04991">
        <ele>9.6</ele>
        <time>2023-12-30T14:18:00Z</time>
      </trkpt>
      <trkpt lat="42.9974" lon="3.04988">
        <ele>9.6</ele>
        <time>2023-12-30T14:18:01Z</time>
      </trkpt>
      <trkpt lat="42.9974" lon="3.04984">
        <ele>9.6</ele>
        <time>2023-12-30T14:18:02Z</time>
      </trkpt>
      <trkpt lat="42.99741" lon="3.04982">
        <ele>9.6</ele>
        <time>2023-12-30T14:18:03Z</time>
      </trkpt>
      <trkpt lat="42.99741" lon="3.0498">
        <ele>9.6</ele>
        <time>2023-12-30T14:18:04Z</time>
      </trkpt>
      <trkpt lat="42.99742" lon="3.04978">
        <ele>9.6</ele>
        <time>2023-12-30T14:18:05Z</time>
      </trkpt>
      <trkpt lat="42.99743" lon="3.04975">
        <ele>9.6</ele>
        <time>2023-12-30T14:18:06Z</time>
      </trkpt>
      <trkpt lat="42.99743" lon="3.04972">
        <ele>9.6</ele>
        <time>2023-12-30T14:18:07Z</time>
      </trkpt>
      <trkpt lat="42.99743" lon="3.0497">
        <ele>9.4</ele>
        <time>2023-12-30T14:18:08Z</time>
      </trkpt>
      <trkpt lat="42.99743" lon="3.04968">
        <ele>9.4</ele>
        <time>2023-12-30T14:18:09Z</time>
      </trkpt>
      <trkpt lat="42.99743" lon="3.04966">
        <ele>9.4</ele>
        <time>2023-12-30T14:18:10Z</time>
      </trkpt>
      <trkpt lat="42.99742" lon="3.04963">
        <ele>9.6</ele>
        <time>2023-12-30T14:18:11Z</time>
      </trkpt>
      <trkpt lat="42.99741" lon="3.04961">
        <ele>9.6</ele>
        <time>2023-12-30T14:18:12Z</time>
      </trkpt>
      <trkpt lat="42.9974" lon="3.0496">
        <ele>9.6</ele>
        <time>2023-12-30T14:18:13Z</time>
      </trkpt>
      <trkpt lat="42.99739" lon="3.04959">
        <ele>9.6</ele>
        <time>2023-12-30T14:18:14Z</time>
      </trkpt>
      <trkpt lat="42.99737" lon="3.04958">
        <ele>9.6</ele>
        <time>2023-12-30T14:18:15Z</time>
      </trkpt>
      <trkpt lat="42.99735" lon="3.04957">
        <ele>9.6</ele>
        <time>2023-12-30T14:18:16Z</time>
      </trkpt>
      <trkpt lat="42.99734" lon="3.04957">
        <ele>9.6</ele>
        <time>2023-12-30T14:18:17Z</time>
      </trkpt>
      <trkpt lat="42.99731" lon="3.04957">
        <ele>9.8</ele>
        <time>2023-12-30T14:18:18Z</time>
      </trkpt>
      <trkpt lat="42.99714" lon="3.04954">
        <ele>10</ele>
        <time>2023-12-30T14:18:26Z</time>
      </trkpt>
      <trkpt lat="42.9969" lon="3.0494">
        <ele>10.2</ele>
        <time>2023-12-30T14:18:38Z</time>
      </trkpt>
      <trkpt lat="42.99688" lon="3.04938">
        <ele>10.2</ele>
        <time>2023-12-30T14:18:39Z</time>
      </trkpt>
      <trkpt lat="42.99686" lon="3.04935">
        <ele>10.2</ele>
        <time>2023-12-30T14:18:40Z</time>
      </trkpt>
      <trkpt lat="42.99686" lon="3.04933">
        <ele>10.2</ele>
        <time>2023-12-30T14:18:41Z</time>
      </trkpt>
      <trkpt lat="42.99685" lon="3.0493">
        <ele>10.2</ele>
        <time>2023-12-30T14:18:42Z</time>
      </trkpt>
      <trkpt lat="42.99684" lon="3.04926">
        <ele>10.2</ele>
        <time>2023-12-30T14:18:43Z</time>
      </trkpt>
      <trkpt lat="42.99684" lon="3.04923">
        <ele>10.2</ele>
        <time>2023-12-30T14:18:44Z</time>
      </trkpt>
      <trkpt lat="42.99682" lon="3.04907">
        <ele>10.4</ele>
        <time>2023-12-30T14:18:49Z</time>
      </trkpt>
      <trkpt lat="42.99682" lon="3.04904">
        <ele>10.4</ele>
        <time>2023-12-30T14:18:50Z</time>
      </trkpt>
      <trkpt lat="42.99682" lon="3.04902">
        <ele>10.4</ele>
        <time>2023-12-30T14:18:51Z</time>
      </trkpt>
      <trkpt lat="42.99682" lon="3.04899">
        <ele>10.4</ele>
        <time>2023-12-30T14:18:52Z</time>
      </trkpt>
      <trkpt lat="42.99681" lon="3.04897">
        <ele>10.4</ele>
        <time>2023-12-30T14:18:53Z</time>
      </trkpt>
      <trkpt lat="42.99681" lon="3.04895">
        <ele>10.4</ele>
        <time>2023-12-30T14:18:54Z</time>
      </trkpt>
      <trkpt lat="42.99681" lon="3.04892">
        <ele>10.4</ele>
        <time>2023-12-30T14:18:55Z</time>
      </trkpt>
      <trkpt lat="42.9968" lon="3.0489">
        <ele>10.4</ele>
        <time>2023-12-30T14:18:56Z</time>
      </trkpt>
      <trkpt lat="42.9968" lon="3.04886">
        <ele>10.2</ele>
        <time>2023-12-30T14:18:57Z</time>
      </trkpt>
      <trkpt lat="42.9968" lon="3.04883">
        <ele>10.2</ele>
        <time>2023-12-30T14:18:58Z</time>
      </trkpt>
      <trkpt lat="42.99677" lon="3.04876">
        <ele>10.2</ele>
        <time>2023-12-30T14:19:01Z</time>
      </trkpt>
      <trkpt lat="42.99675" lon="3.04873">
        <ele>10.2</ele>
        <time>2023-12-30T14:19:02Z</time>
      </trkpt>
      <trkpt lat="42.99666" lon="3.04874">
        <ele>10.2</ele>
        <time>2023-12-30T14:19:06Z</time>
      </trkpt>
      <trkpt lat="42.99663" lon="3.04876">
        <ele>10.2</ele>
        <time>2023-12-30T14:19:07Z</time>
      </trkpt>
      <trkpt lat="42.99643" lon="3.04885">
        <ele>10</ele>
        <time>2023-12-30T14:19:14Z</time>
      </trkpt>
      <trkpt lat="42.99618" lon="3.0489">
        <ele>10.2</ele>
        <time>2023-12-30T14:19:23Z</time>
      </trkpt>
      <trkpt lat="42.99613" lon="3.04891">
        <ele>10.2</ele>
        <time>2023-12-30T14:19:25Z</time>
      </trkpt>
      <trkpt lat="42.9961" lon="3.04891">
        <ele>10.2</ele>
        <time>2023-12-30T14:19:26Z</time>
      </trkpt>
      <trkpt lat="42.99599" lon="3.04892">
        <ele>10.2</ele>
        <time>2023-12-30T14:19:30Z</time>
      </trkpt>
      <trkpt lat="42.99583" lon="3.04899">
        <ele>10.2</ele>
        <time>2023-12-30T14:19:36Z</time>
      </trkpt>
      <trkpt lat="42.99572" lon="3.04903">
        <ele>10.2</ele>
        <time>2023-12-30T14:19:40Z</time>
      </trkpt>
      <trkpt lat="42.99567" lon="3.04902">
        <ele>10.4</ele>
        <time>2023-12-30T14:19:42Z</time>
      </trkpt>
      <trkpt lat="42.99565" lon="3.04902">
        <ele>10.4</ele>
        <time>2023-12-30T14:19:43Z</time>
      </trkpt>
      <trkpt lat="42.99563" lon="3.04901">
        <ele>10.4</ele>
        <time>2023-12-30T14:19:44Z</time>
      </trkpt>
      <trkpt lat="42.9956" lon="3.049">
        <ele>10.4</ele>
        <time>2023-12-30T14:19:45Z</time>
      </trkpt>
      <trkpt lat="42.99558" lon="3.04899">
        <ele>10.4</ele>
        <time>2023-12-30T14:19:46Z</time>
      </trkpt>
      <trkpt lat="42.99557" lon="3.04899">
        <ele>10.4</ele>
        <time>2023-12-30T14:19:47Z</time>
      </trkpt>
      <trkpt lat="42.99555" lon="3.04898">
        <ele>10.4</ele>
        <time>2023-12-30T14:19:48Z</time>
      </trkpt>
      <trkpt lat="42.99553" lon="3.04897">
        <ele>10.4</ele>
        <time>2023-12-30T14:19:49Z</time>
      </trkpt>
      <trkpt lat="42.99551" lon="3.04896">
        <ele>10.4</ele>
        <time>2023-12-30T14:19:50Z</time>
      </trkpt>
      <trkpt lat="42.99549" lon="3.04895">
        <ele>10.4</ele>
        <time>2023-12-30T14:19:51Z</time>
      </trkpt>
      <trkpt lat="42.99547" lon="3.04895">
        <ele>10.4</ele>
        <time>2023-12-30T14:19:52Z</time>
      </trkpt>
      <trkpt lat="42.99546" lon="3.04894">
        <ele>10.4</ele>
        <time>2023-12-30T14:19:53Z</time>
      </trkpt>
      <trkpt lat="42.99544" lon="3.04894">
        <ele>10.4</ele>
        <time>2023-12-30T14:19:54Z</time>
      </trkpt>
      <trkpt lat="42.99542" lon="3.04893">
        <ele>10.4</ele>
        <time>2023-12-30T14:19:55Z</time>
      </trkpt>
      <trkpt lat="42.9954" lon="3.04893">
        <ele>10.2</ele>
        <time>2023-12-30T14:19:56Z</time>
      </trkpt>
      <trkpt lat="42.99538" lon="3.04892">
        <ele>10.2</ele>
        <time>2023-12-30T14:19:57Z</time>
      </trkpt>
      <trkpt lat="42.99524" lon="3.04888">
        <ele>10.2</ele>
        <time>2023-12-30T14:20:02Z</time>
      </trkpt>
      <trkpt lat="42.99517" lon="3.04886">
        <ele>10.4</ele>
        <time>2023-12-30T14:20:04Z</time>
      </trkpt>
      <trkpt lat="42.99513" lon="3.04885">
        <ele>10.4</ele>
        <time>2023-12-30T14:20:05Z</time>
      </trkpt>
      <trkpt lat="42.99498" lon="3.04881">
        <ele>10.8</ele>
        <time>2023-12-30T14:20:10Z</time>
      </trkpt>
      <trkpt lat="42.99468" lon="3.04874">
        <ele>10.8</ele>
        <time>2023-12-30T14:20:19Z</time>
      </trkpt>
      <trkpt lat="42.99439" lon="3.04865">
        <ele>11</ele>
        <time>2023-12-30T14:20:27Z</time>
      </trkpt>
      <trkpt lat="42.9942" lon="3.0486">
        <ele>10.8</ele>
        <time>2023-12-30T14:20:33Z</time>
      </trkpt>
      <trkpt lat="42.99418" lon="3.0486">
        <ele>10.8</ele>
        <time>2023-12-30T14:20:34Z</time>
      </trkpt>
      <trkpt lat="42.99415" lon="3.0486">
        <ele>10.8</ele>
        <time>2023-12-30T14:20:35Z</time>
      </trkpt>
      <trkpt lat="42.99412" lon="3.0486">
        <ele>10.8</ele>
        <time>2023-12-30T14:20:36Z</time>
      </trkpt>
      <trkpt lat="42.99409" lon="3.0486">
        <ele>10.8</ele>
        <time>2023-12-30T14:20:37Z</time>
      </trkpt>
      <trkpt lat="42.99406" lon="3.0486">
        <ele>10.8</ele>
        <time>2023-12-30T14:20:38Z</time>
      </trkpt>
      <trkpt lat="42.99403" lon="3.04859">
        <ele>10.8</ele>
        <time>2023-12-30T14:20:39Z</time>
      </trkpt>
      <trkpt lat="42.994" lon="3.04859">
        <ele>10.8</ele>
        <time>2023-12-30T14:20:40Z</time>
      </trkpt>
      <trkpt lat="42.99373" lon="3.04856">
        <ele>10.8</ele>
        <time>2023-12-30T14:20:48Z</time>
      </trkpt>
      <trkpt lat="42.99353" lon="3.04854">
        <ele>10.8</ele>
        <time>2023-12-30T14:20:54Z</time>
      </trkpt>
      <trkpt lat="42.9935" lon="3.04854">
        <ele>10.8</ele>
        <time>2023-12-30T14:20:55Z</time>
      </trkpt>
      <trkpt lat="42.99347" lon="3.04853">
        <ele>10.8</ele>
        <time>2023-12-30T14:20:56Z</time>
      </trkpt>
      <trkpt lat="42.99344" lon="3.04853">
        <ele>10.8</ele>
        <time>2023-12-30T14:20:57Z</time>
      </trkpt>
      <trkpt lat="42.99337" lon="3.04852">
        <ele>10.8</ele>
        <time>2023-12-30T14:20:59Z</time>
      </trkpt>
      <trkpt lat="42.99334" lon="3.04852">
        <ele>10.8</ele>
        <time>2023-12-30T14:21:00Z</time>
      </trkpt>
      <trkpt lat="42.99313" lon="3.04848">
        <ele>10.8</ele>
        <time>2023-12-30T14:21:07Z</time>
      </trkpt>
      <trkpt lat="42.99291" lon="3.04844">
        <ele>11</ele>
        <time>2023-12-30T14:21:14Z</time>
      </trkpt>
      <trkpt lat="42.99288" lon="3.04844">
        <ele>11</ele>
        <time>2023-12-30T14:21:15Z</time>
      </trkpt>
      <trkpt lat="42.99285" lon="3.04843">
        <ele>11</ele>
        <time>2023-12-30T14:21:16Z</time>
      </trkpt>
      <trkpt lat="42.99283" lon="3.04842">
        <ele>11</ele>
        <time>2023-12-30T14:21:17Z</time>
      </trkpt>
      <trkpt lat="42.9928" lon="3.04841">
        <ele>11</ele>
        <time>2023-12-30T14:21:18Z</time>
      </trkpt>
      <trkpt lat="42.99277" lon="3.0484">
        <ele>11</ele>
        <time>2023-12-30T14:21:19Z</time>
      </trkpt>
      <trkpt lat="42.99274" lon="3.0484">
        <ele>11</ele>
        <time>2023-12-30T14:21:20Z</time>
      </trkpt>
      <trkpt lat="42.99271" lon="3.04838">
        <ele>11</ele>
        <time>2023-12-30T14:21:21Z</time>
      </trkpt>
      <trkpt lat="42.99269" lon="3.04837">
        <ele>11.2</ele>
        <time>2023-12-30T14:21:22Z</time>
      </trkpt>
      <trkpt lat="42.99266" lon="3.04836">
        <ele>11.2</ele>
        <time>2023-12-30T14:21:23Z</time>
      </trkpt>
      <trkpt lat="42.99263" lon="3.04835">
        <ele>11.2</ele>
        <time>2023-12-30T14:21:24Z</time>
      </trkpt>
      <trkpt lat="42.99229" lon="3.04815">
        <ele>11</ele>
        <time>2023-12-30T14:21:35Z</time>
      </trkpt>
      <trkpt lat="42.99205" lon="3.048">
        <ele>10.8</ele>
        <time>2023-12-30T14:21:43Z</time>
      </trkpt>
      <trkpt lat="42.99203" lon="3.04799">
        <ele>10.8</ele>
        <time>2023-12-30T14:21:44Z</time>
      </trkpt>
      <trkpt lat="42.992" lon="3.04797">
        <ele>11</ele>
        <time>2023-12-30T14:21:45Z</time>
      </trkpt>
      <trkpt lat="42.99198" lon="3.04796">
        <ele>11</ele>
        <time>2023-12-30T14:21:46Z</time>
      </trkpt>
      <trkpt lat="42.99196" lon="3.04795">
        <ele>11</ele>
        <time>2023-12-30T14:21:47Z</time>
      </trkpt>
      <trkpt lat="42.99194" lon="3.04793">
        <ele>11</ele>
        <time>2023-12-30T14:21:48Z</time>
      </trkpt>
      <trkpt lat="42.99191" lon="3.04792">
        <ele>11</ele>
        <time>2023-12-30T14:21:49Z</time>
      </trkpt>
      <trkpt lat="42.99189" lon="3.04791">
        <ele>11</ele>
        <time>2023-12-30T14:21:50Z</time>
      </trkpt>
      <trkpt lat="42.99187" lon="3.0479">
        <ele>11</ele>
        <time>2023-12-30T14:21:51Z</time>
      </trkpt>
      <trkpt lat="42.99185" lon="3.04789">
        <ele>11</ele>
        <time>2023-12-30T14:21:52Z</time>
      </trkpt>
      <trkpt lat="42.99183" lon="3.04788">
        <ele>11</ele>
        <time>2023-12-30T14:21:53Z</time>
      </trkpt>
      <trkpt lat="42.9918" lon="3.04786">
        <ele>11</ele>
        <time>2023-12-30T14:21:54Z</time>
      </trkpt>
      <trkpt lat="42.99177" lon="3.04784">
        <ele>11</ele>
        <time>2023-12-30T14:21:55Z</time>
      </trkpt>
      <trkpt lat="42.99172" lon="3.04781">
        <ele>11</ele>
        <time>2023-12-30T14:21:57Z</time>
      </trkpt>
      <trkpt lat="42.99148" lon="3.04766">
        <ele>10.8</ele>
        <time>2023-12-30T14:22:06Z</time>
      </trkpt>
      <trkpt lat="42.9914" lon="3.04761">
        <ele>10.8</ele>
        <time>2023-12-30T14:22:09Z</time>
      </trkpt>
      <trkpt lat="42.99138" lon="3.04759">
        <ele>10.8</ele>
        <time>2023-12-30T14:22:10Z</time>
      </trkpt>
      <trkpt lat="42.99135" lon="3.04758">
        <ele>10.8</ele>
        <time>2023-12-30T14:22:11Z</time>
      </trkpt>
      <trkpt lat="42.99133" lon="3.04757">
        <ele>10.8</ele>
        <time>2023-12-30T14:22:12Z</time>
      </trkpt>
      <trkpt lat="42.9913" lon="3.04756">
        <ele>10.8</ele>
        <time>2023-12-30T14:22:13Z</time>
      </trkpt>
      <trkpt lat="42.99128" lon="3.04754">
        <ele>10.8</ele>
        <time>2023-12-30T14:22:14Z</time>
      </trkpt>
      <trkpt lat="42.99125" lon="3.04752">
        <ele>10.8</ele>
        <time>2023-12-30T14:22:15Z</time>
      </trkpt>
      <trkpt lat="42.99108" lon="3.04744">
        <ele>11</ele>
        <time>2023-12-30T14:22:21Z</time>
      </trkpt>
      <trkpt lat="42.99083" lon="3.04732">
        <ele>11</ele>
        <time>2023-12-30T14:22:30Z</time>
      </trkpt>
      <trkpt lat="42.9908" lon="3.04731">
        <ele>11</ele>
        <time>2023-12-30T14:22:31Z</time>
      </trkpt>
      <trkpt lat="42.99078" lon="3.04729">
        <ele>11</ele>
        <time>2023-12-30T14:22:32Z</time>
      </trkpt>
      <trkpt lat="42.99075" lon="3.04728">
        <ele>11</ele>
        <time>2023-12-30T14:22:33Z</time>
      </trkpt>
      <trkpt lat="42.99073" lon="3.04727">
        <ele>11.2</ele>
        <time>2023-12-30T14:22:34Z</time>
      </trkpt>
      <trkpt lat="42.99071" lon="3.04726">
        <ele>11.2</ele>
        <time>2023-12-30T14:22:35Z</time>
      </trkpt>
      <trkpt lat="42.99068" lon="3.04724">
        <ele>11.2</ele>
        <time>2023-12-30T14:22:36Z</time>
      </trkpt>
      <trkpt lat="42.99065" lon="3.04723">
        <ele>11.2</ele>
        <time>2023-12-30T14:22:37Z</time>
      </trkpt>
      <trkpt lat="42.99062" lon="3.04721">
        <ele>11.2</ele>
        <time>2023-12-30T14:22:38Z</time>
      </trkpt>
      <trkpt lat="42.99051" lon="3.04716">
        <ele>11.2</ele>
        <time>2023-12-30T14:22:42Z</time>
      </trkpt>
      <trkpt lat="42.99034" lon="3.04709">
        <ele>11.2</ele>
        <time>2023-12-30T14:22:48Z</time>
      </trkpt>
      <trkpt lat="42.99008" lon="3.04698">
        <ele>11.2</ele>
        <time>2023-12-30T14:22:57Z</time>
      </trkpt>
      <trkpt lat="42.98975" lon="3.0468">
        <ele>11.2</ele>
        <time>2023-12-30T14:23:07Z</time>
      </trkpt>
      <trkpt lat="42.98966" lon="3.04677">
        <ele>11.2</ele>
        <time>2023-12-30T14:23:10Z</time>
      </trkpt>
      <trkpt lat="42.98963" lon="3.04676">
        <ele>11</ele>
        <time>2023-12-30T14:23:11Z</time>
      </trkpt>
      <trkpt lat="42.98943" lon="3.04671">
        <ele>10.8</ele>
        <time>2023-12-30T14:23:17Z</time>
      </trkpt>
      <trkpt lat="42.98923" lon="3.04671">
        <ele>10.8</ele>
        <time>2023-12-30T14:23:23Z</time>
      </trkpt>
      <trkpt lat="42.98919" lon="3.04671">
        <ele>10.8</ele>
        <time>2023-12-30T14:23:24Z</time>
      </trkpt>
      <trkpt lat="42.98915" lon="3.04671">
        <ele>11</ele>
        <time>2023-12-30T14:23:25Z</time>
      </trkpt>
      <trkpt lat="42.98913" lon="3.04671">
        <ele>11</ele>
        <time>2023-12-30T14:23:26Z</time>
      </trkpt>
      <trkpt lat="42.98902" lon="3.04671">
        <ele>11</ele>
        <time>2023-12-30T14:23:29Z</time>
      </trkpt>
      <trkpt lat="42.98896" lon="3.04671">
        <ele>11</ele>
        <time>2023-12-30T14:23:31Z</time>
      </trkpt>
      <trkpt lat="42.98893" lon="3.0467">
        <ele>11</ele>
        <time>2023-12-30T14:23:32Z</time>
      </trkpt>
      <trkpt lat="42.9889" lon="3.0467">
        <ele>11</ele>
        <time>2023-12-30T14:23:33Z</time>
      </trkpt>
      <trkpt lat="42.98881" lon="3.04668">
        <ele>11</ele>
        <time>2023-12-30T14:23:36Z</time>
      </trkpt>
      <trkpt lat="42.98863" lon="3.0466">
        <ele>11.2</ele>
        <time>2023-12-30T14:23:42Z</time>
      </trkpt>
      <trkpt lat="42.98849" lon="3.04651">
        <ele>11.2</ele>
        <time>2023-12-30T14:23:47Z</time>
      </trkpt>
      <trkpt lat="42.98835" lon="3.04642">
        <ele>11.2</ele>
        <time>2023-12-30T14:23:52Z</time>
      </trkpt>
      <trkpt lat="42.98832" lon="3.0464">
        <ele>11.2</ele>
        <time>2023-12-30T14:23:53Z</time>
      </trkpt>
      <trkpt lat="42.98824" lon="3.04635">
        <ele>11.2</ele>
        <time>2023-12-30T14:23:56Z</time>
      </trkpt>
      <trkpt lat="42.98809" lon="3.04626">
        <ele>11.4</ele>
        <time>2023-12-30T14:24:01Z</time>
      </trkpt>
      <trkpt lat="42.98807" lon="3.04624">
        <ele>11.4</ele>
        <time>2023-12-30T14:24:02Z</time>
      </trkpt>
      <trkpt lat="42.98804" lon="3.04622">
        <ele>11.4</ele>
        <time>2023-12-30T14:24:03Z</time>
      </trkpt>
      <trkpt lat="42.988" lon="3.04618">
        <ele>11.4</ele>
        <time>2023-12-30T14:24:05Z</time>
      </trkpt>
      <trkpt lat="42.98797" lon="3.04615">
        <ele>11.2</ele>
        <time>2023-12-30T14:24:06Z</time>
      </trkpt>
      <trkpt lat="42.98793" lon="3.04612">
        <ele>11.2</ele>
        <time>2023-12-30T14:24:08Z</time>
      </trkpt>
      <trkpt lat="42.98791" lon="3.04611">
        <ele>11.2</ele>
        <time>2023-12-30T14:24:09Z</time>
      </trkpt>
      <trkpt lat="42.98788" lon="3.04608">
        <ele>11.2</ele>
        <time>2023-12-30T14:24:10Z</time>
      </trkpt>
      <trkpt lat="42.98778" lon="3.04599">
        <ele>11</ele>
        <time>2023-12-30T14:24:14Z</time>
      </trkpt>
      <trkpt lat="42.98771" lon="3.04593">
        <ele>11</ele>
        <time>2023-12-30T14:24:17Z</time>
      </trkpt>
      <trkpt lat="42.98769" lon="3.0459">
        <ele>11</ele>
        <time>2023-12-30T14:24:18Z</time>
      </trkpt>
      <trkpt lat="42.98746" lon="3.04567">
        <ele>11</ele>
        <time>2023-12-30T14:24:27Z</time>
      </trkpt>
      <trkpt lat="42.98721" lon="3.04549">
        <ele>11</ele>
        <time>2023-12-30T14:24:36Z</time>
      </trkpt>
      <trkpt lat="42.98712" lon="3.04542">
        <ele>11.2</ele>
        <time>2023-12-30T14:24:39Z</time>
      </trkpt>
      <trkpt lat="42.9871" lon="3.0454">
        <ele>11.4</ele>
        <time>2023-12-30T14:24:40Z</time>
      </trkpt>
      <trkpt lat="42.98707" lon="3.04539">
        <ele>11.4</ele>
        <time>2023-12-30T14:24:41Z</time>
      </trkpt>
      <trkpt lat="42.98684" lon="3.04521">
        <ele>11.2</ele>
        <time>2023-12-30T14:24:49Z</time>
      </trkpt>
      <trkpt lat="42.98653" lon="3.04496">
        <ele>11.2</ele>
        <time>2023-12-30T14:25:00Z</time>
      </trkpt>
      <trkpt lat="42.98636" lon="3.04483">
        <ele>11.2</ele>
        <time>2023-12-30T14:25:06Z</time>
      </trkpt>
      <trkpt lat="42.98634" lon="3.04482">
        <ele>11.2</ele>
        <time>2023-12-30T14:25:07Z</time>
      </trkpt>
      <trkpt lat="42.98631" lon="3.04479">
        <ele>11.2</ele>
        <time>2023-12-30T14:25:08Z</time>
      </trkpt>
      <trkpt lat="42.98626" lon="3.04476">
        <ele>11.2</ele>
        <time>2023-12-30T14:25:10Z</time>
      </trkpt>
      <trkpt lat="42.98623" lon="3.04473">
        <ele>11.2</ele>
        <time>2023-12-30T14:25:11Z</time>
      </trkpt>
      <trkpt lat="42.9862" lon="3.04471">
        <ele>11.2</ele>
        <time>2023-12-30T14:25:12Z</time>
      </trkpt>
      <trkpt lat="42.98618" lon="3.0447">
        <ele>11.2</ele>
        <time>2023-12-30T14:25:13Z</time>
      </trkpt>
      <trkpt lat="42.98616" lon="3.04468">
        <ele>11.2</ele>
        <time>2023-12-30T14:25:14Z</time>
      </trkpt>
      <trkpt lat="42.9861" lon="3.04465">
        <ele>11.2</ele>
        <time>2023-12-30T14:25:16Z</time>
      </trkpt>
      <trkpt lat="42.98607" lon="3.04463">
        <ele>11.2</ele>
        <time>2023-12-30T14:25:17Z</time>
      </trkpt>
      <trkpt lat="42.98604" lon="3.04462">
        <ele>11.2</ele>
        <time>2023-12-30T14:25:18Z</time>
      </trkpt>
      <trkpt lat="42.98596" lon="3.04457">
        <ele>11.2</ele>
        <time>2023-12-30T14:25:21Z</time>
      </trkpt>
      <trkpt lat="42.98566" lon="3.04442">
        <ele>11.2</ele>
        <time>2023-12-30T14:25:31Z</time>
      </trkpt>
      <trkpt lat="42.98563" lon="3.0444">
        <ele>11.2</ele>
        <time>2023-12-30T14:25:32Z</time>
      </trkpt>
      <trkpt lat="42.98557" lon="3.04438">
        <ele>11.2</ele>
        <time>2023-12-30T14:25:34Z</time>
      </trkpt>
      <trkpt lat="42.9855" lon="3.04435">
        <ele>11.2</ele>
        <time>2023-12-30T14:25:36Z</time>
      </trkpt>
      <trkpt lat="42.98547" lon="3.04433">
        <ele>11.2</ele>
        <time>2023-12-30T14:25:37Z</time>
      </trkpt>
      <trkpt lat="42.98545" lon="3.04432">
        <ele>11.2</ele>
        <time>2023-12-30T14:25:38Z</time>
      </trkpt>
      <trkpt lat="42.98541" lon="3.0443">
        <ele>11.2</ele>
        <time>2023-12-30T14:25:39Z</time>
      </trkpt>
      <trkpt lat="42.98523" lon="3.04411">
        <ele>11</ele>
        <time>2023-12-30T14:25:47Z</time>
      </trkpt>
      <trkpt lat="42.98502" lon="3.04379">
        <ele>11</ele>
        <time>2023-12-30T14:25:57Z</time>
      </trkpt>
      <trkpt lat="42.98493" lon="3.04366">
        <ele>11</ele>
        <time>2023-12-30T14:26:01Z</time>
      </trkpt>
      <trkpt lat="42.98491" lon="3.04363">
        <ele>11</ele>
        <time>2023-12-30T14:26:02Z</time>
      </trkpt>
      <trkpt lat="42.98478" lon="3.04347">
        <ele>11.2</ele>
        <time>2023-12-30T14:26:07Z</time>
      </trkpt>
      <trkpt lat="42.98457" lon="3.04333">
        <ele>11.2</ele>
        <time>2023-12-30T14:26:14Z</time>
      </trkpt>
      <trkpt lat="42.98439" lon="3.04323">
        <ele>11.6</ele>
        <time>2023-12-30T14:26:20Z</time>
      </trkpt>
      <trkpt lat="42.98436" lon="3.04321">
        <ele>11.6</ele>
        <time>2023-12-30T14:26:21Z</time>
      </trkpt>
      <trkpt lat="42.98433" lon="3.04319">
        <ele>11.6</ele>
        <time>2023-12-30T14:26:22Z</time>
      </trkpt>
      <trkpt lat="42.98425" lon="3.04314">
        <ele>11.8</ele>
        <time>2023-12-30T14:26:25Z</time>
      </trkpt>
      <trkpt lat="42.98392" lon="3.04298">
        <ele>11.8</ele>
        <time>2023-12-30T14:26:35Z</time>
      </trkpt>
      <trkpt lat="42.98389" lon="3.04296">
        <ele>11.8</ele>
        <time>2023-12-30T14:26:36Z</time>
      </trkpt>
      <trkpt lat="42.98386" lon="3.04295">
        <ele>11.8</ele>
        <time>2023-12-30T14:26:37Z</time>
      </trkpt>
      <trkpt lat="42.98368" lon="3.04285">
        <ele>11.8</ele>
        <time>2023-12-30T14:26:43Z</time>
      </trkpt>
      <trkpt lat="42.98362" lon="3.04281">
        <ele>11.8</ele>
        <time>2023-12-30T14:26:45Z</time>
      </trkpt>
      <trkpt lat="42.98359" lon="3.04279">
        <ele>11.8</ele>
        <time>2023-12-30T14:26:46Z</time>
      </trkpt>
      <trkpt lat="42.98357" lon="3.04277">
        <ele>11.8</ele>
        <time>2023-12-30T14:26:47Z</time>
      </trkpt>
      <trkpt lat="42.98354" lon="3.04275">
        <ele>11.8</ele>
        <time>2023-12-30T14:26:48Z</time>
      </trkpt>
      <trkpt lat="42.98334" lon="3.04256">
        <ele>11.8</ele>
        <time>2023-12-30T14:26:55Z</time>
      </trkpt>
      <trkpt lat="42.98317" lon="3.04239">
        <ele>11.8</ele>
        <time>2023-12-30T14:27:02Z</time>
      </trkpt>
      <trkpt lat="42.98314" lon="3.04236">
        <ele>11.8</ele>
        <time>2023-12-30T14:27:03Z</time>
      </trkpt>
      <trkpt lat="42.98311" lon="3.04233">
        <ele>11.8</ele>
        <time>2023-12-30T14:27:04Z</time>
      </trkpt>
      <trkpt lat="42.98309" lon="3.04231">
        <ele>11.8</ele>
        <time>2023-12-30T14:27:05Z</time>
      </trkpt>
      <trkpt lat="42.98307" lon="3.04229">
        <ele>11.8</ele>
        <time>2023-12-30T14:27:06Z</time>
      </trkpt>
      <trkpt lat="42.98304" lon="3.04227">
        <ele>11.8</ele>
        <time>2023-12-30T14:27:07Z</time>
      </trkpt>
      <trkpt lat="42.98301" lon="3.04224">
        <ele>11.8</ele>
        <time>2023-12-30T14:27:08Z</time>
      </trkpt>
      <trkpt lat="42.98299" lon="3.04222">
        <ele>11.8</ele>
        <time>2023-12-30T14:27:09Z</time>
      </trkpt>
      <trkpt lat="42.98297" lon="3.04219">
        <ele>11.8</ele>
        <time>2023-12-30T14:27:10Z</time>
      </trkpt>
      <trkpt lat="42.98295" lon="3.04216">
        <ele>11.8</ele>
        <time>2023-12-30T14:27:11Z</time>
      </trkpt>
      <trkpt lat="42.98293" lon="3.04213">
        <ele>11.8</ele>
        <time>2023-12-30T14:27:12Z</time>
      </trkpt>
      <trkpt lat="42.98289" lon="3.04208">
        <ele>11.8</ele>
        <time>2023-12-30T14:27:14Z</time>
      </trkpt>
      <trkpt lat="42.98287" lon="3.04206">
        <ele>11.8</ele>
        <time>2023-12-30T14:27:15Z</time>
      </trkpt>
      <trkpt lat="42.98285" lon="3.04204">
        <ele>11.8</ele>
        <time>2023-12-30T14:27:16Z</time>
      </trkpt>
      <trkpt lat="42.98283" lon="3.04201">
        <ele>11.6</ele>
        <time>2023-12-30T14:27:17Z</time>
      </trkpt>
      <trkpt lat="42.98277" lon="3.04194">
        <ele>11.6</ele>
        <time>2023-12-30T14:27:20Z</time>
      </trkpt>
      <trkpt lat="42.98257" lon="3.04168">
        <ele>11.6</ele>
        <time>2023-12-30T14:27:29Z</time>
      </trkpt>
      <trkpt lat="42.98231" lon="3.0414">
        <ele>11.6</ele>
        <time>2023-12-30T14:27:40Z</time>
      </trkpt>
      <trkpt lat="42.98203" lon="3.04114">
        <ele>11.6</ele>
        <time>2023-12-30T14:27:51Z</time>
      </trkpt>
      <trkpt lat="42.98201" lon="3.04112">
        <ele>11.6</ele>
        <time>2023-12-30T14:27:52Z</time>
      </trkpt>
      <trkpt lat="42.982" lon="3.0411">
        <ele>11.4</ele>
        <time>2023-12-30T14:27:53Z</time>
      </trkpt>
      <trkpt lat="42.98198" lon="3.04106">
        <ele>11.4</ele>
        <time>2023-12-30T14:27:54Z</time>
      </trkpt>
      <trkpt lat="42.98197" lon="3.04104">
        <ele>11.4</ele>
        <time>2023-12-30T14:27:55Z</time>
      </trkpt>
      <trkpt lat="42.98196" lon="3.04101">
        <ele>11.4</ele>
        <time>2023-12-30T14:27:56Z</time>
      </trkpt>
      <trkpt lat="42.98196" lon="3.041">
        <ele>11.4</ele>
        <time>2023-12-30T14:27:57Z</time>
      </trkpt>
      <trkpt lat="42.98196" lon="3.04099">
        <ele>11.4</ele>
        <time>2023-12-30T14:27:58Z</time>
      </trkpt>
      <trkpt lat="42.98196" lon="3.04098">
        <ele>11.4</ele>
        <time>2023-12-30T14:27:59Z</time>
      </trkpt>
      <trkpt lat="42.98196" lon="3.04097">
        <ele>11.2</ele>
        <time>2023-12-30T14:28:00Z</time>
      </trkpt>
      <trkpt lat="42.98195" lon="3.04096">
        <ele>11.2</ele>
        <time>2023-12-30T14:28:01Z</time>
      </trkpt>
      <trkpt lat="42.98195" lon="3.04096">
        <ele>11.2</ele>
        <time>2023-12-30T14:28:02Z</time>
      </trkpt>
      <trkpt lat="42.98196" lon="3.04096">
        <ele>11.2</ele>
        <time>2023-12-30T14:28:04Z</time>
      </trkpt>
      <trkpt lat="42.98197" lon="3.04084">
        <ele>11.2</ele>
        <time>2023-12-30T14:33:09Z</time>
      </trkpt>
      <trkpt lat="42.98198" lon="3.04082">
        <ele>11.2</ele>
        <time>2023-12-30T14:33:10Z</time>
      </trkpt>
      <trkpt lat="42.98199" lon="3.0408">
        <ele>11.2</ele>
        <time>2023-12-30T14:33:11Z</time>
      </trkpt>
      <trkpt lat="42.98201" lon="3.04077">
        <ele>11.2</ele>
        <time>2023-12-30T14:33:13Z</time>
      </trkpt>
      <trkpt lat="42.98203" lon="3.04072">
        <ele>11.6</ele>
        <time>2023-12-30T14:33:16Z</time>
      </trkpt>
      <trkpt lat="42.98202" lon="3.04069">
        <ele>11.6</ele>
        <time>2023-12-30T14:33:18Z</time>
      </trkpt>
      <trkpt lat="42.98202" lon="3.04068">
        <ele>11.8</ele>
        <time>2023-12-30T14:33:20Z</time>
      </trkpt>
      <trkpt lat="42.98199" lon="3.04069">
        <ele>11.8</ele>
        <time>2023-12-30T14:33:21Z</time>
      </trkpt>
      <trkpt lat="42.98198" lon="3.0407">
        <ele>11.8</ele>
        <time>2023-12-30T14:33:22Z</time>
      </trkpt>
      <trkpt lat="42.98198" lon="3.0407">
        <ele>12.2</ele>
        <time>2023-12-30T14:33:23Z</time>
      </trkpt>
      <trkpt lat="42.98197" lon="3.04073">
        <ele>12.2</ele>
        <time>2023-12-30T14:33:24Z</time>
      </trkpt>
      <trkpt lat="42.98194" lon="3.04077">
        <ele>12.4</ele>
        <time>2023-12-30T14:33:25Z</time>
      </trkpt>
      <trkpt lat="42.98191" lon="3.04081">
        <ele>12.4</ele>
        <time>2023-12-30T14:33:26Z</time>
      </trkpt>
      <trkpt lat="42.98188" lon="3.04085">
        <ele>12.4</ele>
        <time>2023-12-30T14:34:05Z</time>
      </trkpt>
      <trkpt lat="42.98186" lon="3.04088">
        <ele>12.2</ele>
        <time>2023-12-30T14:34:06Z</time>
      </trkpt>
      <trkpt lat="42.98184" lon="3.04087">
        <ele>12.2</ele>
        <time>2023-12-30T14:34:07Z</time>
      </trkpt>
      <trkpt lat="42.98177" lon="3.04079">
        <ele>11.8</ele>
        <time>2023-12-30T14:34:11Z</time>
      </trkpt>
      <trkpt lat="42.98176" lon="3.04077">
        <ele>11.6</ele>
        <time>2023-12-30T14:34:12Z</time>
      </trkpt>
      <trkpt lat="42.98171" lon="3.04071">
        <ele>11.4</ele>
        <time>2023-12-30T14:34:15Z</time>
      </trkpt>
      <trkpt lat="42.9816" lon="3.04061">
        <ele>11.4</ele>
        <time>2023-12-30T14:34:22Z</time>
      </trkpt>
      <trkpt lat="42.98158" lon="3.04061">
        <ele>11.4</ele>
        <time>2023-12-30T14:34:23Z</time>
      </trkpt>
      <trkpt lat="42.98156" lon="3.0406">
        <ele>11.4</ele>
        <time>2023-12-30T14:34:24Z</time>
      </trkpt>
      <trkpt lat="42.98154" lon="3.04059">
        <ele>11.4</ele>
        <time>2023-12-30T14:34:25Z</time>
      </trkpt>
      <trkpt lat="42.98152" lon="3.04058">
        <ele>11.4</ele>
        <time>2023-12-30T14:34:26Z</time>
      </trkpt>
      <trkpt lat="42.98145" lon="3.04054">
        <ele>11.4</ele>
        <time>2023-12-30T14:34:29Z</time>
      </trkpt>
      <trkpt lat="42.98141" lon="3.04051">
        <ele>11.4</ele>
        <time>2023-12-30T14:34:31Z</time>
      </trkpt>
      <trkpt lat="42.98128" lon="3.0404">
        <ele>11.2</ele>
        <time>2023-12-30T14:34:37Z</time>
      </trkpt>
      <trkpt lat="42.98106" lon="3.04023">
        <ele>11.2</ele>
        <time>2023-12-30T14:34:47Z</time>
      </trkpt>
      <trkpt lat="42.98104" lon="3.04022">
        <ele>11.2</ele>
        <time>2023-12-30T14:34:48Z</time>
      </trkpt>
      <trkpt lat="42.98102" lon="3.04021">
        <ele>11.2</ele>
        <time>2023-12-30T14:34:49Z</time>
      </trkpt>
      <trkpt lat="42.98099" lon="3.04019">
        <ele>11.2</ele>
        <time>2023-12-30T14:34:50Z</time>
      </trkpt>
      <trkpt lat="42.98097" lon="3.04018">
        <ele>11.2</ele>
        <time>2023-12-30T14:34:51Z</time>
      </trkpt>
      <trkpt lat="42.98097" lon="3.04018">
        <ele>11.2</ele>
        <time>2023-12-30T14:34:52Z</time>
      </trkpt>
      <trkpt lat="42.98084" lon="3.04011">
        <ele>11.2</ele>
        <time>2023-12-30T14:34:57Z</time>
      </trkpt>
      <trkpt lat="42.98081" lon="3.0401">
        <ele>11.2</ele>
        <time>2023-12-30T14:34:58Z</time>
      </trkpt>
      <trkpt lat="42.9807" lon="3.04004">
        <ele>11</ele>
        <time>2023-12-30T14:35:03Z</time>
      </trkpt>
      <trkpt lat="42.98068" lon="3.04004">
        <ele>11</ele>
        <time>2023-12-30T14:35:04Z</time>
      </trkpt>
      <trkpt lat="42.98066" lon="3.04003">
        <ele>11</ele>
        <time>2023-12-30T14:35:05Z</time>
      </trkpt>
      <trkpt lat="42.98066" lon="3.04003">
        <ele>11</ele>
        <time>2023-12-30T14:35:06Z</time>
      </trkpt>
      <trkpt lat="42.98058" lon="3.03998">
        <ele>11.2</ele>
        <time>2023-12-30T14:35:09Z</time>
      </trkpt>
      <trkpt lat="42.98034" lon="3.03987">
        <ele>11.2</ele>
        <time>2023-12-30T14:35:19Z</time>
      </trkpt>
      <trkpt lat="42.98008" lon="3.03974">
        <ele>11.2</ele>
        <time>2023-12-30T14:35:29Z</time>
      </trkpt>
      <trkpt lat="42.98006" lon="3.03973">
        <ele>11.2</ele>
        <time>2023-12-30T14:35:30Z</time>
      </trkpt>
      <trkpt lat="42.98004" lon="3.03972">
        <ele>11.2</ele>
        <time>2023-12-30T14:35:31Z</time>
      </trkpt>
      <trkpt lat="42.98001" lon="3.03971">
        <ele>11.2</ele>
        <time>2023-12-30T14:35:32Z</time>
      </trkpt>
      <trkpt lat="42.97999" lon="3.03969">
        <ele>11.2</ele>
        <time>2023-12-30T14:35:33Z</time>
      </trkpt>
      <trkpt lat="42.97989" lon="3.03964">
        <ele>11.4</ele>
        <time>2023-12-30T14:35:37Z</time>
      </trkpt>
      <trkpt lat="42.97978" lon="3.03958">
        <ele>11.4</ele>
        <time>2023-12-30T14:35:42Z</time>
      </trkpt>
      <trkpt lat="42.97961" lon="3.0395">
        <ele>11.4</ele>
        <time>2023-12-30T14:35:49Z</time>
      </trkpt>
      <trkpt lat="42.97959" lon="3.03949">
        <ele>11.4</ele>
        <time>2023-12-30T14:35:50Z</time>
      </trkpt>
      <trkpt lat="42.97957" lon="3.03948">
        <ele>11.4</ele>
        <time>2023-12-30T14:35:51Z</time>
      </trkpt>
      <trkpt lat="42.97944" lon="3.03941">
        <ele>11.6</ele>
        <time>2023-12-30T14:35:56Z</time>
      </trkpt>
      <trkpt lat="42.97935" lon="3.03936">
        <ele>11.6</ele>
        <time>2023-12-30T14:36:00Z</time>
      </trkpt>
      <trkpt lat="42.97927" lon="3.03932">
        <ele>11.4</ele>
        <time>2023-12-30T14:36:03Z</time>
      </trkpt>
      <trkpt lat="42.97924" lon="3.03931">
        <ele>11.6</ele>
        <time>2023-12-30T14:36:04Z</time>
      </trkpt>
      <trkpt lat="42.97907" lon="3.03922">
        <ele>11.6</ele>
        <time>2023-12-30T14:36:11Z</time>
      </trkpt>
      <trkpt lat="42.97877" lon="3.03906">
        <ele>11.6</ele>
        <time>2023-12-30T14:36:22Z</time>
      </trkpt>
      <trkpt lat="42.97868" lon="3.03902">
        <ele>11.8</ele>
        <time>2023-12-30T14:36:25Z</time>
      </trkpt>
      <trkpt lat="42.97842" lon="3.03889">
        <ele>11.8</ele>
        <time>2023-12-30T14:36:35Z</time>
      </trkpt>
      <trkpt lat="42.97837" lon="3.03886">
        <ele>11.8</ele>
        <time>2023-12-30T14:36:36Z</time>
      </trkpt>
      <trkpt lat="42.97834" lon="3.03885">
        <ele>11.8</ele>
        <time>2023-12-30T14:36:37Z</time>
      </trkpt>
      <trkpt lat="42.97822" lon="3.03883">
        <ele>11.8</ele>
        <time>2023-12-30T14:36:41Z</time>
      </trkpt>
      <trkpt lat="42.97821" lon="3.03882">
        <ele>11.8</ele>
        <time>2023-12-30T14:36:42Z</time>
      </trkpt>
      <trkpt lat="42.97818" lon="3.03882">
        <ele>11.8</ele>
        <time>2023-12-30T14:36:43Z</time>
      </trkpt>
      <trkpt lat="42.97816" lon="3.03881">
        <ele>11.8</ele>
        <time>2023-12-30T14:36:44Z</time>
      </trkpt>
      <trkpt lat="42.97815" lon="3.0388">
        <ele>11.8</ele>
        <time>2023-12-30T14:36:45Z</time>
      </trkpt>
      <trkpt lat="42.97813" lon="3.0388">
        <ele>11.8</ele>
        <time>2023-12-30T14:36:46Z</time>
      </trkpt>
      <trkpt lat="42.97813" lon="3.0388">
        <ele>12</ele>
        <time>2023-12-30T14:36:47Z</time>
      </trkpt>
      <trkpt lat="42.97808" lon="3.03877">
        <ele>12</ele>
        <time>2023-12-30T14:36:49Z</time>
      </trkpt>
      <trkpt lat="42.97806" lon="3.03876">
        <ele>12.2</ele>
        <time>2023-12-30T14:36:50Z</time>
      </trkpt>
      <trkpt lat="42.97803" lon="3.03874">
        <ele>12.2</ele>
        <time>2023-12-30T14:36:51Z</time>
      </trkpt>
      <trkpt lat="42.97801" lon="3.03872">
        <ele>12.2</ele>
        <time>2023-12-30T14:36:52Z</time>
      </trkpt>
      <trkpt lat="42.97787" lon="3.03861">
        <ele>12.2</ele>
        <time>2023-12-30T14:36:57Z</time>
      </trkpt>
      <trkpt lat="42.97782" lon="3.03857">
        <ele>12.2</ele>
        <time>2023-12-30T14:36:59Z</time>
      </trkpt>
      <trkpt lat="42.97771" lon="3.03851">
        <ele>12</ele>
        <time>2023-12-30T14:37:04Z</time>
      </trkpt>
      <trkpt lat="42.97769" lon="3.0385">
        <ele>12</ele>
        <time>2023-12-30T14:37:05Z</time>
      </trkpt>
      <trkpt lat="42.97767" lon="3.03849">
        <ele>12</ele>
        <time>2023-12-30T14:37:06Z</time>
      </trkpt>
      <trkpt lat="42.97765" lon="3.03848">
        <ele>12</ele>
        <time>2023-12-30T14:37:07Z</time>
      </trkpt>
      <trkpt lat="42.97763" lon="3.03847">
        <ele>12</ele>
        <time>2023-12-30T14:37:08Z</time>
      </trkpt>
      <trkpt lat="42.9776" lon="3.03846">
        <ele>12</ele>
        <time>2023-12-30T14:37:09Z</time>
      </trkpt>
      <trkpt lat="42.97758" lon="3.03845">
        <ele>12</ele>
        <time>2023-12-30T14:37:10Z</time>
      </trkpt>
      <trkpt lat="42.97756" lon="3.03844">
        <ele>12</ele>
        <time>2023-12-30T14:37:11Z</time>
      </trkpt>
      <trkpt lat="42.97756" lon="3.03844">
        <ele>12</ele>
        <time>2023-12-30T14:37:12Z</time>
      </trkpt>
      <trkpt lat="42.97741" lon="3.03835">
        <ele>12.2</ele>
        <time>2023-12-30T14:37:17Z</time>
      </trkpt>
      <trkpt lat="42.97718" lon="3.03823">
        <ele>11.8</ele>
        <time>2023-12-30T14:37:27Z</time>
      </trkpt>
      <trkpt lat="42.97687" lon="3.03809">
        <ele>11.8</ele>
        <time>2023-12-30T14:37:37Z</time>
      </trkpt>
      <trkpt lat="42.97679" lon="3.03804">
        <ele>12</ele>
        <time>2023-12-30T14:37:40Z</time>
      </trkpt>
      <trkpt lat="42.97676" lon="3.03803">
        <ele>12</ele>
        <time>2023-12-30T14:37:41Z</time>
      </trkpt>
      <trkpt lat="42.97671" lon="3.038">
        <ele>12</ele>
        <time>2023-12-30T14:37:43Z</time>
      </trkpt>
      <trkpt lat="42.97668" lon="3.03798">
        <ele>12</ele>
        <time>2023-12-30T14:37:44Z</time>
      </trkpt>
      <trkpt lat="42.97658" lon="3.03793">
        <ele>12.2</ele>
        <time>2023-12-30T14:37:48Z</time>
      </trkpt>
      <trkpt lat="42.97653" lon="3.0379">
        <ele>12.2</ele>
        <time>2023-12-30T14:37:50Z</time>
      </trkpt>
      <trkpt lat="42.9765" lon="3.03789">
        <ele>12.2</ele>
        <time>2023-12-30T14:37:51Z</time>
      </trkpt>
      <trkpt lat="42.97648" lon="3.03788">
        <ele>12.2</ele>
        <time>2023-12-30T14:37:52Z</time>
      </trkpt>
      <trkpt lat="42.97645" lon="3.03786">
        <ele>12.2</ele>
        <time>2023-12-30T14:37:53Z</time>
      </trkpt>
      <trkpt lat="42.97632" lon="3.0378">
        <ele>12.2</ele>
        <time>2023-12-30T14:37:58Z</time>
      </trkpt>
      <trkpt lat="42.97614" lon="3.0377">
        <ele>12.2</ele>
        <time>2023-12-30T14:38:05Z</time>
      </trkpt>
      <trkpt lat="42.97595" lon="3.03763">
        <ele>12.2</ele>
        <time>2023-12-30T14:38:12Z</time>
      </trkpt>
      <trkpt lat="42.97584" lon="3.03759">
        <ele>12.4</ele>
        <time>2023-12-30T14:38:16Z</time>
      </trkpt>
      <trkpt lat="42.97565" lon="3.03747">
        <ele>12.2</ele>
        <time>2023-12-30T14:38:24Z</time>
      </trkpt>
      <trkpt lat="42.97551" lon="3.03739">
        <ele>12</ele>
        <time>2023-12-30T14:38:28Z</time>
      </trkpt>
      <trkpt lat="42.97548" lon="3.03738">
        <ele>12</ele>
        <time>2023-12-30T14:38:29Z</time>
      </trkpt>
      <trkpt lat="42.97545" lon="3.03736">
        <ele>12</ele>
        <time>2023-12-30T14:38:30Z</time>
      </trkpt>
      <trkpt lat="42.97542" lon="3.03735">
        <ele>12</ele>
        <time>2023-12-30T14:38:31Z</time>
      </trkpt>
      <trkpt lat="42.97537" lon="3.03732">
        <ele>12</ele>
        <time>2023-12-30T14:38:33Z</time>
      </trkpt>
      <trkpt lat="42.97514" lon="3.03721">
        <ele>12.2</ele>
        <time>2023-12-30T14:38:41Z</time>
      </trkpt>
      <trkpt lat="42.97478" lon="3.03702">
        <ele>12.2</ele>
        <time>2023-12-30T14:38:54Z</time>
      </trkpt>
      <trkpt lat="42.97469" lon="3.03697">
        <ele>12.2</ele>
        <time>2023-12-30T14:38:57Z</time>
      </trkpt>
      <trkpt lat="42.97464" lon="3.03695">
        <ele>12.2</ele>
        <time>2023-12-30T14:38:59Z</time>
      </trkpt>
      <trkpt lat="42.97462" lon="3.03694">
        <ele>12.2</ele>
        <time>2023-12-30T14:39:00Z</time>
      </trkpt>
      <trkpt lat="42.97459" lon="3.03692">
        <ele>12.2</ele>
        <time>2023-12-30T14:39:01Z</time>
      </trkpt>
      <trkpt lat="42.97444" lon="3.03684">
        <ele>12.2</ele>
        <time>2023-12-30T14:39:06Z</time>
      </trkpt>
      <trkpt lat="42.97444" lon="3.03684">
        <ele>12.2</ele>
        <time>2023-12-30T14:39:07Z</time>
      </trkpt>
      <trkpt lat="42.97425" lon="3.03675">
        <ele>12</ele>
        <time>2023-12-30T14:39:13Z</time>
      </trkpt>
      <trkpt lat="42.97422" lon="3.03674">
        <ele>12</ele>
        <time>2023-12-30T14:39:14Z</time>
      </trkpt>
      <trkpt lat="42.9742" lon="3.03673">
        <ele>12</ele>
        <time>2023-12-30T14:39:15Z</time>
      </trkpt>
      <trkpt lat="42.97417" lon="3.03671">
        <ele>12</ele>
        <time>2023-12-30T14:39:16Z</time>
      </trkpt>
      <trkpt lat="42.97409" lon="3.03668">
        <ele>12</ele>
        <time>2023-12-30T14:39:19Z</time>
      </trkpt>
      <trkpt lat="42.97398" lon="3.03662">
        <ele>12</ele>
        <time>2023-12-30T14:39:23Z</time>
      </trkpt>
      <trkpt lat="42.97392" lon="3.03659">
        <ele>12</ele>
        <time>2023-12-30T14:39:25Z</time>
      </trkpt>
      <trkpt lat="42.97367" lon="3.03645">
        <ele>12.2</ele>
        <time>2023-12-30T14:39:34Z</time>
      </trkpt>
      <trkpt lat="42.97354" lon="3.03638">
        <ele>12.4</ele>
        <time>2023-12-30T14:39:39Z</time>
      </trkpt>
      <trkpt lat="42.97351" lon="3.03636">
        <ele>12.4</ele>
        <time>2023-12-30T14:39:40Z</time>
      </trkpt>
      <trkpt lat="42.97349" lon="3.03635">
        <ele>12.2</ele>
        <time>2023-12-30T14:39:41Z</time>
      </trkpt>
      <trkpt lat="42.97347" lon="3.03634">
        <ele>12.2</ele>
        <time>2023-12-30T14:39:42Z</time>
      </trkpt>
      <trkpt lat="42.97343" lon="3.03632">
        <ele>12.2</ele>
        <time>2023-12-30T14:39:43Z</time>
      </trkpt>
      <trkpt lat="42.97343" lon="3.03632">
        <ele>12.2</ele>
        <time>2023-12-30T14:39:44Z</time>
      </trkpt>
      <trkpt lat="42.97307" lon="3.03615">
        <ele>12</ele>
        <time>2023-12-30T14:39:55Z</time>
      </trkpt>
      <trkpt lat="42.97278" lon="3.036">
        <ele>12</ele>
        <time>2023-12-30T14:40:05Z</time>
      </trkpt>
      <trkpt lat="42.9727" lon="3.03596">
        <ele>12</ele>
        <time>2023-12-30T14:40:08Z</time>
      </trkpt>
      <trkpt lat="42.97266" lon="3.03594">
        <ele>12</ele>
        <time>2023-12-30T14:40:09Z</time>
      </trkpt>
      <trkpt lat="42.97266" lon="3.03594">
        <ele>12</ele>
        <time>2023-12-30T14:40:10Z</time>
      </trkpt>
      <trkpt lat="42.97252" lon="3.03587">
        <ele>12</ele>
        <time>2023-12-30T14:40:14Z</time>
      </trkpt>
      <trkpt lat="42.97249" lon="3.03586">
        <ele>12</ele>
        <time>2023-12-30T14:40:15Z</time>
      </trkpt>
      <trkpt lat="42.97247" lon="3.03584">
        <ele>12</ele>
        <time>2023-12-30T14:40:16Z</time>
      </trkpt>
      <trkpt lat="42.97244" lon="3.03583">
        <ele>12</ele>
        <time>2023-12-30T14:40:17Z</time>
      </trkpt>
      <trkpt lat="42.97239" lon="3.0358">
        <ele>11.8</ele>
        <time>2023-12-30T14:40:19Z</time>
      </trkpt>
      <trkpt lat="42.97236" lon="3.03579">
        <ele>11.8</ele>
        <time>2023-12-30T14:40:20Z</time>
      </trkpt>
      <trkpt lat="42.97233" lon="3.03578">
        <ele>11.8</ele>
        <time>2023-12-30T14:40:21Z</time>
      </trkpt>
      <trkpt lat="42.97219" lon="3.0357">
        <ele>11.8</ele>
        <time>2023-12-30T14:40:26Z</time>
      </trkpt>
      <trkpt lat="42.97199" lon="3.03559">
        <ele>12</ele>
        <time>2023-12-30T14:40:33Z</time>
      </trkpt>
      <trkpt lat="42.97186" lon="3.03552">
        <ele>12</ele>
        <time>2023-12-30T14:40:38Z</time>
      </trkpt>
      <trkpt lat="42.97184" lon="3.03551">
        <ele>12</ele>
        <time>2023-12-30T14:40:39Z</time>
      </trkpt>
      <trkpt lat="42.97181" lon="3.0355">
        <ele>12</ele>
        <time>2023-12-30T14:40:40Z</time>
      </trkpt>
      <trkpt lat="42.97178" lon="3.03548">
        <ele>12</ele>
        <time>2023-12-30T14:40:41Z</time>
      </trkpt>
      <trkpt lat="42.97176" lon="3.03547">
        <ele>12</ele>
        <time>2023-12-30T14:40:42Z</time>
      </trkpt>
      <trkpt lat="42.97173" lon="3.03545">
        <ele>12</ele>
        <time>2023-12-30T14:40:43Z</time>
      </trkpt>
      <trkpt lat="42.97163" lon="3.03541">
        <ele>12</ele>
        <time>2023-12-30T14:40:47Z</time>
      </trkpt>
      <trkpt lat="42.9716" lon="3.03539">
        <ele>12</ele>
        <time>2023-12-30T14:40:48Z</time>
      </trkpt>
      <trkpt lat="42.97158" lon="3.03538">
        <ele>12</ele>
        <time>2023-12-30T14:40:49Z</time>
      </trkpt>
      <trkpt lat="42.97156" lon="3.03537">
        <ele>12</ele>
        <time>2023-12-30T14:40:50Z</time>
      </trkpt>
      <trkpt lat="42.97155" lon="3.03536">
        <ele>12</ele>
        <time>2023-12-30T14:40:51Z</time>
      </trkpt>
      <trkpt lat="42.97155" lon="3.03536">
        <ele>12</ele>
        <time>2023-12-30T14:40:52Z</time>
      </trkpt>
      <trkpt lat="42.97154" lon="3.03536">
        <ele>12</ele>
        <time>2023-12-30T14:40:53Z</time>
      </trkpt>
      <trkpt lat="42.97154" lon="3.03536">
        <ele>12</ele>
        <time>2023-12-30T14:40:54Z</time>
      </trkpt>
      <trkpt lat="42.97154" lon="3.03536">
        <ele>12</ele>
        <time>2023-12-30T14:40:55Z</time>
      </trkpt>
      <trkpt lat="42.9716" lon="3.0354">
        <ele>12</ele>
        <time>2023-12-30T14:43:09Z</time>
      </trkpt>
      <trkpt lat="42.97174" lon="3.03547">
        <ele>11.8</ele>
        <time>2023-12-30T14:43:15Z</time>
      </trkpt>
      <trkpt lat="42.97185" lon="3.03552">
        <ele>11.8</ele>
        <time>2023-12-30T14:43:19Z</time>
      </trkpt>
      <trkpt lat="42.97196" lon="3.03558">
        <ele>12</ele>
        <time>2023-12-30T14:43:23Z</time>
      </trkpt>
      <trkpt lat="42.97222" lon="3.03572">
        <ele>11.8</ele>
        <time>2023-12-30T14:43:32Z</time>
      </trkpt>
      <trkpt lat="42.97253" lon="3.03588">
        <ele>11.8</ele>
        <time>2023-12-30T14:43:42Z</time>
      </trkpt>
      <trkpt lat="42.97266" lon="3.03594">
        <ele>11.8</ele>
        <time>2023-12-30T14:43:47Z</time>
      </trkpt>
      <trkpt lat="42.97269" lon="3.03595">
        <ele>11.8</ele>
        <time>2023-12-30T14:43:48Z</time>
      </trkpt>
      <trkpt lat="42.97271" lon="3.03597">
        <ele>11.8</ele>
        <time>2023-12-30T14:43:49Z</time>
      </trkpt>
      <trkpt lat="42.97274" lon="3.03598">
        <ele>11.8</ele>
        <time>2023-12-30T14:43:50Z</time>
      </trkpt>
      <trkpt lat="42.97276" lon="3.03599">
        <ele>11.8</ele>
        <time>2023-12-30T14:43:51Z</time>
      </trkpt>
      <trkpt lat="42.97279" lon="3.03601">
        <ele>11.8</ele>
        <time>2023-12-30T14:43:52Z</time>
      </trkpt>
      <trkpt lat="42.97281" lon="3.03602">
        <ele>11.8</ele>
        <time>2023-12-30T14:43:53Z</time>
      </trkpt>
      <trkpt lat="42.97284" lon="3.03603">
        <ele>11.6</ele>
        <time>2023-12-30T14:43:54Z</time>
      </trkpt>
      <trkpt lat="42.97286" lon="3.03604">
        <ele>11.6</ele>
        <time>2023-12-30T14:43:55Z</time>
      </trkpt>
      <trkpt lat="42.97289" lon="3.03605">
        <ele>11.6</ele>
        <time>2023-12-30T14:43:56Z</time>
      </trkpt>
      <trkpt lat="42.97291" lon="3.03607">
        <ele>11.6</ele>
        <time>2023-12-30T14:43:57Z</time>
      </trkpt>
      <trkpt lat="42.97292" lon="3.03608">
        <ele>11.6</ele>
        <time>2023-12-30T14:43:58Z</time>
      </trkpt>
      <trkpt lat="42.97294" lon="3.03609">
        <ele>11.6</ele>
        <time>2023-12-30T14:43:59Z</time>
      </trkpt>
      <trkpt lat="42.97296" lon="3.0361">
        <ele>11.6</ele>
        <time>2023-12-30T14:44:00Z</time>
      </trkpt>
      <trkpt lat="42.97298" lon="3.03611">
        <ele>11.6</ele>
        <time>2023-12-30T14:44:01Z</time>
      </trkpt>
      <trkpt lat="42.973" lon="3.03612">
        <ele>11.6</ele>
        <time>2023-12-30T14:44:02Z</time>
      </trkpt>
      <trkpt lat="42.97302" lon="3.03613">
        <ele>11.6</ele>
        <time>2023-12-30T14:44:03Z</time>
      </trkpt>
      <trkpt lat="42.97304" lon="3.03614">
        <ele>11.6</ele>
        <time>2023-12-30T14:44:04Z</time>
      </trkpt>
      <trkpt lat="42.97306" lon="3.03615">
        <ele>11.6</ele>
        <time>2023-12-30T14:44:05Z</time>
      </trkpt>
      <trkpt lat="42.97308" lon="3.03616">
        <ele>11.6</ele>
        <time>2023-12-30T14:44:06Z</time>
      </trkpt>
      <trkpt lat="42.9731" lon="3.03617">
        <ele>11.6</ele>
        <time>2023-12-30T14:44:07Z</time>
      </trkpt>
      <trkpt lat="42.97311" lon="3.03618">
        <ele>11.6</ele>
        <time>2023-12-30T14:44:08Z</time>
      </trkpt>
      <trkpt lat="42.97313" lon="3.03618">
        <ele>11.6</ele>
        <time>2023-12-30T14:44:09Z</time>
      </trkpt>
      <trkpt lat="42.97314" lon="3.03619">
        <ele>11.6</ele>
        <time>2023-12-30T14:44:10Z</time>
      </trkpt>
      <trkpt lat="42.97315" lon="3.03619">
        <ele>11.6</ele>
        <time>2023-12-30T14:44:11Z</time>
      </trkpt>
      <trkpt lat="42.97316" lon="3.03619">
        <ele>11.6</ele>
        <time>2023-12-30T14:44:12Z</time>
      </trkpt>
      <trkpt lat="42.97316" lon="3.03619">
        <ele>11.6</ele>
        <time>2023-12-30T14:44:13Z</time>
      </trkpt>
      <trkpt lat="42.97316" lon="3.03619">
        <ele>11.6</ele>
        <time>2023-12-30T14:44:14Z</time>
      </trkpt>
      <trkpt lat="42.97316" lon="3.03619">
        <ele>11.6</ele>
        <time>2023-12-30T14:44:15Z</time>
      </trkpt>
      <trkpt lat="42.97319" lon="3.0362">
        <ele>12</ele>
        <time>2023-12-30T14:46:20Z</time>
      </trkpt>
      <trkpt lat="42.97323" lon="3.03622">
        <ele>12</ele>
        <time>2023-12-30T14:46:22Z</time>
      </trkpt>
      <trkpt lat="42.97336" lon="3.03628">
        <ele>11.8</ele>
        <time>2023-12-30T14:46:27Z</time>
      </trkpt>
      <trkpt lat="42.97344" lon="3.03633">
        <ele>11.8</ele>
        <time>2023-12-30T14:46:30Z</time>
      </trkpt>
      <trkpt lat="42.97362" lon="3.03641">
        <ele>11.8</ele>
        <time>2023-12-30T14:46:38Z</time>
      </trkpt>
      <trkpt lat="42.97372" lon="3.03646">
        <ele>11.8</ele>
        <time>2023-12-30T14:46:42Z</time>
      </trkpt>
      <trkpt lat="42.97374" lon="3.03647">
        <ele>12</ele>
        <time>2023-12-30T14:46:43Z</time>
      </trkpt>
      <trkpt lat="42.97386" lon="3.03654">
        <ele>11.8</ele>
        <time>2023-12-30T14:46:48Z</time>
      </trkpt>
      <trkpt lat="42.97395" lon="3.03659">
        <ele>11.8</ele>
        <time>2023-12-30T14:46:52Z</time>
      </trkpt>
      <trkpt lat="42.97397" lon="3.0366">
        <ele>12</ele>
        <time>2023-12-30T14:46:53Z</time>
      </trkpt>
      <trkpt lat="42.97401" lon="3.03663">
        <ele>11.8</ele>
        <time>2023-12-30T14:46:55Z</time>
      </trkpt>
      <trkpt lat="42.97403" lon="3.03664">
        <ele>12</ele>
        <time>2023-12-30T14:46:56Z</time>
      </trkpt>
      <trkpt lat="42.97405" lon="3.03665">
        <ele>12</ele>
        <time>2023-12-30T14:46:57Z</time>
      </trkpt>
      <trkpt lat="42.97407" lon="3.03666">
        <ele>12</ele>
        <time>2023-12-30T14:46:58Z</time>
      </trkpt>
      <trkpt lat="42.97409" lon="3.03666">
        <ele>12</ele>
        <time>2023-12-30T14:46:59Z</time>
      </trkpt>
      <trkpt lat="42.97422" lon="3.03673">
        <ele>11.8</ele>
        <time>2023-12-30T14:47:05Z</time>
      </trkpt>
      <trkpt lat="42.97423" lon="3.03673">
        <ele>11.8</ele>
        <time>2023-12-30T14:47:06Z</time>
      </trkpt>
      <trkpt lat="42.97424" lon="3.03673">
        <ele>11.8</ele>
        <time>2023-12-30T14:47:07Z</time>
      </trkpt>
      <trkpt lat="42.97425" lon="3.03673">
        <ele>11.8</ele>
        <time>2023-12-30T14:47:08Z</time>
      </trkpt>
      <trkpt lat="42.97425" lon="3.03673">
        <ele>11.8</ele>
        <time>2023-12-30T14:47:09Z</time>
      </trkpt>
      <trkpt lat="42.97425" lon="3.03676">
        <ele>10.4</ele>
        <time>2023-12-30T14:57:02Z</time>
      </trkpt>
      <trkpt lat="42.97426" lon="3.03676">
        <ele>10.6</ele>
        <time>2023-12-30T14:57:04Z</time>
      </trkpt>
      <trkpt lat="42.97427" lon="3.03676">
        <ele>10.8</ele>
        <time>2023-12-30T14:57:05Z</time>
      </trkpt>
      <trkpt lat="42.97428" lon="3.03677">
        <ele>11</ele>
        <time>2023-12-30T14:57:06Z</time>
      </trkpt>
      <trkpt lat="42.97431" lon="3.03679">
        <ele>11.4</ele>
        <time>2023-12-30T14:57:11Z</time>
      </trkpt>
      <trkpt lat="42.97431" lon="3.03679">
        <ele>11.4</ele>
        <time>2023-12-30T14:57:12Z</time>
      </trkpt>
      <trkpt lat="42.97431" lon="3.03678">
        <ele>11.4</ele>
        <time>2023-12-30T14:57:13Z</time>
      </trkpt>
      <trkpt lat="42.97435" lon="3.0368">
        <ele>11.2</ele>
        <time>2023-12-30T14:57:53Z</time>
      </trkpt>
      <trkpt lat="42.97438" lon="3.03681">
        <ele>11.4</ele>
        <time>2023-12-30T14:57:55Z</time>
      </trkpt>
      <trkpt lat="42.97441" lon="3.03683">
        <ele>11.4</ele>
        <time>2023-12-30T14:57:57Z</time>
      </trkpt>
      <trkpt lat="42.97442" lon="3.03684">
        <ele>11.6</ele>
        <time>2023-12-30T14:57:58Z</time>
      </trkpt>
      <trkpt lat="42.97442" lon="3.03685">
        <ele>11.6</ele>
        <time>2023-12-30T14:57:59Z</time>
      </trkpt>
      <trkpt lat="42.97442" lon="3.03685">
        <ele>11.6</ele>
        <time>2023-12-30T14:58:00Z</time>
      </trkpt>
      <trkpt lat="42.97442" lon="3.03685">
        <ele>11.6</ele>
        <time>2023-12-30T14:58:01Z</time>
      </trkpt>
      <trkpt lat="42.97448" lon="3.03687">
        <ele>11.6</ele>
        <time>2023-12-30T14:58:30Z</time>
      </trkpt>
      <trkpt lat="42.97452" lon="3.0369">
        <ele>11.6</ele>
        <time>2023-12-30T14:58:32Z</time>
      </trkpt>
      <trkpt lat="42.97462" lon="3.03696">
        <ele>11.6</ele>
        <time>2023-12-30T14:58:36Z</time>
      </trkpt>
      <trkpt lat="42.97469" lon="3.037">
        <ele>12</ele>
        <time>2023-12-30T14:58:39Z</time>
      </trkpt>
      <trkpt lat="42.97496" lon="3.03714">
        <ele>12.2</ele>
        <time>2023-12-30T14:58:49Z</time>
      </trkpt>
      <trkpt lat="42.97498" lon="3.03715">
        <ele>12.2</ele>
        <time>2023-12-30T14:58:50Z</time>
      </trkpt>
      <trkpt lat="42.97521" lon="3.03726">
        <ele>12.4</ele>
        <time>2023-12-30T14:58:59Z</time>
      </trkpt>
      <trkpt lat="42.97533" lon="3.03734">
        <ele>12.4</ele>
        <time>2023-12-30T14:59:04Z</time>
      </trkpt>
      <trkpt lat="42.97536" lon="3.03735">
        <ele>12.6</ele>
        <time>2023-12-30T14:59:05Z</time>
      </trkpt>
      <trkpt lat="42.97547" lon="3.0374">
        <ele>12.6</ele>
        <time>2023-12-30T14:59:09Z</time>
      </trkpt>
      <trkpt lat="42.9757" lon="3.03752">
        <ele>12.4</ele>
        <time>2023-12-30T14:59:18Z</time>
      </trkpt>
      <trkpt lat="42.97573" lon="3.03754">
        <ele>12.2</ele>
        <time>2023-12-30T14:59:19Z</time>
      </trkpt>
      <trkpt lat="42.97591" lon="3.03765">
        <ele>12.4</ele>
        <time>2023-12-30T14:59:26Z</time>
      </trkpt>
      <trkpt lat="42.97596" lon="3.03766">
        <ele>12.4</ele>
        <time>2023-12-30T14:59:28Z</time>
      </trkpt>
      <trkpt lat="42.97598" lon="3.03767">
        <ele>12.4</ele>
        <time>2023-12-30T14:59:29Z</time>
      </trkpt>
      <trkpt lat="42.97601" lon="3.03768">
        <ele>12.4</ele>
        <time>2023-12-30T14:59:30Z</time>
      </trkpt>
      <trkpt lat="42.97603" lon="3.03768">
        <ele>12.4</ele>
        <time>2023-12-30T14:59:31Z</time>
      </trkpt>
      <trkpt lat="42.97605" lon="3.03768">
        <ele>12.4</ele>
        <time>2023-12-30T14:59:32Z</time>
      </trkpt>
      <trkpt lat="42.97608" lon="3.03769">
        <ele>12.4</ele>
        <time>2023-12-30T14:59:33Z</time>
      </trkpt>
      <trkpt lat="42.9761" lon="3.0377">
        <ele>12.4</ele>
        <time>2023-12-30T14:59:34Z</time>
      </trkpt>
      <trkpt lat="42.97613" lon="3.03771">
        <ele>12.4</ele>
        <time>2023-12-30T14:59:35Z</time>
      </trkpt>
      <trkpt lat="42.97626" lon="3.03778">
        <ele>12.6</ele>
        <time>2023-12-30T14:59:40Z</time>
      </trkpt>
      <trkpt lat="42.97642" lon="3.03787">
        <ele>12.4</ele>
        <time>2023-12-30T14:59:47Z</time>
      </trkpt>
      <trkpt lat="42.97645" lon="3.03788">
        <ele>12.4</ele>
        <time>2023-12-30T14:59:48Z</time>
      </trkpt>
      <trkpt lat="42.97646" lon="3.03789">
        <ele>12.4</ele>
        <time>2023-12-30T14:59:49Z</time>
      </trkpt>
      <trkpt lat="42.97649" lon="3.0379">
        <ele>12.4</ele>
        <time>2023-12-30T14:59:50Z</time>
      </trkpt>
      <trkpt lat="42.97651" lon="3.03791">
        <ele>12.4</ele>
        <time>2023-12-30T14:59:51Z</time>
      </trkpt>
      <trkpt lat="42.97654" lon="3.03793">
        <ele>12.4</ele>
        <time>2023-12-30T14:59:52Z</time>
      </trkpt>
      <trkpt lat="42.97655" lon="3.03794">
        <ele>12.4</ele>
        <time>2023-12-30T14:59:53Z</time>
      </trkpt>
      <trkpt lat="42.97658" lon="3.03795">
        <ele>12.4</ele>
        <time>2023-12-30T14:59:54Z</time>
      </trkpt>
      <trkpt lat="42.9766" lon="3.03796">
        <ele>12.4</ele>
        <time>2023-12-30T14:59:55Z</time>
      </trkpt>
      <trkpt lat="42.97662" lon="3.03797">
        <ele>12.4</ele>
        <time>2023-12-30T14:59:56Z</time>
      </trkpt>
      <trkpt lat="42.97676" lon="3.03804">
        <ele>12.4</ele>
        <time>2023-12-30T15:00:02Z</time>
      </trkpt>
      <trkpt lat="42.97678" lon="3.03805">
        <ele>12.4</ele>
        <time>2023-12-30T15:00:03Z</time>
      </trkpt>
      <trkpt lat="42.97685" lon="3.03809">
        <ele>12.4</ele>
        <time>2023-12-30T15:00:06Z</time>
      </trkpt>
      <trkpt lat="42.97696" lon="3.03814">
        <ele>12.4</ele>
        <time>2023-12-30T15:00:11Z</time>
      </trkpt>
      <trkpt lat="42.97698" lon="3.03815">
        <ele>12.4</ele>
        <time>2023-12-30T15:00:12Z</time>
      </trkpt>
      <trkpt lat="42.977" lon="3.03815">
        <ele>12.6</ele>
        <time>2023-12-30T15:00:13Z</time>
      </trkpt>
      <trkpt lat="42.97702" lon="3.03816">
        <ele>12.6</ele>
        <time>2023-12-30T15:00:14Z</time>
      </trkpt>
      <trkpt lat="42.97706" lon="3.03818">
        <ele>12.6</ele>
        <time>2023-12-30T15:00:16Z</time>
      </trkpt>
      <trkpt lat="42.97707" lon="3.03819">
        <ele>12.6</ele>
        <time>2023-12-30T15:00:17Z</time>
      </trkpt>
      <trkpt lat="42.9771" lon="3.0382">
        <ele>12.6</ele>
        <time>2023-12-30T15:00:18Z</time>
      </trkpt>
      <trkpt lat="42.97712" lon="3.03821">
        <ele>12.6</ele>
        <time>2023-12-30T15:00:19Z</time>
      </trkpt>
      <trkpt lat="42.97714" lon="3.03821">
        <ele>12.6</ele>
        <time>2023-12-30T15:00:20Z</time>
      </trkpt>
      <trkpt lat="42.97716" lon="3.03822">
        <ele>12.6</ele>
        <time>2023-12-30T15:00:21Z</time>
      </trkpt>
      <trkpt lat="42.97717" lon="3.03823">
        <ele>12.8</ele>
        <time>2023-12-30T15:00:22Z</time>
      </trkpt>
      <trkpt lat="42.97731" lon="3.0383">
        <ele>12.8</ele>
        <time>2023-12-30T15:00:28Z</time>
      </trkpt>
      <trkpt lat="42.97753" lon="3.03841">
        <ele>13</ele>
        <time>2023-12-30T15:00:38Z</time>
      </trkpt>
      <trkpt lat="42.97764" lon="3.03847">
        <ele>13</ele>
        <time>2023-12-30T15:00:43Z</time>
      </trkpt>
      <trkpt lat="42.9777" lon="3.0385">
        <ele>13</ele>
        <time>2023-12-30T15:00:46Z</time>
      </trkpt>
      <trkpt lat="42.97795" lon="3.03865">
        <ele>13</ele>
        <time>2023-12-30T15:00:56Z</time>
      </trkpt>
      <trkpt lat="42.97802" lon="3.03872">
        <ele>13</ele>
        <time>2023-12-30T15:01:00Z</time>
      </trkpt>
      <trkpt lat="42.97804" lon="3.03874">
        <ele>13</ele>
        <time>2023-12-30T15:01:01Z</time>
      </trkpt>
      <trkpt lat="42.97806" lon="3.03875">
        <ele>13</ele>
        <time>2023-12-30T15:01:02Z</time>
      </trkpt>
      <trkpt lat="42.97808" lon="3.03877">
        <ele>13</ele>
        <time>2023-12-30T15:01:03Z</time>
      </trkpt>
      <trkpt lat="42.9781" lon="3.03878">
        <ele>13</ele>
        <time>2023-12-30T15:01:04Z</time>
      </trkpt>
      <trkpt lat="42.97812" lon="3.03879">
        <ele>13</ele>
        <time>2023-12-30T15:01:05Z</time>
      </trkpt>
      <trkpt lat="42.97815" lon="3.0388">
        <ele>13</ele>
        <time>2023-12-30T15:01:06Z</time>
      </trkpt>
      <trkpt lat="42.97817" lon="3.03881">
        <ele>13</ele>
        <time>2023-12-30T15:01:07Z</time>
      </trkpt>
      <trkpt lat="42.97819" lon="3.03882">
        <ele>13.2</ele>
        <time>2023-12-30T15:01:08Z</time>
      </trkpt>
      <trkpt lat="42.97831" lon="3.03886">
        <ele>13.2</ele>
        <time>2023-12-30T15:01:12Z</time>
      </trkpt>
      <trkpt lat="42.9785" lon="3.03894">
        <ele>13</ele>
        <time>2023-12-30T15:01:18Z</time>
      </trkpt>
      <trkpt lat="42.97871" lon="3.03905">
        <ele>12.6</ele>
        <time>2023-12-30T15:01:25Z</time>
      </trkpt>
      <trkpt lat="42.97877" lon="3.03908">
        <ele>12.6</ele>
        <time>2023-12-30T15:01:27Z</time>
      </trkpt>
      <trkpt lat="42.97879" lon="3.03909">
        <ele>12.6</ele>
        <time>2023-12-30T15:01:28Z</time>
      </trkpt>
      <trkpt lat="42.97881" lon="3.0391">
        <ele>12.6</ele>
        <time>2023-12-30T15:01:29Z</time>
      </trkpt>
      <trkpt lat="42.97884" lon="3.03912">
        <ele>12.6</ele>
        <time>2023-12-30T15:01:30Z</time>
      </trkpt>
      <trkpt lat="42.97886" lon="3.03914">
        <ele>12.6</ele>
        <time>2023-12-30T15:01:31Z</time>
      </trkpt>
      <trkpt lat="42.97889" lon="3.03915">
        <ele>12.6</ele>
        <time>2023-12-30T15:01:32Z</time>
      </trkpt>
      <trkpt lat="42.97891" lon="3.03916">
        <ele>12.6</ele>
        <time>2023-12-30T15:01:33Z</time>
      </trkpt>
      <trkpt lat="42.97893" lon="3.03917">
        <ele>12.6</ele>
        <time>2023-12-30T15:01:34Z</time>
      </trkpt>
      <trkpt lat="42.97896" lon="3.03918">
        <ele>12.6</ele>
        <time>2023-12-30T15:01:35Z</time>
      </trkpt>
      <trkpt lat="42.97899" lon="3.0392">
        <ele>12.8</ele>
        <time>2023-12-30T15:01:36Z</time>
      </trkpt>
      <trkpt lat="42.97902" lon="3.03921">
        <ele>12.8</ele>
        <time>2023-12-30T15:01:37Z</time>
      </trkpt>
      <trkpt lat="42.97903" lon="3.03922">
        <ele>12.8</ele>
        <time>2023-12-30T15:01:38Z</time>
      </trkpt>
      <trkpt lat="42.97906" lon="3.03923">
        <ele>12.8</ele>
        <time>2023-12-30T15:01:39Z</time>
      </trkpt>
      <trkpt lat="42.97909" lon="3.03925">
        <ele>12.6</ele>
        <time>2023-12-30T15:01:40Z</time>
      </trkpt>
      <trkpt lat="42.97911" lon="3.03926">
        <ele>12.6</ele>
        <time>2023-12-30T15:01:41Z</time>
      </trkpt>
      <trkpt lat="42.97924" lon="3.03932">
        <ele>12.6</ele>
        <time>2023-12-30T15:01:46Z</time>
      </trkpt>
      <trkpt lat="42.97926" lon="3.03933">
        <ele>12.6</ele>
        <time>2023-12-30T15:01:47Z</time>
      </trkpt>
      <trkpt lat="42.97928" lon="3.03935">
        <ele>12.8</ele>
        <time>2023-12-30T15:01:48Z</time>
      </trkpt>
      <trkpt lat="42.97952" lon="3.03946">
        <ele>12.8</ele>
        <time>2023-12-30T15:01:57Z</time>
      </trkpt>
      <trkpt lat="42.97957" lon="3.03949">
        <ele>12.8</ele>
        <time>2023-12-30T15:01:59Z</time>
      </trkpt>
      <trkpt lat="42.97959" lon="3.0395">
        <ele>12.6</ele>
        <time>2023-12-30T15:02:00Z</time>
      </trkpt>
      <trkpt lat="42.97967" lon="3.03954">
        <ele>12.6</ele>
        <time>2023-12-30T15:02:03Z</time>
      </trkpt>
      <trkpt lat="42.97969" lon="3.03955">
        <ele>12.6</ele>
        <time>2023-12-30T15:02:04Z</time>
      </trkpt>
      <trkpt lat="42.97972" lon="3.03956">
        <ele>12.6</ele>
        <time>2023-12-30T15:02:05Z</time>
      </trkpt>
      <trkpt lat="42.97974" lon="3.03957">
        <ele>12.6</ele>
        <time>2023-12-30T15:02:06Z</time>
      </trkpt>
      <trkpt lat="42.97987" lon="3.03964">
        <ele>12.6</ele>
        <time>2023-12-30T15:02:11Z</time>
      </trkpt>
      <trkpt lat="42.97989" lon="3.03965">
        <ele>12.6</ele>
        <time>2023-12-30T15:02:12Z</time>
      </trkpt>
      <trkpt lat="42.97992" lon="3.03966">
        <ele>12.6</ele>
        <time>2023-12-30T15:02:13Z</time>
      </trkpt>
      <trkpt lat="42.97994" lon="3.03968">
        <ele>12.6</ele>
        <time>2023-12-30T15:02:14Z</time>
      </trkpt>
      <trkpt lat="42.98007" lon="3.03974">
        <ele>12.8</ele>
        <time>2023-12-30T15:02:19Z</time>
      </trkpt>
      <trkpt lat="42.98012" lon="3.03977">
        <ele>12.8</ele>
        <time>2023-12-30T15:02:21Z</time>
      </trkpt>
      <trkpt lat="42.98034" lon="3.03989">
        <ele>12.8</ele>
        <time>2023-12-30T15:02:30Z</time>
      </trkpt>
      <trkpt lat="42.98049" lon="3.03998">
        <ele>12.8</ele>
        <time>2023-12-30T15:02:37Z</time>
      </trkpt>
      <trkpt lat="42.98052" lon="3.03999">
        <ele>12.8</ele>
        <time>2023-12-30T15:02:38Z</time>
      </trkpt>
      <trkpt lat="42.98069" lon="3.04007">
        <ele>12.6</ele>
        <time>2023-12-30T15:02:45Z</time>
      </trkpt>
      <trkpt lat="42.98076" lon="3.0401">
        <ele>12.6</ele>
        <time>2023-12-30T15:02:47Z</time>
      </trkpt>
      <trkpt lat="42.981" lon="3.04023">
        <ele>12.6</ele>
        <time>2023-12-30T15:02:56Z</time>
      </trkpt>
      <trkpt lat="42.98118" lon="3.04034">
        <ele>12.8</ele>
        <time>2023-12-30T15:03:03Z</time>
      </trkpt>
      <trkpt lat="42.98139" lon="3.04052">
        <ele>12.8</ele>
        <time>2023-12-30T15:03:11Z</time>
      </trkpt>
      <trkpt lat="42.98155" lon="3.04064">
        <ele>12.8</ele>
        <time>2023-12-30T15:03:17Z</time>
      </trkpt>
      <trkpt lat="42.98157" lon="3.04066">
        <ele>12.8</ele>
        <time>2023-12-30T15:03:18Z</time>
      </trkpt>
      <trkpt lat="42.98165" lon="3.04072">
        <ele>12.8</ele>
        <time>2023-12-30T15:03:21Z</time>
      </trkpt>
      <trkpt lat="42.98168" lon="3.04074">
        <ele>12.8</ele>
        <time>2023-12-30T15:03:22Z</time>
      </trkpt>
      <trkpt lat="42.98196" lon="3.041">
        <ele>13</ele>
        <time>2023-12-30T15:03:33Z</time>
      </trkpt>
      <trkpt lat="42.98204" lon="3.04113">
        <ele>13.2</ele>
        <time>2023-12-30T15:03:38Z</time>
      </trkpt>
      <trkpt lat="42.98206" lon="3.04116">
        <ele>13.2</ele>
        <time>2023-12-30T15:03:39Z</time>
      </trkpt>
      <trkpt lat="42.98208" lon="3.04118">
        <ele>13.2</ele>
        <time>2023-12-30T15:03:40Z</time>
      </trkpt>
      <trkpt lat="42.9821" lon="3.0412">
        <ele>13.2</ele>
        <time>2023-12-30T15:03:41Z</time>
      </trkpt>
      <trkpt lat="42.98212" lon="3.04121">
        <ele>13.2</ele>
        <time>2023-12-30T15:03:42Z</time>
      </trkpt>
      <trkpt lat="42.98214" lon="3.04123">
        <ele>13.2</ele>
        <time>2023-12-30T15:03:43Z</time>
      </trkpt>
      <trkpt lat="42.98217" lon="3.04125">
        <ele>13.2</ele>
        <time>2023-12-30T15:03:44Z</time>
      </trkpt>
      <trkpt lat="42.98222" lon="3.04129">
        <ele>13.2</ele>
        <time>2023-12-30T15:03:46Z</time>
      </trkpt>
      <trkpt lat="42.98229" lon="3.04135">
        <ele>13.2</ele>
        <time>2023-12-30T15:03:49Z</time>
      </trkpt>
      <trkpt lat="42.98246" lon="3.04153">
        <ele>13.4</ele>
        <time>2023-12-30T15:03:55Z</time>
      </trkpt>
      <trkpt lat="42.98266" lon="3.04177">
        <ele>13.4</ele>
        <time>2023-12-30T15:04:02Z</time>
      </trkpt>
      <trkpt lat="42.98272" lon="3.04187">
        <ele>13.6</ele>
        <time>2023-12-30T15:04:05Z</time>
      </trkpt>
      <trkpt lat="42.98275" lon="3.0419">
        <ele>13.6</ele>
        <time>2023-12-30T15:04:06Z</time>
      </trkpt>
      <trkpt lat="42.9828" lon="3.04198">
        <ele>13.6</ele>
        <time>2023-12-30T15:04:09Z</time>
      </trkpt>
      <trkpt lat="42.9828" lon="3.04198">
        <ele>13.6</ele>
        <time>2023-12-30T15:04:10Z</time>
      </trkpt>
      <trkpt lat="42.9828" lon="3.04198">
        <ele>13.6</ele>
        <time>2023-12-30T15:04:11Z</time>
      </trkpt>
      <trkpt lat="42.98286" lon="3.04203">
        <ele>13</ele>
        <time>2023-12-30T15:04:32Z</time>
      </trkpt>
      <trkpt lat="42.98289" lon="3.04206">
        <ele>13</ele>
        <time>2023-12-30T15:04:33Z</time>
      </trkpt>
      <trkpt lat="42.98291" lon="3.04209">
        <ele>13</ele>
        <time>2023-12-30T15:04:34Z</time>
      </trkpt>
      <trkpt lat="42.98309" lon="3.04229">
        <ele>13.2</ele>
        <time>2023-12-30T15:04:40Z</time>
      </trkpt>
      <trkpt lat="42.98328" lon="3.04248">
        <ele>13.4</ele>
        <time>2023-12-30T15:04:47Z</time>
      </trkpt>
      <trkpt lat="42.9833" lon="3.0425">
        <ele>13.4</ele>
        <time>2023-12-30T15:04:48Z</time>
      </trkpt>
      <trkpt lat="42.98333" lon="3.04252">
        <ele>13.4</ele>
        <time>2023-12-30T15:04:49Z</time>
      </trkpt>
      <trkpt lat="42.98336" lon="3.04254">
        <ele>13.4</ele>
        <time>2023-12-30T15:04:50Z</time>
      </trkpt>
      <trkpt lat="42.98338" lon="3.04256">
        <ele>13.4</ele>
        <time>2023-12-30T15:04:51Z</time>
      </trkpt>
      <trkpt lat="42.98341" lon="3.04258">
        <ele>13.4</ele>
        <time>2023-12-30T15:04:52Z</time>
      </trkpt>
      <trkpt lat="42.98343" lon="3.0426">
        <ele>13.4</ele>
        <time>2023-12-30T15:04:53Z</time>
      </trkpt>
      <trkpt lat="42.98349" lon="3.04265">
        <ele>13.4</ele>
        <time>2023-12-30T15:04:55Z</time>
      </trkpt>
      <trkpt lat="42.98351" lon="3.04268">
        <ele>13.4</ele>
        <time>2023-12-30T15:04:56Z</time>
      </trkpt>
      <trkpt lat="42.98353" lon="3.04271">
        <ele>13.4</ele>
        <time>2023-12-30T15:04:57Z</time>
      </trkpt>
      <trkpt lat="42.98363" lon="3.04281">
        <ele>13.4</ele>
        <time>2023-12-30T15:05:01Z</time>
      </trkpt>
      <trkpt lat="42.98392" lon="3.04298">
        <ele>13.2</ele>
        <time>2023-12-30T15:05:10Z</time>
      </trkpt>
      <trkpt lat="42.98413" lon="3.04308">
        <ele>13</ele>
        <time>2023-12-30T15:05:17Z</time>
      </trkpt>
      <trkpt lat="42.98416" lon="3.04309">
        <ele>13</ele>
        <time>2023-12-30T15:05:18Z</time>
      </trkpt>
      <trkpt lat="42.98419" lon="3.04311">
        <ele>13</ele>
        <time>2023-12-30T15:05:19Z</time>
      </trkpt>
      <trkpt lat="42.98422" lon="3.04313">
        <ele>13</ele>
        <time>2023-12-30T15:05:20Z</time>
      </trkpt>
      <trkpt lat="42.98424" lon="3.04314">
        <ele>13</ele>
        <time>2023-12-30T15:05:21Z</time>
      </trkpt>
      <trkpt lat="42.98427" lon="3.04315">
        <ele>13</ele>
        <time>2023-12-30T15:05:22Z</time>
      </trkpt>
      <trkpt lat="42.9843" lon="3.04317">
        <ele>13</ele>
        <time>2023-12-30T15:05:23Z</time>
      </trkpt>
      <trkpt lat="42.98432" lon="3.04318">
        <ele>13</ele>
        <time>2023-12-30T15:05:24Z</time>
      </trkpt>
      <trkpt lat="42.98434" lon="3.04319">
        <ele>13</ele>
        <time>2023-12-30T15:05:25Z</time>
      </trkpt>
      <trkpt lat="42.98436" lon="3.0432">
        <ele>13</ele>
        <time>2023-12-30T15:05:26Z</time>
      </trkpt>
      <trkpt lat="42.98438" lon="3.04322">
        <ele>13</ele>
        <time>2023-12-30T15:05:27Z</time>
      </trkpt>
      <trkpt lat="42.9844" lon="3.04323">
        <ele>13</ele>
        <time>2023-12-30T15:05:28Z</time>
      </trkpt>
      <trkpt lat="42.98443" lon="3.04325">
        <ele>13</ele>
        <time>2023-12-30T15:05:29Z</time>
      </trkpt>
      <trkpt lat="42.98446" lon="3.04326">
        <ele>13</ele>
        <time>2023-12-30T15:05:30Z</time>
      </trkpt>
      <trkpt lat="42.98448" lon="3.04327">
        <ele>13</ele>
        <time>2023-12-30T15:05:31Z</time>
      </trkpt>
      <trkpt lat="42.98452" lon="3.04329">
        <ele>12.8</ele>
        <time>2023-12-30T15:05:32Z</time>
      </trkpt>
      <trkpt lat="42.9846" lon="3.04334">
        <ele>12.8</ele>
        <time>2023-12-30T15:05:35Z</time>
      </trkpt>
      <trkpt lat="42.98467" lon="3.04339">
        <ele>13</ele>
        <time>2023-12-30T15:05:38Z</time>
      </trkpt>
      <trkpt lat="42.98477" lon="3.04345">
        <ele>13</ele>
        <time>2023-12-30T15:05:42Z</time>
      </trkpt>
      <trkpt lat="42.98479" lon="3.04346">
        <ele>13</ele>
        <time>2023-12-30T15:05:43Z</time>
      </trkpt>
      <trkpt lat="42.98481" lon="3.04348">
        <ele>13</ele>
        <time>2023-12-30T15:05:44Z</time>
      </trkpt>
      <trkpt lat="42.98484" lon="3.04351">
        <ele>12.8</ele>
        <time>2023-12-30T15:05:45Z</time>
      </trkpt>
      <trkpt lat="42.98486" lon="3.04354">
        <ele>12.8</ele>
        <time>2023-12-30T15:05:46Z</time>
      </trkpt>
      <trkpt lat="42.98489" lon="3.04356">
        <ele>12.8</ele>
        <time>2023-12-30T15:05:47Z</time>
      </trkpt>
      <trkpt lat="42.98501" lon="3.04372">
        <ele>12.8</ele>
        <time>2023-12-30T15:05:52Z</time>
      </trkpt>
      <trkpt lat="42.9851" lon="3.04387">
        <ele>12.8</ele>
        <time>2023-12-30T15:05:57Z</time>
      </trkpt>
      <trkpt lat="42.98523" lon="3.04407">
        <ele>12.8</ele>
        <time>2023-12-30T15:06:03Z</time>
      </trkpt>
      <trkpt lat="42.98525" lon="3.0441">
        <ele>12.8</ele>
        <time>2023-12-30T15:06:04Z</time>
      </trkpt>
      <trkpt lat="42.98527" lon="3.04413">
        <ele>12.8</ele>
        <time>2023-12-30T15:06:05Z</time>
      </trkpt>
      <trkpt lat="42.98528" lon="3.04415">
        <ele>12.8</ele>
        <time>2023-12-30T15:06:06Z</time>
      </trkpt>
      <trkpt lat="42.98533" lon="3.04422">
        <ele>12.8</ele>
        <time>2023-12-30T15:06:09Z</time>
      </trkpt>
      <trkpt lat="42.98535" lon="3.04424">
        <ele>12.8</ele>
        <time>2023-12-30T15:06:10Z</time>
      </trkpt>
      <trkpt lat="42.98537" lon="3.04426">
        <ele>12.8</ele>
        <time>2023-12-30T15:06:11Z</time>
      </trkpt>
      <trkpt lat="42.98539" lon="3.04426">
        <ele>12.8</ele>
        <time>2023-12-30T15:06:12Z</time>
      </trkpt>
      <trkpt lat="42.98542" lon="3.04425">
        <ele>12.8</ele>
        <time>2023-12-30T15:06:13Z</time>
      </trkpt>
      <trkpt lat="42.98544" lon="3.04425">
        <ele>12.8</ele>
        <time>2023-12-30T15:06:14Z</time>
      </trkpt>
      <trkpt lat="42.98547" lon="3.04424">
        <ele>12.8</ele>
        <time>2023-12-30T15:06:15Z</time>
      </trkpt>
      <trkpt lat="42.98549" lon="3.04424">
        <ele>12.8</ele>
        <time>2023-12-30T15:06:16Z</time>
      </trkpt>
      <trkpt lat="42.98551" lon="3.04423">
        <ele>12.8</ele>
        <time>2023-12-30T15:06:17Z</time>
      </trkpt>
      <trkpt lat="42.98552" lon="3.04422">
        <ele>12.8</ele>
        <time>2023-12-30T15:06:18Z</time>
      </trkpt>
      <trkpt lat="42.98554" lon="3.04421">
        <ele>12.8</ele>
        <time>2023-12-30T15:06:19Z</time>
      </trkpt>
      <trkpt lat="42.98555" lon="3.0442">
        <ele>12.8</ele>
        <time>2023-12-30T15:06:20Z</time>
      </trkpt>
      <trkpt lat="42.98556" lon="3.04421">
        <ele>12.8</ele>
        <time>2023-12-30T15:06:21Z</time>
      </trkpt>
      <trkpt lat="42.98558" lon="3.04422">
        <ele>12.8</ele>
        <time>2023-12-30T15:06:22Z</time>
      </trkpt>
      <trkpt lat="42.98559" lon="3.04424">
        <ele>12.6</ele>
        <time>2023-12-30T15:06:23Z</time>
      </trkpt>
      <trkpt lat="42.98562" lon="3.04428">
        <ele>12.6</ele>
        <time>2023-12-30T15:06:25Z</time>
      </trkpt>
      <trkpt lat="42.98564" lon="3.04432">
        <ele>12.6</ele>
        <time>2023-12-30T15:06:26Z</time>
      </trkpt>
      <trkpt lat="42.98565" lon="3.04435">
        <ele>12.6</ele>
        <time>2023-12-30T15:06:27Z</time>
      </trkpt>
      <trkpt lat="42.98573" lon="3.04447">
        <ele>13</ele>
        <time>2023-12-30T15:06:32Z</time>
      </trkpt>
      <trkpt lat="42.98576" lon="3.04449">
        <ele>13</ele>
        <time>2023-12-30T15:06:33Z</time>
      </trkpt>
      <trkpt lat="42.98578" lon="3.0445">
        <ele>13</ele>
        <time>2023-12-30T15:06:34Z</time>
      </trkpt>
      <trkpt lat="42.9859" lon="3.04456">
        <ele>13</ele>
        <time>2023-12-30T15:06:39Z</time>
      </trkpt>
      <trkpt lat="42.98595" lon="3.04458">
        <ele>13.2</ele>
        <time>2023-12-30T15:06:41Z</time>
      </trkpt>
      <trkpt lat="42.98597" lon="3.04459">
        <ele>13.2</ele>
        <time>2023-12-30T15:06:42Z</time>
      </trkpt>
      <trkpt lat="42.98599" lon="3.0446">
        <ele>13.2</ele>
        <time>2023-12-30T15:06:43Z</time>
      </trkpt>
      <trkpt lat="42.98602" lon="3.04462">
        <ele>13.2</ele>
        <time>2023-12-30T15:06:44Z</time>
      </trkpt>
      <trkpt lat="42.98603" lon="3.04463">
        <ele>13.2</ele>
        <time>2023-12-30T15:06:45Z</time>
      </trkpt>
      <trkpt lat="42.98606" lon="3.04464">
        <ele>13.2</ele>
        <time>2023-12-30T15:06:46Z</time>
      </trkpt>
      <trkpt lat="42.98608" lon="3.04465">
        <ele>13.2</ele>
        <time>2023-12-30T15:06:47Z</time>
      </trkpt>
      <trkpt lat="42.98611" lon="3.04468">
        <ele>13.4</ele>
        <time>2023-12-30T15:06:49Z</time>
      </trkpt>
      <trkpt lat="42.98614" lon="3.04469">
        <ele>13.4</ele>
        <time>2023-12-30T15:06:50Z</time>
      </trkpt>
      <trkpt lat="42.98615" lon="3.0447">
        <ele>13.4</ele>
        <time>2023-12-30T15:06:51Z</time>
      </trkpt>
      <trkpt lat="42.98618" lon="3.04471">
        <ele>13.4</ele>
        <time>2023-12-30T15:06:52Z</time>
      </trkpt>
      <trkpt lat="42.98641" lon="3.04488">
        <ele>13.4</ele>
        <time>2023-12-30T15:07:02Z</time>
      </trkpt>
      <trkpt lat="42.98659" lon="3.04504">
        <ele>13.4</ele>
        <time>2023-12-30T15:07:09Z</time>
      </trkpt>
      <trkpt lat="42.98672" lon="3.04513">
        <ele>13.4</ele>
        <time>2023-12-30T15:07:14Z</time>
      </trkpt>
      <trkpt lat="42.98674" lon="3.04514">
        <ele>13.4</ele>
        <time>2023-12-30T15:07:15Z</time>
      </trkpt>
      <trkpt lat="42.98676" lon="3.04515">
        <ele>13.4</ele>
        <time>2023-12-30T15:07:16Z</time>
      </trkpt>
      <trkpt lat="42.98682" lon="3.0452">
        <ele>13.4</ele>
        <time>2023-12-30T15:07:19Z</time>
      </trkpt>
      <trkpt lat="42.98684" lon="3.04522">
        <ele>13.4</ele>
        <time>2023-12-30T15:07:20Z</time>
      </trkpt>
      <trkpt lat="42.98686" lon="3.04524">
        <ele>13.4</ele>
        <time>2023-12-30T15:07:21Z</time>
      </trkpt>
      <trkpt lat="42.98688" lon="3.04525">
        <ele>13.2</ele>
        <time>2023-12-30T15:07:22Z</time>
      </trkpt>
      <trkpt lat="42.98691" lon="3.04528">
        <ele>13.2</ele>
        <time>2023-12-30T15:07:23Z</time>
      </trkpt>
      <trkpt lat="42.98693" lon="3.04529">
        <ele>13.2</ele>
        <time>2023-12-30T15:07:24Z</time>
      </trkpt>
      <trkpt lat="42.98695" lon="3.04531">
        <ele>13.2</ele>
        <time>2023-12-30T15:07:25Z</time>
      </trkpt>
      <trkpt lat="42.987" lon="3.04535">
        <ele>13.2</ele>
        <time>2023-12-30T15:07:27Z</time>
      </trkpt>
      <trkpt lat="42.98705" lon="3.04539">
        <ele>13.2</ele>
        <time>2023-12-30T15:07:30Z</time>
      </trkpt>
      <trkpt lat="42.98708" lon="3.04541">
        <ele>13.2</ele>
        <time>2023-12-30T15:07:31Z</time>
      </trkpt>
      <trkpt lat="42.9871" lon="3.04543">
        <ele>13.2</ele>
        <time>2023-12-30T15:07:32Z</time>
      </trkpt>
      <trkpt lat="42.98712" lon="3.04543">
        <ele>13.2</ele>
        <time>2023-12-30T15:07:33Z</time>
      </trkpt>
      <trkpt lat="42.98713" lon="3.04545">
        <ele>13.2</ele>
        <time>2023-12-30T15:07:34Z</time>
      </trkpt>
      <trkpt lat="42.98715" lon="3.04546">
        <ele>13.2</ele>
        <time>2023-12-30T15:07:35Z</time>
      </trkpt>
      <trkpt lat="42.98717" lon="3.04548">
        <ele>13.2</ele>
        <time>2023-12-30T15:07:36Z</time>
      </trkpt>
      <trkpt lat="42.98719" lon="3.04549">
        <ele>13.2</ele>
        <time>2023-12-30T15:07:37Z</time>
      </trkpt>
      <trkpt lat="42.98721" lon="3.04551">
        <ele>13.2</ele>
        <time>2023-12-30T15:07:38Z</time>
      </trkpt>
      <trkpt lat="42.98724" lon="3.04552">
        <ele>13.2</ele>
        <time>2023-12-30T15:07:39Z</time>
      </trkpt>
      <trkpt lat="42.98726" lon="3.04554">
        <ele>13.2</ele>
        <time>2023-12-30T15:07:40Z</time>
      </trkpt>
      <trkpt lat="42.9873" lon="3.04558">
        <ele>13.2</ele>
        <time>2023-12-30T15:07:42Z</time>
      </trkpt>
      <trkpt lat="42.98732" lon="3.04559">
        <ele>13.2</ele>
        <time>2023-12-30T15:07:43Z</time>
      </trkpt>
      <trkpt lat="42.98733" lon="3.0456">
        <ele>13.2</ele>
        <time>2023-12-30T15:07:44Z</time>
      </trkpt>
      <trkpt lat="42.98735" lon="3.04561">
        <ele>13.2</ele>
        <time>2023-12-30T15:07:45Z</time>
      </trkpt>
      <trkpt lat="42.98738" lon="3.04563">
        <ele>13</ele>
        <time>2023-12-30T15:07:47Z</time>
      </trkpt>
      <trkpt lat="42.98739" lon="3.04563">
        <ele>13</ele>
        <time>2023-12-30T15:07:48Z</time>
      </trkpt>
      <trkpt lat="42.98739" lon="3.04563">
        <ele>13</ele>
        <time>2023-12-30T15:07:49Z</time>
      </trkpt>
      <trkpt lat="42.98745" lon="3.04568">
        <ele>12.8</ele>
        <time>2023-12-30T15:09:00Z</time>
      </trkpt>
      <trkpt lat="42.9875" lon="3.04572">
        <ele>12.6</ele>
        <time>2023-12-30T15:09:04Z</time>
      </trkpt>
      <trkpt lat="42.98751" lon="3.04572">
        <ele>12.6</ele>
        <time>2023-12-30T15:09:05Z</time>
      </trkpt>
      <trkpt lat="42.98752" lon="3.04573">
        <ele>12.6</ele>
        <time>2023-12-30T15:09:06Z</time>
      </trkpt>
      <trkpt lat="42.98752" lon="3.04573">
        <ele>12.6</ele>
        <time>2023-12-30T15:09:07Z</time>
      </trkpt>
      <trkpt lat="42.98766" lon="3.04587">
        <ele>12.6</ele>
        <time>2023-12-30T15:10:17Z</time>
      </trkpt>
      <trkpt lat="42.98768" lon="3.0459">
        <ele>12.6</ele>
        <time>2023-12-30T15:10:19Z</time>
      </trkpt>
      <trkpt lat="42.98769" lon="3.04592">
        <ele>12.6</ele>
        <time>2023-12-30T15:10:20Z</time>
      </trkpt>
      <trkpt lat="42.9877" lon="3.04593">
        <ele>12.6</ele>
        <time>2023-12-30T15:10:21Z</time>
      </trkpt>
      <trkpt lat="42.98772" lon="3.04595">
        <ele>12.8</ele>
        <time>2023-12-30T15:10:23Z</time>
      </trkpt>
      <trkpt lat="42.98773" lon="3.04595">
        <ele>12.8</ele>
        <time>2023-12-30T15:10:24Z</time>
      </trkpt>
      <trkpt lat="42.98774" lon="3.04596">
        <ele>12.8</ele>
        <time>2023-12-30T15:10:25Z</time>
      </trkpt>
      <trkpt lat="42.98775" lon="3.04597">
        <ele>13</ele>
        <time>2023-12-30T15:10:26Z</time>
      </trkpt>
      <trkpt lat="42.98778" lon="3.046">
        <ele>13</ele>
        <time>2023-12-30T15:10:28Z</time>
      </trkpt>
      <trkpt lat="42.98779" lon="3.04601">
        <ele>13</ele>
        <time>2023-12-30T15:10:29Z</time>
      </trkpt>
      <trkpt lat="42.9878" lon="3.04603">
        <ele>13</ele>
        <time>2023-12-30T15:10:30Z</time>
      </trkpt>
      <trkpt lat="42.98786" lon="3.04609">
        <ele>13</ele>
        <time>2023-12-30T15:10:34Z</time>
      </trkpt>
      <trkpt lat="42.98801" lon="3.0462">
        <ele>13.2</ele>
        <time>2023-12-30T15:10:42Z</time>
      </trkpt>
      <trkpt lat="42.98809" lon="3.04625">
        <ele>13.2</ele>
        <time>2023-12-30T15:10:47Z</time>
      </trkpt>
      <trkpt lat="42.9881" lon="3.04626">
        <ele>13.2</ele>
        <time>2023-12-30T15:10:48Z</time>
      </trkpt>
      <trkpt lat="42.98812" lon="3.04627">
        <ele>13.2</ele>
        <time>2023-12-30T15:10:49Z</time>
      </trkpt>
      <trkpt lat="42.98814" lon="3.04628">
        <ele>13.2</ele>
        <time>2023-12-30T15:10:50Z</time>
      </trkpt>
      <trkpt lat="42.98815" lon="3.04629">
        <ele>13.2</ele>
        <time>2023-12-30T15:10:51Z</time>
      </trkpt>
      <trkpt lat="42.9882" lon="3.04632">
        <ele>13.2</ele>
        <time>2023-12-30T15:10:54Z</time>
      </trkpt>
      <trkpt lat="42.98828" lon="3.04638">
        <ele>13.2</ele>
        <time>2023-12-30T15:11:00Z</time>
      </trkpt>
      <trkpt lat="42.98829" lon="3.04639">
        <ele>13.2</ele>
        <time>2023-12-30T15:11:01Z</time>
      </trkpt>
      <trkpt lat="42.9883" lon="3.0464">
        <ele>13.2</ele>
        <time>2023-12-30T15:11:02Z</time>
      </trkpt>
      <trkpt lat="42.98832" lon="3.04641">
        <ele>13.2</ele>
        <time>2023-12-30T15:11:03Z</time>
      </trkpt>
      <trkpt lat="42.98834" lon="3.04643">
        <ele>13.2</ele>
        <time>2023-12-30T15:11:04Z</time>
      </trkpt>
      <trkpt lat="42.98838" lon="3.04646">
        <ele>13.2</ele>
        <time>2023-12-30T15:11:07Z</time>
      </trkpt>
      <trkpt lat="42.98839" lon="3.04647">
        <ele>13.2</ele>
        <time>2023-12-30T15:11:08Z</time>
      </trkpt>
      <trkpt lat="42.98841" lon="3.04648">
        <ele>13.2</ele>
        <time>2023-12-30T15:11:09Z</time>
      </trkpt>
      <trkpt lat="42.98844" lon="3.04649">
        <ele>13.2</ele>
        <time>2023-12-30T15:11:11Z</time>
      </trkpt>
      <trkpt lat="42.98845" lon="3.04648">
        <ele>13.2</ele>
        <time>2023-12-30T15:11:13Z</time>
      </trkpt>
      <trkpt lat="42.98846" lon="3.04646">
        <ele>13.2</ele>
        <time>2023-12-30T15:11:14Z</time>
      </trkpt>
      <trkpt lat="42.98846" lon="3.04644">
        <ele>13.2</ele>
        <time>2023-12-30T15:11:15Z</time>
      </trkpt>
      <trkpt lat="42.98846" lon="3.04642">
        <ele>13.2</ele>
        <time>2023-12-30T15:11:16Z</time>
      </trkpt>
      <trkpt lat="42.98846" lon="3.0464">
        <ele>13</ele>
        <time>2023-12-30T15:11:17Z</time>
      </trkpt>
      <trkpt lat="42.98847" lon="3.04638">
        <ele>13</ele>
        <time>2023-12-30T15:11:18Z</time>
      </trkpt>
      <trkpt lat="42.98848" lon="3.04634">
        <ele>13</ele>
        <time>2023-12-30T15:11:20Z</time>
      </trkpt>
      <trkpt lat="42.98848" lon="3.04632">
        <ele>13</ele>
        <time>2023-12-30T15:11:21Z</time>
      </trkpt>
      <trkpt lat="42.98847" lon="3.04631">
        <ele>13</ele>
        <time>2023-12-30T15:11:22Z</time>
      </trkpt>
      <trkpt lat="42.98846" lon="3.04631">
        <ele>13</ele>
        <time>2023-12-30T15:11:23Z</time>
      </trkpt>
      <trkpt lat="42.98846" lon="3.04632">
        <ele>13</ele>
        <time>2023-12-30T15:11:24Z</time>
      </trkpt>
      <trkpt lat="42.98846" lon="3.04633">
        <ele>13</ele>
        <time>2023-12-30T15:11:26Z</time>
      </trkpt>
      <trkpt lat="42.98846" lon="3.04635">
        <ele>13</ele>
        <time>2023-12-30T15:11:27Z</time>
      </trkpt>
      <trkpt lat="42.98845" lon="3.04637">
        <ele>13</ele>
        <time>2023-12-30T15:11:28Z</time>
      </trkpt>
      <trkpt lat="42.98845" lon="3.04638">
        <ele>13</ele>
        <time>2023-12-30T15:11:29Z</time>
      </trkpt>
      <trkpt lat="42.98845" lon="3.0464">
        <ele>13</ele>
        <time>2023-12-30T15:11:30Z</time>
      </trkpt>
      <trkpt lat="42.98844" lon="3.04647">
        <ele>13</ele>
        <time>2023-12-30T15:11:34Z</time>
      </trkpt>
      <trkpt lat="42.98846" lon="3.04651">
        <ele>13.2</ele>
        <time>2023-12-30T15:11:36Z</time>
      </trkpt>
      <trkpt lat="42.98862" lon="3.04661">
        <ele>13.2</ele>
        <time>2023-12-30T15:11:42Z</time>
      </trkpt>
      <trkpt lat="42.98866" lon="3.04662">
        <ele>13.2</ele>
        <time>2023-12-30T15:11:43Z</time>
      </trkpt>
      <trkpt lat="42.98894" lon="3.04673">
        <ele>13.4</ele>
        <time>2023-12-30T15:11:52Z</time>
      </trkpt>
      <trkpt lat="42.98915" lon="3.04674">
        <ele>13.4</ele>
        <time>2023-12-30T15:11:59Z</time>
      </trkpt>
      <trkpt lat="42.98923" lon="3.04674">
        <ele>13.4</ele>
        <time>2023-12-30T15:12:02Z</time>
      </trkpt>
      <trkpt lat="42.98925" lon="3.04674">
        <ele>13.4</ele>
        <time>2023-12-30T15:12:03Z</time>
      </trkpt>
      <trkpt lat="42.98927" lon="3.04675">
        <ele>13.4</ele>
        <time>2023-12-30T15:12:04Z</time>
      </trkpt>
      <trkpt lat="42.9893" lon="3.04674">
        <ele>13.4</ele>
        <time>2023-12-30T15:12:05Z</time>
      </trkpt>
      <trkpt lat="42.98932" lon="3.04674">
        <ele>13.4</ele>
        <time>2023-12-30T15:12:06Z</time>
      </trkpt>
      <trkpt lat="42.98934" lon="3.04674">
        <ele>13.4</ele>
        <time>2023-12-30T15:12:07Z</time>
      </trkpt>
      <trkpt lat="42.98937" lon="3.04674">
        <ele>13.6</ele>
        <time>2023-12-30T15:12:08Z</time>
      </trkpt>
      <trkpt lat="42.98939" lon="3.04675">
        <ele>13.6</ele>
        <time>2023-12-30T15:12:09Z</time>
      </trkpt>
      <trkpt lat="42.98948" lon="3.04676">
        <ele>13.4</ele>
        <time>2023-12-30T15:12:12Z</time>
      </trkpt>
      <trkpt lat="42.98966" lon="3.04681">
        <ele>13.4</ele>
        <time>2023-12-30T15:12:19Z</time>
      </trkpt>
      <trkpt lat="42.98982" lon="3.04689">
        <ele>13.2</ele>
        <time>2023-12-30T15:12:26Z</time>
      </trkpt>
      <trkpt lat="42.98984" lon="3.04691">
        <ele>13.2</ele>
        <time>2023-12-30T15:12:27Z</time>
      </trkpt>
      <trkpt lat="42.98986" lon="3.04692">
        <ele>13.2</ele>
        <time>2023-12-30T15:12:28Z</time>
      </trkpt>
      <trkpt lat="42.98989" lon="3.04693">
        <ele>13.2</ele>
        <time>2023-12-30T15:12:29Z</time>
      </trkpt>
      <trkpt lat="42.98991" lon="3.04694">
        <ele>13.2</ele>
        <time>2023-12-30T15:12:30Z</time>
      </trkpt>
      <trkpt lat="42.98992" lon="3.04694">
        <ele>13</ele>
        <time>2023-12-30T15:12:31Z</time>
      </trkpt>
      <trkpt lat="42.98994" lon="3.04695">
        <ele>13</ele>
        <time>2023-12-30T15:12:32Z</time>
      </trkpt>
      <trkpt lat="42.98996" lon="3.04696">
        <ele>13</ele>
        <time>2023-12-30T15:12:33Z</time>
      </trkpt>
      <trkpt lat="42.98998" lon="3.04696">
        <ele>13</ele>
        <time>2023-12-30T15:12:34Z</time>
      </trkpt>
      <trkpt lat="42.99" lon="3.04697">
        <ele>13.2</ele>
        <time>2023-12-30T15:12:35Z</time>
      </trkpt>
      <trkpt lat="42.99001" lon="3.04697">
        <ele>13.2</ele>
        <time>2023-12-30T15:12:36Z</time>
      </trkpt>
      <trkpt lat="42.99002" lon="3.04697">
        <ele>13.2</ele>
        <time>2023-12-30T15:12:37Z</time>
      </trkpt>
      <trkpt lat="42.99004" lon="3.04698">
        <ele>13.2</ele>
        <time>2023-12-30T15:12:38Z</time>
      </trkpt>
      <trkpt lat="42.99004" lon="3.04697">
        <ele>13.4</ele>
        <time>2023-12-30T15:12:39Z</time>
      </trkpt>
      <trkpt lat="42.99004" lon="3.04697">
        <ele>13.4</ele>
        <time>2023-12-30T15:12:40Z</time>
      </trkpt>
      <trkpt lat="42.98994" lon="3.04694">
        <ele>13</ele>
        <time>2023-12-30T15:13:10Z</time>
      </trkpt>
      <trkpt lat="42.9899" lon="3.04692">
        <ele>13</ele>
        <time>2023-12-30T15:13:12Z</time>
      </trkpt>
      <trkpt lat="42.98973" lon="3.04684">
        <ele>13</ele>
        <time>2023-12-30T15:13:18Z</time>
      </trkpt>
      <trkpt lat="42.98971" lon="3.04683">
        <ele>13</ele>
        <time>2023-12-30T15:13:19Z</time>
      </trkpt>
      <trkpt lat="42.98947" lon="3.04675">
        <ele>13</ele>
        <time>2023-12-30T15:13:27Z</time>
      </trkpt>
      <trkpt lat="42.98922" lon="3.04672">
        <ele>13.2</ele>
        <time>2023-12-30T15:13:36Z</time>
      </trkpt>
      <trkpt lat="42.98918" lon="3.04672">
        <ele>13.2</ele>
        <time>2023-12-30T15:13:38Z</time>
      </trkpt>
      <trkpt lat="42.98916" lon="3.04671">
        <ele>13.2</ele>
        <time>2023-12-30T15:13:39Z</time>
      </trkpt>
      <trkpt lat="42.98914" lon="3.04671">
        <ele>13.2</ele>
        <time>2023-12-30T15:13:40Z</time>
      </trkpt>
      <trkpt lat="42.98913" lon="3.04671">
        <ele>13.2</ele>
        <time>2023-12-30T15:13:41Z</time>
      </trkpt>
      <trkpt lat="42.98912" lon="3.0467">
        <ele>13.2</ele>
        <time>2023-12-30T15:13:42Z</time>
      </trkpt>
      <trkpt lat="42.98911" lon="3.04671">
        <ele>13.2</ele>
        <time>2023-12-30T15:13:43Z</time>
      </trkpt>
      <trkpt lat="42.98911" lon="3.04671">
        <ele>13.2</ele>
        <time>2023-12-30T15:13:44Z</time>
      </trkpt>
      <trkpt lat="42.98911" lon="3.0467">
        <ele>13.2</ele>
        <time>2023-12-30T15:13:45Z</time>
      </trkpt>
      <trkpt lat="42.98918" lon="3.04674">
        <ele>12.8</ele>
        <time>2023-12-30T15:13:57Z</time>
      </trkpt>
      <trkpt lat="42.98928" lon="3.04673">
        <ele>12.8</ele>
        <time>2023-12-30T15:14:02Z</time>
      </trkpt>
      <trkpt lat="42.98931" lon="3.04673">
        <ele>12.8</ele>
        <time>2023-12-30T15:14:04Z</time>
      </trkpt>
      <trkpt lat="42.98936" lon="3.04671">
        <ele>12.8</ele>
        <time>2023-12-30T15:14:08Z</time>
      </trkpt>
      <trkpt lat="42.98936" lon="3.04671">
        <ele>12.8</ele>
        <time>2023-12-30T15:14:09Z</time>
      </trkpt>
      <trkpt lat="42.98936" lon="3.04671">
        <ele>12.8</ele>
        <time>2023-12-30T15:14:10Z</time>
      </trkpt>
      <trkpt lat="42.98941" lon="3.04673">
        <ele>12.8</ele>
        <time>2023-12-30T15:14:39Z</time>
      </trkpt>
      <trkpt lat="42.98945" lon="3.04674">
        <ele>12.8</ele>
        <time>2023-12-30T15:14:41Z</time>
      </trkpt>
      <trkpt lat="42.98953" lon="3.04676">
        <ele>12.8</ele>
        <time>2023-12-30T15:14:44Z</time>
      </trkpt>
      <trkpt lat="42.98965" lon="3.0468">
        <ele>12.8</ele>
        <time>2023-12-30T15:14:48Z</time>
      </trkpt>
      <trkpt lat="42.98988" lon="3.04691">
        <ele>12.6</ele>
        <time>2023-12-30T15:14:56Z</time>
      </trkpt>
      <trkpt lat="42.99004" lon="3.047">
        <ele>12.8</ele>
        <time>2023-12-30T15:15:02Z</time>
      </trkpt>
      <trkpt lat="42.99007" lon="3.04701">
        <ele>12.8</ele>
        <time>2023-12-30T15:15:03Z</time>
      </trkpt>
      <trkpt lat="42.99009" lon="3.04702">
        <ele>12.8</ele>
        <time>2023-12-30T15:15:04Z</time>
      </trkpt>
      <trkpt lat="42.99012" lon="3.04703">
        <ele>12.8</ele>
        <time>2023-12-30T15:15:05Z</time>
      </trkpt>
      <trkpt lat="42.99015" lon="3.04704">
        <ele>12.8</ele>
        <time>2023-12-30T15:15:06Z</time>
      </trkpt>
      <trkpt lat="42.99017" lon="3.04705">
        <ele>12.8</ele>
        <time>2023-12-30T15:15:07Z</time>
      </trkpt>
      <trkpt lat="42.9902" lon="3.04706">
        <ele>12.8</ele>
        <time>2023-12-30T15:15:08Z</time>
      </trkpt>
      <trkpt lat="42.99022" lon="3.04707">
        <ele>13</ele>
        <time>2023-12-30T15:15:09Z</time>
      </trkpt>
      <trkpt lat="42.99025" lon="3.04708">
        <ele>13</ele>
        <time>2023-12-30T15:15:10Z</time>
      </trkpt>
      <trkpt lat="42.99027" lon="3.04709">
        <ele>13</ele>
        <time>2023-12-30T15:15:11Z</time>
      </trkpt>
      <trkpt lat="42.99029" lon="3.0471">
        <ele>13</ele>
        <time>2023-12-30T15:15:12Z</time>
      </trkpt>
      <trkpt lat="42.99031" lon="3.04711">
        <ele>13</ele>
        <time>2023-12-30T15:15:13Z</time>
      </trkpt>
      <trkpt lat="42.99034" lon="3.04713">
        <ele>13</ele>
        <time>2023-12-30T15:15:14Z</time>
      </trkpt>
      <trkpt lat="42.99037" lon="3.04714">
        <ele>13.2</ele>
        <time>2023-12-30T15:15:15Z</time>
      </trkpt>
      <trkpt lat="42.99042" lon="3.04716">
        <ele>13.2</ele>
        <time>2023-12-30T15:15:17Z</time>
      </trkpt>
      <trkpt lat="42.99069" lon="3.04727">
        <ele>13.2</ele>
        <time>2023-12-30T15:15:27Z</time>
      </trkpt>
      <trkpt lat="42.99095" lon="3.0474">
        <ele>13.2</ele>
        <time>2023-12-30T15:15:37Z</time>
      </trkpt>
      <trkpt lat="42.99097" lon="3.0474">
        <ele>13.2</ele>
        <time>2023-12-30T15:15:38Z</time>
      </trkpt>
      <trkpt lat="42.99099" lon="3.04741">
        <ele>13.2</ele>
        <time>2023-12-30T15:15:39Z</time>
      </trkpt>
      <trkpt lat="42.991" lon="3.04742">
        <ele>13.2</ele>
        <time>2023-12-30T15:15:40Z</time>
      </trkpt>
      <trkpt lat="42.991" lon="3.04743">
        <ele>13.2</ele>
        <time>2023-12-30T15:15:41Z</time>
      </trkpt>
      <trkpt lat="42.99101" lon="3.04743">
        <ele>13.2</ele>
        <time>2023-12-30T15:15:42Z</time>
      </trkpt>
      <trkpt lat="42.99101" lon="3.04743">
        <ele>13.2</ele>
        <time>2023-12-30T15:15:43Z</time>
      </trkpt>
      <trkpt lat="42.99101" lon="3.04743">
        <ele>13.2</ele>
        <time>2023-12-30T15:15:44Z</time>
      </trkpt>
      <trkpt lat="42.99101" lon="3.04743">
        <ele>13.2</ele>
        <time>2023-12-30T15:15:45Z</time>
      </trkpt>
      <trkpt lat="42.99107" lon="3.04747">
        <ele>13</ele>
        <time>2023-12-30T15:15:53Z</time>
      </trkpt>
      <trkpt lat="42.99108" lon="3.04748">
        <ele>13</ele>
        <time>2023-12-30T15:15:54Z</time>
      </trkpt>
      <trkpt lat="42.9911" lon="3.04749">
        <ele>13</ele>
        <time>2023-12-30T15:15:56Z</time>
      </trkpt>
      <trkpt lat="42.99111" lon="3.0475">
        <ele>13</ele>
        <time>2023-12-30T15:15:57Z</time>
      </trkpt>
      <trkpt lat="42.99111" lon="3.04751">
        <ele>13</ele>
        <time>2023-12-30T15:15:58Z</time>
      </trkpt>
      <trkpt lat="42.99111" lon="3.04751">
        <ele>13</ele>
        <time>2023-12-30T15:15:59Z</time>
      </trkpt>
      <trkpt lat="42.99112" lon="3.04751">
        <ele>13</ele>
        <time>2023-12-30T15:16:00Z</time>
      </trkpt>
      <trkpt lat="42.99112" lon="3.04751">
        <ele>13</ele>
        <time>2023-12-30T15:16:01Z</time>
      </trkpt>
      <trkpt lat="42.99118" lon="3.04753">
        <ele>13</ele>
        <time>2023-12-30T15:16:10Z</time>
      </trkpt>
      <trkpt lat="42.99123" lon="3.04755">
        <ele>13</ele>
        <time>2023-12-30T15:16:12Z</time>
      </trkpt>
      <trkpt lat="42.99138" lon="3.04763">
        <ele>13</ele>
        <time>2023-12-30T15:16:18Z</time>
      </trkpt>
      <trkpt lat="42.99141" lon="3.04765">
        <ele>13</ele>
        <time>2023-12-30T15:16:19Z</time>
      </trkpt>
      <trkpt lat="42.99153" lon="3.0477">
        <ele>13.2</ele>
        <time>2023-12-30T15:16:25Z</time>
      </trkpt>
      <trkpt lat="42.99156" lon="3.04772">
        <ele>13.2</ele>
        <time>2023-12-30T15:16:26Z</time>
      </trkpt>
      <trkpt lat="42.99161" lon="3.04775">
        <ele>13.2</ele>
        <time>2023-12-30T15:16:28Z</time>
      </trkpt>
      <trkpt lat="42.99163" lon="3.04777">
        <ele>13.2</ele>
        <time>2023-12-30T15:16:29Z</time>
      </trkpt>
      <trkpt lat="42.99165" lon="3.04778">
        <ele>13.2</ele>
        <time>2023-12-30T15:16:30Z</time>
      </trkpt>
      <trkpt lat="42.99167" lon="3.04779">
        <ele>13.2</ele>
        <time>2023-12-30T15:16:31Z</time>
      </trkpt>
      <trkpt lat="42.99169" lon="3.04781">
        <ele>13</ele>
        <time>2023-12-30T15:16:32Z</time>
      </trkpt>
      <trkpt lat="42.99172" lon="3.04782">
        <ele>13</ele>
        <time>2023-12-30T15:16:33Z</time>
      </trkpt>
      <trkpt lat="42.9918" lon="3.04785">
        <ele>13</ele>
        <time>2023-12-30T15:16:36Z</time>
      </trkpt>
      <trkpt lat="42.992" lon="3.04799">
        <ele>13</ele>
        <time>2023-12-30T15:16:44Z</time>
      </trkpt>
      <trkpt lat="42.99229" lon="3.04816">
        <ele>13.2</ele>
        <time>2023-12-30T15:16:54Z</time>
      </trkpt>
      <trkpt lat="42.99234" lon="3.0482">
        <ele>13.2</ele>
        <time>2023-12-30T15:16:56Z</time>
      </trkpt>
      <trkpt lat="42.99236" lon="3.04821">
        <ele>13.2</ele>
        <time>2023-12-30T15:16:57Z</time>
      </trkpt>
      <trkpt lat="42.99239" lon="3.04823">
        <ele>13.2</ele>
        <time>2023-12-30T15:16:58Z</time>
      </trkpt>
      <trkpt lat="42.99242" lon="3.04826">
        <ele>13.2</ele>
        <time>2023-12-30T15:16:59Z</time>
      </trkpt>
      <trkpt lat="42.99245" lon="3.04828">
        <ele>13.2</ele>
        <time>2023-12-30T15:17:00Z</time>
      </trkpt>
      <trkpt lat="42.99247" lon="3.04829">
        <ele>13.2</ele>
        <time>2023-12-30T15:17:01Z</time>
      </trkpt>
      <trkpt lat="42.9925" lon="3.04831">
        <ele>13.2</ele>
        <time>2023-12-30T15:17:02Z</time>
      </trkpt>
      <trkpt lat="42.99252" lon="3.04832">
        <ele>13.2</ele>
        <time>2023-12-30T15:17:03Z</time>
      </trkpt>
      <trkpt lat="42.99287" lon="3.04847">
        <ele>13</ele>
        <time>2023-12-30T15:17:15Z</time>
      </trkpt>
      <trkpt lat="42.99296" lon="3.04848">
        <ele>13</ele>
        <time>2023-12-30T15:17:18Z</time>
      </trkpt>
      <trkpt lat="42.99299" lon="3.04849">
        <ele>13</ele>
        <time>2023-12-30T15:17:19Z</time>
      </trkpt>
      <trkpt lat="42.99302" lon="3.0485">
        <ele>13</ele>
        <time>2023-12-30T15:17:20Z</time>
      </trkpt>
      <trkpt lat="42.99304" lon="3.0485">
        <ele>13</ele>
        <time>2023-12-30T15:17:21Z</time>
      </trkpt>
      <trkpt lat="42.99307" lon="3.04851">
        <ele>13</ele>
        <time>2023-12-30T15:17:22Z</time>
      </trkpt>
      <trkpt lat="42.9931" lon="3.04851">
        <ele>13</ele>
        <time>2023-12-30T15:17:23Z</time>
      </trkpt>
      <trkpt lat="42.99313" lon="3.04851">
        <ele>13</ele>
        <time>2023-12-30T15:17:24Z</time>
      </trkpt>
      <trkpt lat="42.99316" lon="3.04852">
        <ele>13</ele>
        <time>2023-12-30T15:17:25Z</time>
      </trkpt>
      <trkpt lat="42.99324" lon="3.04854">
        <ele>13</ele>
        <time>2023-12-30T15:17:28Z</time>
      </trkpt>
      <trkpt lat="42.99327" lon="3.04854">
        <ele>13</ele>
        <time>2023-12-30T15:17:29Z</time>
      </trkpt>
      <trkpt lat="42.99329" lon="3.04855">
        <ele>13</ele>
        <time>2023-12-30T15:17:30Z</time>
      </trkpt>
      <trkpt lat="42.99334" lon="3.04855">
        <ele>13</ele>
        <time>2023-12-30T15:17:32Z</time>
      </trkpt>
      <trkpt lat="42.99336" lon="3.04855">
        <ele>13</ele>
        <time>2023-12-30T15:17:33Z</time>
      </trkpt>
      <trkpt lat="42.99339" lon="3.04856">
        <ele>13.2</ele>
        <time>2023-12-30T15:17:34Z</time>
      </trkpt>
      <trkpt lat="42.99341" lon="3.04856">
        <ele>13.2</ele>
        <time>2023-12-30T15:17:35Z</time>
      </trkpt>
      <trkpt lat="42.99343" lon="3.04857">
        <ele>13.2</ele>
        <time>2023-12-30T15:17:36Z</time>
      </trkpt>
      <trkpt lat="42.99346" lon="3.04857">
        <ele>13.2</ele>
        <time>2023-12-30T15:17:37Z</time>
      </trkpt>
      <trkpt lat="42.99349" lon="3.04857">
        <ele>13.2</ele>
        <time>2023-12-30T15:17:38Z</time>
      </trkpt>
      <trkpt lat="42.99363" lon="3.04859">
        <ele>13.2</ele>
        <time>2023-12-30T15:17:43Z</time>
      </trkpt>
      <trkpt lat="42.99385" lon="3.04861">
        <ele>13</ele>
        <time>2023-12-30T15:17:51Z</time>
      </trkpt>
      <trkpt lat="42.99388" lon="3.04862">
        <ele>13</ele>
        <time>2023-12-30T15:17:52Z</time>
      </trkpt>
      <trkpt lat="42.9939" lon="3.04862">
        <ele>13</ele>
        <time>2023-12-30T15:17:53Z</time>
      </trkpt>
      <trkpt lat="42.99392" lon="3.04863">
        <ele>13</ele>
        <time>2023-12-30T15:17:54Z</time>
      </trkpt>
      <trkpt lat="42.99394" lon="3.04863">
        <ele>13</ele>
        <time>2023-12-30T15:17:55Z</time>
      </trkpt>
      <trkpt lat="42.99397" lon="3.04864">
        <ele>13</ele>
        <time>2023-12-30T15:17:56Z</time>
      </trkpt>
      <trkpt lat="42.99399" lon="3.04864">
        <ele>13</ele>
        <time>2023-12-30T15:17:57Z</time>
      </trkpt>
      <trkpt lat="42.99401" lon="3.04864">
        <ele>13</ele>
        <time>2023-12-30T15:17:58Z</time>
      </trkpt>
      <trkpt lat="42.99403" lon="3.04864">
        <ele>13</ele>
        <time>2023-12-30T15:17:59Z</time>
      </trkpt>
      <trkpt lat="42.99404" lon="3.04864">
        <ele>13</ele>
        <time>2023-12-30T15:18:00Z</time>
      </trkpt>
      <trkpt lat="42.99407" lon="3.04864">
        <ele>13</ele>
        <time>2023-12-30T15:18:01Z</time>
      </trkpt>
      <trkpt lat="42.99409" lon="3.04864">
        <ele>13</ele>
        <time>2023-12-30T15:18:02Z</time>
      </trkpt>
      <trkpt lat="42.99411" lon="3.04864">
        <ele>13</ele>
        <time>2023-12-30T15:18:03Z</time>
      </trkpt>
      <trkpt lat="42.99414" lon="3.04864">
        <ele>13</ele>
        <time>2023-12-30T15:18:04Z</time>
      </trkpt>
      <trkpt lat="42.99433" lon="3.04868">
        <ele>12.8</ele>
        <time>2023-12-30T15:18:11Z</time>
      </trkpt>
      <trkpt lat="42.99447" lon="3.04872">
        <ele>12.8</ele>
        <time>2023-12-30T15:18:17Z</time>
      </trkpt>
      <trkpt lat="42.99449" lon="3.04873">
        <ele>13</ele>
        <time>2023-12-30T15:18:18Z</time>
      </trkpt>
      <trkpt lat="42.99452" lon="3.04874">
        <ele>13</ele>
        <time>2023-12-30T15:18:19Z</time>
      </trkpt>
      <trkpt lat="42.99454" lon="3.04874">
        <ele>13</ele>
        <time>2023-12-30T15:18:20Z</time>
      </trkpt>
      <trkpt lat="42.99457" lon="3.04875">
        <ele>13</ele>
        <time>2023-12-30T15:18:21Z</time>
      </trkpt>
      <trkpt lat="42.99459" lon="3.04875">
        <ele>13</ele>
        <time>2023-12-30T15:18:22Z</time>
      </trkpt>
      <trkpt lat="42.99462" lon="3.04876">
        <ele>13</ele>
        <time>2023-12-30T15:18:23Z</time>
      </trkpt>
      <trkpt lat="42.99465" lon="3.04876">
        <ele>13</ele>
        <time>2023-12-30T15:18:24Z</time>
      </trkpt>
      <trkpt lat="42.99477" lon="3.0488">
        <ele>13.2</ele>
        <time>2023-12-30T15:18:29Z</time>
      </trkpt>
      <trkpt lat="42.99479" lon="3.04881">
        <ele>13</ele>
        <time>2023-12-30T15:18:30Z</time>
      </trkpt>
      <trkpt lat="42.99484" lon="3.04882">
        <ele>13</ele>
        <time>2023-12-30T15:18:32Z</time>
      </trkpt>
      <trkpt lat="42.99492" lon="3.04883">
        <ele>13.4</ele>
        <time>2023-12-30T15:18:35Z</time>
      </trkpt>
      <trkpt lat="42.99494" lon="3.04883">
        <ele>13.4</ele>
        <time>2023-12-30T15:18:36Z</time>
      </trkpt>
      <trkpt lat="42.99496" lon="3.04884">
        <ele>13.4</ele>
        <time>2023-12-30T15:18:37Z</time>
      </trkpt>
      <trkpt lat="42.99498" lon="3.04884">
        <ele>13.6</ele>
        <time>2023-12-30T15:18:38Z</time>
      </trkpt>
      <trkpt lat="42.995" lon="3.04884">
        <ele>13.6</ele>
        <time>2023-12-30T15:18:39Z</time>
      </trkpt>
      <trkpt lat="42.99502" lon="3.04885">
        <ele>13.6</ele>
        <time>2023-12-30T15:18:40Z</time>
      </trkpt>
      <trkpt lat="42.99504" lon="3.04886">
        <ele>13.4</ele>
        <time>2023-12-30T15:18:41Z</time>
      </trkpt>
      <trkpt lat="42.99507" lon="3.04886">
        <ele>13.4</ele>
        <time>2023-12-30T15:18:42Z</time>
      </trkpt>
      <trkpt lat="42.9951" lon="3.04887">
        <ele>13.4</ele>
        <time>2023-12-30T15:18:43Z</time>
      </trkpt>
      <trkpt lat="42.99512" lon="3.04887">
        <ele>13.2</ele>
        <time>2023-12-30T15:18:44Z</time>
      </trkpt>
      <trkpt lat="42.99514" lon="3.04889">
        <ele>13.2</ele>
        <time>2023-12-30T15:18:45Z</time>
      </trkpt>
      <trkpt lat="42.9953" lon="3.04891">
        <ele>13.2</ele>
        <time>2023-12-30T15:18:51Z</time>
      </trkpt>
      <trkpt lat="42.9954" lon="3.04894">
        <ele>13.2</ele>
        <time>2023-12-30T15:18:55Z</time>
      </trkpt>
      <trkpt lat="42.99542" lon="3.04895">
        <ele>13.4</ele>
        <time>2023-12-30T15:18:56Z</time>
      </trkpt>
      <trkpt lat="42.99545" lon="3.04895">
        <ele>13.4</ele>
        <time>2023-12-30T15:18:57Z</time>
      </trkpt>
      <trkpt lat="42.99551" lon="3.04896">
        <ele>13.4</ele>
        <time>2023-12-30T15:18:59Z</time>
      </trkpt>
      <trkpt lat="42.99577" lon="3.04899">
        <ele>13.6</ele>
        <time>2023-12-30T15:19:07Z</time>
      </trkpt>
      <trkpt lat="42.99607" lon="3.04894">
        <ele>13.6</ele>
        <time>2023-12-30T15:19:17Z</time>
      </trkpt>
      <trkpt lat="42.9961" lon="3.04893">
        <ele>13.6</ele>
        <time>2023-12-30T15:19:18Z</time>
      </trkpt>
      <trkpt lat="42.99612" lon="3.04893">
        <ele>13.4</ele>
        <time>2023-12-30T15:19:19Z</time>
      </trkpt>
      <trkpt lat="42.99616" lon="3.04893">
        <ele>13.4</ele>
        <time>2023-12-30T15:19:20Z</time>
      </trkpt>
      <trkpt lat="42.99637" lon="3.04889">
        <ele>13.4</ele>
        <time>2023-12-30T15:19:27Z</time>
      </trkpt>
      <trkpt lat="42.9964" lon="3.04888">
        <ele>13.4</ele>
        <time>2023-12-30T15:19:28Z</time>
      </trkpt>
      <trkpt lat="42.99653" lon="3.04882">
        <ele>13.4</ele>
        <time>2023-12-30T15:19:32Z</time>
      </trkpt>
      <trkpt lat="42.99665" lon="3.04877">
        <ele>13.4</ele>
        <time>2023-12-30T15:19:37Z</time>
      </trkpt>
      <trkpt lat="42.99667" lon="3.04876">
        <ele>13.4</ele>
        <time>2023-12-30T15:19:38Z</time>
      </trkpt>
      <trkpt lat="42.9967" lon="3.04874">
        <ele>13.4</ele>
        <time>2023-12-30T15:19:39Z</time>
      </trkpt>
      <trkpt lat="42.99672" lon="3.04873">
        <ele>13.4</ele>
        <time>2023-12-30T15:19:40Z</time>
      </trkpt>
      <trkpt lat="42.99674" lon="3.04872">
        <ele>13.4</ele>
        <time>2023-12-30T15:19:41Z</time>
      </trkpt>
      <trkpt lat="42.99676" lon="3.04871">
        <ele>13.4</ele>
        <time>2023-12-30T15:19:42Z</time>
      </trkpt>
      <trkpt lat="42.99678" lon="3.0487">
        <ele>13.4</ele>
        <time>2023-12-30T15:19:43Z</time>
      </trkpt>
      <trkpt lat="42.9968" lon="3.04869">
        <ele>13.4</ele>
        <time>2023-12-30T15:19:44Z</time>
      </trkpt>
      <trkpt lat="42.99681" lon="3.04868">
        <ele>13.4</ele>
        <time>2023-12-30T15:19:45Z</time>
      </trkpt>
      <trkpt lat="42.99683" lon="3.04866">
        <ele>13.4</ele>
        <time>2023-12-30T15:19:46Z</time>
      </trkpt>
      <trkpt lat="42.99684" lon="3.04864">
        <ele>13.4</ele>
        <time>2023-12-30T15:19:47Z</time>
      </trkpt>
      <trkpt lat="42.99686" lon="3.04861">
        <ele>13.4</ele>
        <time>2023-12-30T15:19:48Z</time>
      </trkpt>
      <trkpt lat="42.99687" lon="3.04859">
        <ele>13.4</ele>
        <time>2023-12-30T15:19:49Z</time>
      </trkpt>
      <trkpt lat="42.99689" lon="3.04856">
        <ele>13.4</ele>
        <time>2023-12-30T15:19:50Z</time>
      </trkpt>
      <trkpt lat="42.9969" lon="3.04854">
        <ele>13.4</ele>
        <time>2023-12-30T15:19:51Z</time>
      </trkpt>
      <trkpt lat="42.99691" lon="3.04852">
        <ele>13.4</ele>
        <time>2023-12-30T15:19:52Z</time>
      </trkpt>
      <trkpt lat="42.99693" lon="3.0485">
        <ele>13.4</ele>
        <time>2023-12-30T15:19:53Z</time>
      </trkpt>
      <trkpt lat="42.99694" lon="3.04848">
        <ele>13.4</ele>
        <time>2023-12-30T15:19:54Z</time>
      </trkpt>
      <trkpt lat="42.99697" lon="3.04844">
        <ele>13.4</ele>
        <time>2023-12-30T15:19:56Z</time>
      </trkpt>
      <trkpt lat="42.99712" lon="3.0482">
        <ele>13.4</ele>
        <time>2023-12-30T15:20:06Z</time>
      </trkpt>
      <trkpt lat="42.99731" lon="3.04795">
        <ele>13.2</ele>
        <time>2023-12-30T15:20:16Z</time>
      </trkpt>
      <trkpt lat="42.99754" lon="3.04769">
        <ele>13</ele>
        <time>2023-12-30T15:20:27Z</time>
      </trkpt>
      <trkpt lat="42.99777" lon="3.04745">
        <ele>13</ele>
        <time>2023-12-30T15:20:37Z</time>
      </trkpt>
      <trkpt lat="42.998" lon="3.04732">
        <ele>13</ele>
        <time>2023-12-30T15:20:46Z</time>
      </trkpt>
      <trkpt lat="42.99803" lon="3.04732">
        <ele>13</ele>
        <time>2023-12-30T15:20:47Z</time>
      </trkpt>
      <trkpt lat="42.99806" lon="3.04731">
        <ele>13</ele>
        <time>2023-12-30T15:20:48Z</time>
      </trkpt>
      <trkpt lat="42.99809" lon="3.0473">
        <ele>13</ele>
        <time>2023-12-30T15:20:49Z</time>
      </trkpt>
      <trkpt lat="42.99811" lon="3.04729">
        <ele>13</ele>
        <time>2023-12-30T15:20:50Z</time>
      </trkpt>
      <trkpt lat="42.99814" lon="3.04728">
        <ele>13</ele>
        <time>2023-12-30T15:20:51Z</time>
      </trkpt>
      <trkpt lat="42.99817" lon="3.04726">
        <ele>13</ele>
        <time>2023-12-30T15:20:52Z</time>
      </trkpt>
      <trkpt lat="42.99824" lon="3.04721">
        <ele>13</ele>
        <time>2023-12-30T15:20:55Z</time>
      </trkpt>
      <trkpt lat="42.99831" lon="3.04716">
        <ele>13</ele>
        <time>2023-12-30T15:20:58Z</time>
      </trkpt>
      <trkpt lat="42.99833" lon="3.04714">
        <ele>13</ele>
        <time>2023-12-30T15:20:59Z</time>
      </trkpt>
      <trkpt lat="42.99835" lon="3.04712">
        <ele>13</ele>
        <time>2023-12-30T15:21:00Z</time>
      </trkpt>
      <trkpt lat="42.99836" lon="3.04711">
        <ele>13</ele>
        <time>2023-12-30T15:21:01Z</time>
      </trkpt>
      <trkpt lat="42.99838" lon="3.04709">
        <ele>13</ele>
        <time>2023-12-30T15:21:02Z</time>
      </trkpt>
      <trkpt lat="42.9984" lon="3.04708">
        <ele>13</ele>
        <time>2023-12-30T15:21:03Z</time>
      </trkpt>
      <trkpt lat="42.99841" lon="3.04708">
        <ele>13</ele>
        <time>2023-12-30T15:21:04Z</time>
      </trkpt>
      <trkpt lat="42.99843" lon="3.04706">
        <ele>13</ele>
        <time>2023-12-30T15:21:05Z</time>
      </trkpt>
      <trkpt lat="42.99845" lon="3.04705">
        <ele>13</ele>
        <time>2023-12-30T15:21:06Z</time>
      </trkpt>
      <trkpt lat="42.99846" lon="3.04703">
        <ele>13</ele>
        <time>2023-12-30T15:21:07Z</time>
      </trkpt>
      <trkpt lat="42.99847" lon="3.04701">
        <ele>13</ele>
        <time>2023-12-30T15:21:08Z</time>
      </trkpt>
      <trkpt lat="42.99848" lon="3.04698">
        <ele>13</ele>
        <time>2023-12-30T15:21:09Z</time>
      </trkpt>
      <trkpt lat="42.99849" lon="3.04696">
        <ele>13</ele>
        <time>2023-12-30T15:21:10Z</time>
      </trkpt>
      <trkpt lat="42.9985" lon="3.04693">
        <ele>13</ele>
        <time>2023-12-30T15:21:11Z</time>
      </trkpt>
      <trkpt lat="42.99851" lon="3.04691">
        <ele>13</ele>
        <time>2023-12-30T15:21:12Z</time>
      </trkpt>
      <trkpt lat="42.9986" lon="3.04675">
        <ele>13.2</ele>
        <time>2023-12-30T15:21:18Z</time>
      </trkpt>
      <trkpt lat="42.99874" lon="3.04653">
        <ele>13</ele>
        <time>2023-12-30T15:21:27Z</time>
      </trkpt>
      <trkpt lat="42.99876" lon="3.04651">
        <ele>13</ele>
        <time>2023-12-30T15:21:28Z</time>
      </trkpt>
      <trkpt lat="42.99877" lon="3.04648">
        <ele>12.8</ele>
        <time>2023-12-30T15:21:29Z</time>
      </trkpt>
      <trkpt lat="42.99879" lon="3.04646">
        <ele>12.8</ele>
        <time>2023-12-30T15:21:30Z</time>
      </trkpt>
      <trkpt lat="42.99881" lon="3.04643">
        <ele>12.8</ele>
        <time>2023-12-30T15:21:31Z</time>
      </trkpt>
      <trkpt lat="42.99882" lon="3.04641">
        <ele>12.8</ele>
        <time>2023-12-30T15:21:32Z</time>
      </trkpt>
      <trkpt lat="42.99891" lon="3.04628">
        <ele>13</ele>
        <time>2023-12-30T15:21:37Z</time>
      </trkpt>
      <trkpt lat="42.99907" lon="3.04604">
        <ele>13.2</ele>
        <time>2023-12-30T15:21:46Z</time>
      </trkpt>
      <trkpt lat="42.99924" lon="3.04578">
        <ele>13</ele>
        <time>2023-12-30T15:21:55Z</time>
      </trkpt>
      <trkpt lat="42.99939" lon="3.04566">
        <ele>13</ele>
        <time>2023-12-30T15:22:02Z</time>
      </trkpt>
      <trkpt lat="42.99941" lon="3.04564">
        <ele>13</ele>
        <time>2023-12-30T15:22:03Z</time>
      </trkpt>
      <trkpt lat="42.99943" lon="3.04563">
        <ele>13</ele>
        <time>2023-12-30T15:22:04Z</time>
      </trkpt>
      <trkpt lat="42.99947" lon="3.0456">
        <ele>13</ele>
        <time>2023-12-30T15:22:06Z</time>
      </trkpt>
      <trkpt lat="42.99949" lon="3.04558">
        <ele>13</ele>
        <time>2023-12-30T15:22:07Z</time>
      </trkpt>
      <trkpt lat="42.99951" lon="3.04556">
        <ele>13</ele>
        <time>2023-12-30T15:22:08Z</time>
      </trkpt>
      <trkpt lat="42.9996" lon="3.0454">
        <ele>13.2</ele>
        <time>2023-12-30T15:22:13Z</time>
      </trkpt>
      <trkpt lat="42.99973" lon="3.04514">
        <ele>13</ele>
        <time>2023-12-30T15:22:21Z</time>
      </trkpt>
      <trkpt lat="42.99975" lon="3.0451">
        <ele>13</ele>
        <time>2023-12-30T15:22:22Z</time>
      </trkpt>
      <trkpt lat="42.99976" lon="3.04507">
        <ele>13</ele>
        <time>2023-12-30T15:22:23Z</time>
      </trkpt>
      <trkpt lat="42.99978" lon="3.04504">
        <ele>13</ele>
        <time>2023-12-30T15:22:24Z</time>
      </trkpt>
      <trkpt lat="42.9998" lon="3.04502">
        <ele>13</ele>
        <time>2023-12-30T15:22:25Z</time>
      </trkpt>
      <trkpt lat="42.99982" lon="3.04498">
        <ele>13</ele>
        <time>2023-12-30T15:22:26Z</time>
      </trkpt>
      <trkpt lat="42.99984" lon="3.04496">
        <ele>13</ele>
        <time>2023-12-30T15:22:27Z</time>
      </trkpt>
      <trkpt lat="42.9999" lon="3.04489">
        <ele>13</ele>
        <time>2023-12-30T15:22:30Z</time>
      </trkpt>
      <trkpt lat="42.99993" lon="3.04486">
        <ele>13</ele>
        <time>2023-12-30T15:22:31Z</time>
      </trkpt>
      <trkpt lat="43.00001" lon="3.04477">
        <ele>13</ele>
        <time>2023-12-30T15:22:35Z</time>
      </trkpt>
      <trkpt lat="43.00004" lon="3.04474">
        <ele>13</ele>
        <time>2023-12-30T15:22:36Z</time>
      </trkpt>
      <trkpt lat="43.00006" lon="3.04472">
        <ele>13</ele>
        <time>2023-12-30T15:22:37Z</time>
      </trkpt>
      <trkpt lat="43.0001" lon="3.04467">
        <ele>13</ele>
        <time>2023-12-30T15:22:39Z</time>
      </trkpt>
      <trkpt lat="43.00028" lon="3.04439">
        <ele>13.4</ele>
        <time>2023-12-30T15:22:48Z</time>
      </trkpt>
      <trkpt lat="43.00043" lon="3.04422">
        <ele>13.4</ele>
        <time>2023-12-30T15:22:55Z</time>
      </trkpt>
      <trkpt lat="43.00045" lon="3.0442">
        <ele>13.4</ele>
        <time>2023-12-30T15:22:56Z</time>
      </trkpt>
      <trkpt lat="43.00048" lon="3.04419">
        <ele>13.4</ele>
        <time>2023-12-30T15:22:57Z</time>
      </trkpt>
      <trkpt lat="43.00051" lon="3.04417">
        <ele>13.4</ele>
        <time>2023-12-30T15:22:58Z</time>
      </trkpt>
      <trkpt lat="43.00053" lon="3.04415">
        <ele>13.4</ele>
        <time>2023-12-30T15:22:59Z</time>
      </trkpt>
      <trkpt lat="43.00069" lon="3.04409">
        <ele>13.4</ele>
        <time>2023-12-30T15:23:04Z</time>
      </trkpt>
      <trkpt lat="43.00097" lon="3.04405">
        <ele>13</ele>
        <time>2023-12-30T15:23:13Z</time>
      </trkpt>
      <trkpt lat="43.001" lon="3.04405">
        <ele>13.2</ele>
        <time>2023-12-30T15:23:14Z</time>
      </trkpt>
      <trkpt lat="43.00103" lon="3.04406">
        <ele>13.2</ele>
        <time>2023-12-30T15:23:15Z</time>
      </trkpt>
      <trkpt lat="43.00105" lon="3.04407">
        <ele>13.2</ele>
        <time>2023-12-30T15:23:16Z</time>
      </trkpt>
      <trkpt lat="43.00108" lon="3.04408">
        <ele>13.2</ele>
        <time>2023-12-30T15:23:17Z</time>
      </trkpt>
      <trkpt lat="43.00114" lon="3.04409">
        <ele>13.2</ele>
        <time>2023-12-30T15:23:19Z</time>
      </trkpt>
      <trkpt lat="43.00117" lon="3.04409">
        <ele>13.2</ele>
        <time>2023-12-30T15:23:20Z</time>
      </trkpt>
      <trkpt lat="43.00125" lon="3.0441">
        <ele>13</ele>
        <time>2023-12-30T15:23:23Z</time>
      </trkpt>
      <trkpt lat="43.00128" lon="3.04411">
        <ele>13</ele>
        <time>2023-12-30T15:23:24Z</time>
      </trkpt>
      <trkpt lat="43.0013" lon="3.04412">
        <ele>13</ele>
        <time>2023-12-30T15:23:25Z</time>
      </trkpt>
      <trkpt lat="43.00133" lon="3.04412">
        <ele>13.2</ele>
        <time>2023-12-30T15:23:26Z</time>
      </trkpt>
      <trkpt lat="43.00136" lon="3.04413">
        <ele>13.2</ele>
        <time>2023-12-30T15:23:27Z</time>
      </trkpt>
      <trkpt lat="43.00139" lon="3.04414">
        <ele>13.2</ele>
        <time>2023-12-30T15:23:28Z</time>
      </trkpt>
      <trkpt lat="43.00147" lon="3.04416">
        <ele>13.2</ele>
        <time>2023-12-30T15:23:31Z</time>
      </trkpt>
      <trkpt lat="43.00172" lon="3.04424">
        <ele>13</ele>
        <time>2023-12-30T15:23:39Z</time>
      </trkpt>
      <trkpt lat="43.00174" lon="3.04425">
        <ele>13.2</ele>
        <time>2023-12-30T15:23:40Z</time>
      </trkpt>
      <trkpt lat="43.00185" lon="3.04428">
        <ele>13.2</ele>
        <time>2023-12-30T15:23:44Z</time>
      </trkpt>
      <trkpt lat="43.00188" lon="3.04429">
        <ele>13.4</ele>
        <time>2023-12-30T15:23:45Z</time>
      </trkpt>
      <trkpt lat="43.00192" lon="3.04431">
        <ele>13.4</ele>
        <time>2023-12-30T15:23:46Z</time>
      </trkpt>
      <trkpt lat="43.00216" lon="3.04437">
        <ele>13.4</ele>
        <time>2023-12-30T15:23:54Z</time>
      </trkpt>
      <trkpt lat="43.00219" lon="3.04437">
        <ele>13.2</ele>
        <time>2023-12-30T15:23:55Z</time>
      </trkpt>
      <trkpt lat="43.00223" lon="3.04437">
        <ele>13.2</ele>
        <time>2023-12-30T15:23:56Z</time>
      </trkpt>
      <trkpt lat="43.00225" lon="3.04438">
        <ele>13.2</ele>
        <time>2023-12-30T15:23:57Z</time>
      </trkpt>
      <trkpt lat="43.00228" lon="3.04438">
        <ele>13.2</ele>
        <time>2023-12-30T15:23:58Z</time>
      </trkpt>
      <trkpt lat="43.00231" lon="3.04438">
        <ele>13.2</ele>
        <time>2023-12-30T15:23:59Z</time>
      </trkpt>
      <trkpt lat="43.00234" lon="3.04439">
        <ele>13.2</ele>
        <time>2023-12-30T15:24:00Z</time>
      </trkpt>
      <trkpt lat="43.00237" lon="3.0444">
        <ele>13.2</ele>
        <time>2023-12-30T15:24:01Z</time>
      </trkpt>
      <trkpt lat="43.00243" lon="3.04441">
        <ele>13.2</ele>
        <time>2023-12-30T15:24:03Z</time>
      </trkpt>
      <trkpt lat="43.00269" lon="3.04445">
        <ele>13.2</ele>
        <time>2023-12-30T15:24:11Z</time>
      </trkpt>
      <trkpt lat="43.00284" lon="3.04448">
        <ele>13.2</ele>
        <time>2023-12-30T15:24:16Z</time>
      </trkpt>
      <trkpt lat="43.00289" lon="3.04448">
        <ele>13.2</ele>
        <time>2023-12-30T15:24:18Z</time>
      </trkpt>
      <trkpt lat="43.00292" lon="3.04449">
        <ele>13.2</ele>
        <time>2023-12-30T15:24:19Z</time>
      </trkpt>
      <trkpt lat="43.00296" lon="3.04449">
        <ele>13.2</ele>
        <time>2023-12-30T15:24:20Z</time>
      </trkpt>
      <trkpt lat="43.00299" lon="3.0445">
        <ele>13.2</ele>
        <time>2023-12-30T15:24:21Z</time>
      </trkpt>
      <trkpt lat="43.00301" lon="3.0445">
        <ele>13.2</ele>
        <time>2023-12-30T15:24:22Z</time>
      </trkpt>
      <trkpt lat="43.00308" lon="3.04451">
        <ele>13.2</ele>
        <time>2023-12-30T15:24:24Z</time>
      </trkpt>
      <trkpt lat="43.00311" lon="3.04451">
        <ele>13.2</ele>
        <time>2023-12-30T15:24:25Z</time>
      </trkpt>
      <trkpt lat="43.00314" lon="3.04452">
        <ele>13.2</ele>
        <time>2023-12-30T15:24:26Z</time>
      </trkpt>
      <trkpt lat="43.00316" lon="3.04452">
        <ele>13</ele>
        <time>2023-12-30T15:24:27Z</time>
      </trkpt>
      <trkpt lat="43.00319" lon="3.04453">
        <ele>13</ele>
        <time>2023-12-30T15:24:28Z</time>
      </trkpt>
      <trkpt lat="43.00324" lon="3.04452">
        <ele>13</ele>
        <time>2023-12-30T15:24:30Z</time>
      </trkpt>
      <trkpt lat="43.0033" lon="3.04453">
        <ele>13</ele>
        <time>2023-12-30T15:24:33Z</time>
      </trkpt>
      <trkpt lat="43.00333" lon="3.04454">
        <ele>13</ele>
        <time>2023-12-30T15:24:34Z</time>
      </trkpt>
      <trkpt lat="43.00335" lon="3.04455">
        <ele>13</ele>
        <time>2023-12-30T15:24:35Z</time>
      </trkpt>
      <trkpt lat="43.00337" lon="3.04456">
        <ele>13</ele>
        <time>2023-12-30T15:24:36Z</time>
      </trkpt>
      <trkpt lat="43.0034" lon="3.04457">
        <ele>13</ele>
        <time>2023-12-30T15:24:37Z</time>
      </trkpt>
      <trkpt lat="43.00343" lon="3.04457">
        <ele>13</ele>
        <time>2023-12-30T15:24:38Z</time>
      </trkpt>
      <trkpt lat="43.00363" lon="3.0446">
        <ele>13</ele>
        <time>2023-12-30T15:24:45Z</time>
      </trkpt>
      <trkpt lat="43.00373" lon="3.04462">
        <ele>13</ele>
        <time>2023-12-30T15:24:49Z</time>
      </trkpt>
      <trkpt lat="43.00376" lon="3.04463">
        <ele>13</ele>
        <time>2023-12-30T15:24:50Z</time>
      </trkpt>
      <trkpt lat="43.00378" lon="3.04464">
        <ele>13</ele>
        <time>2023-12-30T15:24:51Z</time>
      </trkpt>
      <trkpt lat="43.00381" lon="3.04464">
        <ele>13</ele>
        <time>2023-12-30T15:24:52Z</time>
      </trkpt>
      <trkpt lat="43.00387" lon="3.04465">
        <ele>12.8</ele>
        <time>2023-12-30T15:24:54Z</time>
      </trkpt>
      <trkpt lat="43.00423" lon="3.0447">
        <ele>12.8</ele>
        <time>2023-12-30T15:25:06Z</time>
      </trkpt>
      <trkpt lat="43.00444" lon="3.04473">
        <ele>12.8</ele>
        <time>2023-12-30T15:25:13Z</time>
      </trkpt>
      <trkpt lat="43.00447" lon="3.04473">
        <ele>12.8</ele>
        <time>2023-12-30T15:25:14Z</time>
      </trkpt>
      <trkpt lat="43.00454" lon="3.04474">
        <ele>13</ele>
        <time>2023-12-30T15:25:16Z</time>
      </trkpt>
      <trkpt lat="43.00471" lon="3.04473">
        <ele>13</ele>
        <time>2023-12-30T15:25:22Z</time>
      </trkpt>
      <trkpt lat="43.00483" lon="3.04472">
        <ele>13</ele>
        <time>2023-12-30T15:25:26Z</time>
      </trkpt>
      <trkpt lat="43.00486" lon="3.04472">
        <ele>13</ele>
        <time>2023-12-30T15:25:27Z</time>
      </trkpt>
      <trkpt lat="43.00489" lon="3.04472">
        <ele>13</ele>
        <time>2023-12-30T15:25:28Z</time>
      </trkpt>
      <trkpt lat="43.00492" lon="3.04471">
        <ele>13</ele>
        <time>2023-12-30T15:25:29Z</time>
      </trkpt>
      <trkpt lat="43.00495" lon="3.04471">
        <ele>13</ele>
        <time>2023-12-30T15:25:30Z</time>
      </trkpt>
      <trkpt lat="43.00503" lon="3.04468">
        <ele>12.8</ele>
        <time>2023-12-30T15:25:33Z</time>
      </trkpt>
      <trkpt lat="43.00506" lon="3.04468">
        <ele>12.8</ele>
        <time>2023-12-30T15:25:34Z</time>
      </trkpt>
      <trkpt lat="43.00508" lon="3.04467">
        <ele>12.8</ele>
        <time>2023-12-30T15:25:35Z</time>
      </trkpt>
      <trkpt lat="43.00511" lon="3.04466">
        <ele>13</ele>
        <time>2023-12-30T15:25:36Z</time>
      </trkpt>
      <trkpt lat="43.00514" lon="3.04465">
        <ele>13</ele>
        <time>2023-12-30T15:25:37Z</time>
      </trkpt>
      <trkpt lat="43.00523" lon="3.04462">
        <ele>13</ele>
        <time>2023-12-30T15:25:40Z</time>
      </trkpt>
      <trkpt lat="43.00526" lon="3.04461">
        <ele>13</ele>
        <time>2023-12-30T15:25:41Z</time>
      </trkpt>
      <trkpt lat="43.00535" lon="3.04451">
        <ele>13</ele>
        <time>2023-12-30T15:25:45Z</time>
      </trkpt>
      <trkpt lat="43.00536" lon="3.04448">
        <ele>13</ele>
        <time>2023-12-30T15:25:46Z</time>
      </trkpt>
      <trkpt lat="43.00537" lon="3.04444">
        <ele>13</ele>
        <time>2023-12-30T15:25:47Z</time>
      </trkpt>
      <trkpt lat="43.00538" lon="3.04441">
        <ele>13</ele>
        <time>2023-12-30T15:25:48Z</time>
      </trkpt>
      <trkpt lat="43.00538" lon="3.04437">
        <ele>12.8</ele>
        <time>2023-12-30T15:25:49Z</time>
      </trkpt>
      <trkpt lat="43.00539" lon="3.04434">
        <ele>12.8</ele>
        <time>2023-12-30T15:25:50Z</time>
      </trkpt>
      <trkpt lat="43.00539" lon="3.04432">
        <ele>12.8</ele>
        <time>2023-12-30T15:25:51Z</time>
      </trkpt>
      <trkpt lat="43.00539" lon="3.04429">
        <ele>12.8</ele>
        <time>2023-12-30T15:25:52Z</time>
      </trkpt>
      <trkpt lat="43.00539" lon="3.04427">
        <ele>12.8</ele>
        <time>2023-12-30T15:25:53Z</time>
      </trkpt>
      <trkpt lat="43.0054" lon="3.04425">
        <ele>12.8</ele>
        <time>2023-12-30T15:25:54Z</time>
      </trkpt>
      <trkpt lat="43.0054" lon="3.04422">
        <ele>12.8</ele>
        <time>2023-12-30T15:25:55Z</time>
      </trkpt>
      <trkpt lat="43.00541" lon="3.04417">
        <ele>12.8</ele>
        <time>2023-12-30T15:25:57Z</time>
      </trkpt>
      <trkpt lat="43.00542" lon="3.04415">
        <ele>12.8</ele>
        <time>2023-12-30T15:25:58Z</time>
      </trkpt>
      <trkpt lat="43.00542" lon="3.04413">
        <ele>12.8</ele>
        <time>2023-12-30T15:25:59Z</time>
      </trkpt>
      <trkpt lat="43.00542" lon="3.04411">
        <ele>12.8</ele>
        <time>2023-12-30T15:26:00Z</time>
      </trkpt>
      <trkpt lat="43.00542" lon="3.04409">
        <ele>12.8</ele>
        <time>2023-12-30T15:26:01Z</time>
      </trkpt>
      <trkpt lat="43.00543" lon="3.04405">
        <ele>12.8</ele>
        <time>2023-12-30T15:26:03Z</time>
      </trkpt>
      <trkpt lat="43.00543" lon="3.04403">
        <ele>12.6</ele>
        <time>2023-12-30T15:26:04Z</time>
      </trkpt>
      <trkpt lat="43.00543" lon="3.04402">
        <ele>12.6</ele>
        <time>2023-12-30T15:26:05Z</time>
      </trkpt>
      <trkpt lat="43.00543" lon="3.044">
        <ele>12.6</ele>
        <time>2023-12-30T15:26:06Z</time>
      </trkpt>
      <trkpt lat="43.00544" lon="3.04399">
        <ele>12.6</ele>
        <time>2023-12-30T15:26:07Z</time>
      </trkpt>
      <trkpt lat="43.00544" lon="3.04397">
        <ele>12.6</ele>
        <time>2023-12-30T15:26:08Z</time>
      </trkpt>
      <trkpt lat="43.00544" lon="3.04395">
        <ele>12.6</ele>
        <time>2023-12-30T15:26:09Z</time>
      </trkpt>
      <trkpt lat="43.00544" lon="3.04393">
        <ele>12.8</ele>
        <time>2023-12-30T15:26:10Z</time>
      </trkpt>
      <trkpt lat="43.00544" lon="3.04391">
        <ele>12.8</ele>
        <time>2023-12-30T15:26:11Z</time>
      </trkpt>
      <trkpt lat="43.00545" lon="3.04383">
        <ele>12.8</ele>
        <time>2023-12-30T15:26:14Z</time>
      </trkpt>
      <trkpt lat="43.00547" lon="3.04371">
        <ele>12.8</ele>
        <time>2023-12-30T15:26:18Z</time>
      </trkpt>
      <trkpt lat="43.00548" lon="3.04354">
        <ele>12.8</ele>
        <time>2023-12-30T15:26:23Z</time>
      </trkpt>
      <trkpt lat="43.00552" lon="3.04325">
        <ele>13</ele>
        <time>2023-12-30T15:26:32Z</time>
      </trkpt>
      <trkpt lat="43.00552" lon="3.04319">
        <ele>13</ele>
        <time>2023-12-30T15:26:34Z</time>
      </trkpt>
      <trkpt lat="43.00553" lon="3.04316">
        <ele>13</ele>
        <time>2023-12-30T15:26:35Z</time>
      </trkpt>
      <trkpt lat="43.00555" lon="3.04299">
        <ele>13</ele>
        <time>2023-12-30T15:26:40Z</time>
      </trkpt>
      <trkpt lat="43.00558" lon="3.04274">
        <ele>12.8</ele>
        <time>2023-12-30T15:26:47Z</time>
      </trkpt>
      <trkpt lat="43.0056" lon="3.04256">
        <ele>12.8</ele>
        <time>2023-12-30T15:26:52Z</time>
      </trkpt>
      <trkpt lat="43.0056" lon="3.04253">
        <ele>12.8</ele>
        <time>2023-12-30T15:26:53Z</time>
      </trkpt>
      <trkpt lat="43.00561" lon="3.04246">
        <ele>12.8</ele>
        <time>2023-12-30T15:26:55Z</time>
      </trkpt>
      <trkpt lat="43.00562" lon="3.04239">
        <ele>12.8</ele>
        <time>2023-12-30T15:26:57Z</time>
      </trkpt>
      <trkpt lat="43.00567" lon="3.04199">
        <ele>13</ele>
        <time>2023-12-30T15:27:08Z</time>
      </trkpt>
      <trkpt lat="43.00576" lon="3.04172">
        <ele>13</ele>
        <time>2023-12-30T15:27:16Z</time>
      </trkpt>
      <trkpt lat="43.00592" lon="3.04157">
        <ele>13</ele>
        <time>2023-12-30T15:27:23Z</time>
      </trkpt>
      <trkpt lat="43.00595" lon="3.04157">
        <ele>13.2</ele>
        <time>2023-12-30T15:27:24Z</time>
      </trkpt>
      <trkpt lat="43.00597" lon="3.04156">
        <ele>13.2</ele>
        <time>2023-12-30T15:27:25Z</time>
      </trkpt>
      <trkpt lat="43.00605" lon="3.04156">
        <ele>13</ele>
        <time>2023-12-30T15:27:28Z</time>
      </trkpt>
      <trkpt lat="43.00608" lon="3.04155">
        <ele>13</ele>
        <time>2023-12-30T15:27:29Z</time>
      </trkpt>
      <trkpt lat="43.00611" lon="3.04154">
        <ele>13</ele>
        <time>2023-12-30T15:27:30Z</time>
      </trkpt>
      <trkpt lat="43.00614" lon="3.04154">
        <ele>13</ele>
        <time>2023-12-30T15:27:31Z</time>
      </trkpt>
      <trkpt lat="43.00616" lon="3.04154">
        <ele>13</ele>
        <time>2023-12-30T15:27:32Z</time>
      </trkpt>
      <trkpt lat="43.00645" lon="3.0415">
        <ele>13</ele>
        <time>2023-12-30T15:27:41Z</time>
      </trkpt>
      <trkpt lat="43.0066" lon="3.04148">
        <ele>13</ele>
        <time>2023-12-30T15:27:46Z</time>
      </trkpt>
      <trkpt lat="43.00662" lon="3.04148">
        <ele>13</ele>
        <time>2023-12-30T15:27:47Z</time>
      </trkpt>
      <trkpt lat="43.00665" lon="3.04147">
        <ele>13</ele>
        <time>2023-12-30T15:27:48Z</time>
      </trkpt>
      <trkpt lat="43.00668" lon="3.04147">
        <ele>13</ele>
        <time>2023-12-30T15:27:49Z</time>
      </trkpt>
      <trkpt lat="43.0067" lon="3.04146">
        <ele>13</ele>
        <time>2023-12-30T15:27:50Z</time>
      </trkpt>
      <trkpt lat="43.00673" lon="3.04146">
        <ele>13</ele>
        <time>2023-12-30T15:27:51Z</time>
      </trkpt>
      <trkpt lat="43.00699" lon="3.04143">
        <ele>13.2</ele>
        <time>2023-12-30T15:28:00Z</time>
      </trkpt>
      <trkpt lat="43.00725" lon="3.04138">
        <ele>13.4</ele>
        <time>2023-12-30T15:28:09Z</time>
      </trkpt>
      <trkpt lat="43.00728" lon="3.04138">
        <ele>13.4</ele>
        <time>2023-12-30T15:28:10Z</time>
      </trkpt>
      <trkpt lat="43.00742" lon="3.04136">
        <ele>13.4</ele>
        <time>2023-12-30T15:28:15Z</time>
      </trkpt>
      <trkpt lat="43.00744" lon="3.04136">
        <ele>13.4</ele>
        <time>2023-12-30T15:28:16Z</time>
      </trkpt>
      <trkpt lat="43.00747" lon="3.04136">
        <ele>13.4</ele>
        <time>2023-12-30T15:28:17Z</time>
      </trkpt>
      <trkpt lat="43.00749" lon="3.04136">
        <ele>13.4</ele>
        <time>2023-12-30T15:28:18Z</time>
      </trkpt>
      <trkpt lat="43.0075" lon="3.04136">
        <ele>13.4</ele>
        <time>2023-12-30T15:28:19Z</time>
      </trkpt>
      <trkpt lat="43.00752" lon="3.04136">
        <ele>13.4</ele>
        <time>2023-12-30T15:28:20Z</time>
      </trkpt>
      <trkpt lat="43.00753" lon="3.04136">
        <ele>13.4</ele>
        <time>2023-12-30T15:28:21Z</time>
      </trkpt>
      <trkpt lat="43.00755" lon="3.04136">
        <ele>13.4</ele>
        <time>2023-12-30T15:28:22Z</time>
      </trkpt>
      <trkpt lat="43.00757" lon="3.04136">
        <ele>13.2</ele>
        <time>2023-12-30T15:28:24Z</time>
      </trkpt>
      <trkpt lat="43.00759" lon="3.04136">
        <ele>13.2</ele>
        <time>2023-12-30T15:28:25Z</time>
      </trkpt>
      <trkpt lat="43.0076" lon="3.04136">
        <ele>13.2</ele>
        <time>2023-12-30T15:28:26Z</time>
      </trkpt>
      <trkpt lat="43.00761" lon="3.04137">
        <ele>13.2</ele>
        <time>2023-12-30T15:28:27Z</time>
      </trkpt>
      <trkpt lat="43.00763" lon="3.04137">
        <ele>13</ele>
        <time>2023-12-30T15:28:28Z</time>
      </trkpt>
      <trkpt lat="43.00764" lon="3.04137">
        <ele>13</ele>
        <time>2023-12-30T15:28:29Z</time>
      </trkpt>
      <trkpt lat="43.00767" lon="3.04136">
        <ele>13</ele>
        <time>2023-12-30T15:28:30Z</time>
      </trkpt>
      <trkpt lat="43.00769" lon="3.04136">
        <ele>13</ele>
        <time>2023-12-30T15:28:31Z</time>
      </trkpt>
      <trkpt lat="43.00771" lon="3.04135">
        <ele>13</ele>
        <time>2023-12-30T15:28:32Z</time>
      </trkpt>
      <trkpt lat="43.00773" lon="3.04134">
        <ele>13</ele>
        <time>2023-12-30T15:28:33Z</time>
      </trkpt>
      <trkpt lat="43.00786" lon="3.04132">
        <ele>12.8</ele>
        <time>2023-12-30T15:28:38Z</time>
      </trkpt>
      <trkpt lat="43.0079" lon="3.04131">
        <ele>12.8</ele>
        <time>2023-12-30T15:28:40Z</time>
      </trkpt>
      <trkpt lat="43.00793" lon="3.04131">
        <ele>12.8</ele>
        <time>2023-12-30T15:28:41Z</time>
      </trkpt>
      <trkpt lat="43.00796" lon="3.0413">
        <ele>12.8</ele>
        <time>2023-12-30T15:28:42Z</time>
      </trkpt>
      <trkpt lat="43.00804" lon="3.04129">
        <ele>12.8</ele>
        <time>2023-12-30T15:28:45Z</time>
      </trkpt>
      <trkpt lat="43.00822" lon="3.04127">
        <ele>13</ele>
        <time>2023-12-30T15:28:51Z</time>
      </trkpt>
      <trkpt lat="43.00844" lon="3.04124">
        <ele>13</ele>
        <time>2023-12-30T15:28:59Z</time>
      </trkpt>
      <trkpt lat="43.00853" lon="3.04121">
        <ele>13</ele>
        <time>2023-12-30T15:29:02Z</time>
      </trkpt>
      <trkpt lat="43.00855" lon="3.04121">
        <ele>13</ele>
        <time>2023-12-30T15:29:03Z</time>
      </trkpt>
      <trkpt lat="43.00865" lon="3.0412">
        <ele>13</ele>
        <time>2023-12-30T15:29:07Z</time>
      </trkpt>
      <trkpt lat="43.00868" lon="3.04119">
        <ele>13</ele>
        <time>2023-12-30T15:29:08Z</time>
      </trkpt>
      <trkpt lat="43.00871" lon="3.04118">
        <ele>13</ele>
        <time>2023-12-30T15:29:09Z</time>
      </trkpt>
      <trkpt lat="43.00873" lon="3.04118">
        <ele>13.2</ele>
        <time>2023-12-30T15:29:10Z</time>
      </trkpt>
      <trkpt lat="43.00876" lon="3.04117">
        <ele>13.2</ele>
        <time>2023-12-30T15:29:11Z</time>
      </trkpt>
      <trkpt lat="43.009" lon="3.04113">
        <ele>13.2</ele>
        <time>2023-12-30T15:29:19Z</time>
      </trkpt>
      <trkpt lat="43.00926" lon="3.0411">
        <ele>13.4</ele>
        <time>2023-12-30T15:29:28Z</time>
      </trkpt>
      <trkpt lat="43.00929" lon="3.04111">
        <ele>13.4</ele>
        <time>2023-12-30T15:29:29Z</time>
      </trkpt>
      <trkpt lat="43.00931" lon="3.04111">
        <ele>13.2</ele>
        <time>2023-12-30T15:29:30Z</time>
      </trkpt>
      <trkpt lat="43.00934" lon="3.04111">
        <ele>13.2</ele>
        <time>2023-12-30T15:29:31Z</time>
      </trkpt>
      <trkpt lat="43.00946" lon="3.04108">
        <ele>13.2</ele>
        <time>2023-12-30T15:29:35Z</time>
      </trkpt>
      <trkpt lat="43.00949" lon="3.04108">
        <ele>13.2</ele>
        <time>2023-12-30T15:29:36Z</time>
      </trkpt>
      <trkpt lat="43.00973" lon="3.04105">
        <ele>13.2</ele>
        <time>2023-12-30T15:29:45Z</time>
      </trkpt>
      <trkpt lat="43.00976" lon="3.04105">
        <ele>13.2</ele>
        <time>2023-12-30T15:29:46Z</time>
      </trkpt>
      <trkpt lat="43.00979" lon="3.04105">
        <ele>13.2</ele>
        <time>2023-12-30T15:29:47Z</time>
      </trkpt>
      <trkpt lat="43.00981" lon="3.04106">
        <ele>13.2</ele>
        <time>2023-12-30T15:29:48Z</time>
      </trkpt>
      <trkpt lat="43.00983" lon="3.04106">
        <ele>13.2</ele>
        <time>2023-12-30T15:29:49Z</time>
      </trkpt>
      <trkpt lat="43.00985" lon="3.04107">
        <ele>13.2</ele>
        <time>2023-12-30T15:29:50Z</time>
      </trkpt>
      <trkpt lat="43.00987" lon="3.04109">
        <ele>13.2</ele>
        <time>2023-12-30T15:29:51Z</time>
      </trkpt>
      <trkpt lat="43.00988" lon="3.0411">
        <ele>13.2</ele>
        <time>2023-12-30T15:29:52Z</time>
      </trkpt>
      <trkpt lat="43.00989" lon="3.04111">
        <ele>13.4</ele>
        <time>2023-12-30T15:29:53Z</time>
      </trkpt>
      <trkpt lat="43.0099" lon="3.04112">
        <ele>13.4</ele>
        <time>2023-12-30T15:29:54Z</time>
      </trkpt>
      <trkpt lat="43.00992" lon="3.04114">
        <ele>13.4</ele>
        <time>2023-12-30T15:29:55Z</time>
      </trkpt>
      <trkpt lat="43.00995" lon="3.04119">
        <ele>13.8</ele>
        <time>2023-12-30T15:29:58Z</time>
      </trkpt>
      <trkpt lat="43.00995" lon="3.04122">
        <ele>13.8</ele>
        <time>2023-12-30T15:29:59Z</time>
      </trkpt>
      <trkpt lat="43.00996" lon="3.04125">
        <ele>14</ele>
        <time>2023-12-30T15:30:00Z</time>
      </trkpt>
      <trkpt lat="43.00999" lon="3.04129">
        <ele>14</ele>
        <time>2023-12-30T15:30:02Z</time>
      </trkpt>
      <trkpt lat="43.01001" lon="3.0413">
        <ele>14</ele>
        <time>2023-12-30T15:30:03Z</time>
      </trkpt>
      <trkpt lat="43.01004" lon="3.04129">
        <ele>14</ele>
        <time>2023-12-30T15:30:04Z</time>
      </trkpt>
      <trkpt lat="43.01011" lon="3.04114">
        <ele>14</ele>
        <time>2023-12-30T15:30:08Z</time>
      </trkpt>
      <trkpt lat="43.01015" lon="3.04103">
        <ele>13.8</ele>
        <time>2023-12-30T15:30:11Z</time>
      </trkpt>
      <trkpt lat="43.01017" lon="3.041">
        <ele>13.8</ele>
        <time>2023-12-30T15:30:12Z</time>
      </trkpt>
      <trkpt lat="43.01019" lon="3.04098">
        <ele>13.8</ele>
        <time>2023-12-30T15:30:13Z</time>
      </trkpt>
      <trkpt lat="43.01023" lon="3.04095">
        <ele>13.8</ele>
        <time>2023-12-30T15:30:14Z</time>
      </trkpt>
      <trkpt lat="43.01026" lon="3.04094">
        <ele>13.6</ele>
        <time>2023-12-30T15:30:15Z</time>
      </trkpt>
      <trkpt lat="43.01029" lon="3.04094">
        <ele>13.6</ele>
        <time>2023-12-30T15:30:16Z</time>
      </trkpt>
      <trkpt lat="43.01038" lon="3.04092">
        <ele>13.6</ele>
        <time>2023-12-30T15:30:19Z</time>
      </trkpt>
      <trkpt lat="43.01055" lon="3.0409">
        <ele>13.2</ele>
        <time>2023-12-30T15:30:25Z</time>
      </trkpt>
      <trkpt lat="43.01058" lon="3.0409">
        <ele>13.2</ele>
        <time>2023-12-30T15:30:26Z</time>
      </trkpt>
      <trkpt lat="43.0106" lon="3.0409">
        <ele>13.2</ele>
        <time>2023-12-30T15:30:27Z</time>
      </trkpt>
      <trkpt lat="43.01063" lon="3.0409">
        <ele>13.2</ele>
        <time>2023-12-30T15:30:28Z</time>
      </trkpt>
      <trkpt lat="43.01066" lon="3.04089">
        <ele>13.2</ele>
        <time>2023-12-30T15:30:29Z</time>
      </trkpt>
      <trkpt lat="43.01069" lon="3.04089">
        <ele>13.2</ele>
        <time>2023-12-30T15:30:30Z</time>
      </trkpt>
      <trkpt lat="43.01098" lon="3.04081">
        <ele>13.6</ele>
        <time>2023-12-30T15:30:40Z</time>
      </trkpt>
      <trkpt lat="43.01125" lon="3.04063">
        <ele>13.6</ele>
        <time>2023-12-30T15:30:49Z</time>
      </trkpt>
      <trkpt lat="43.01136" lon="3.04054">
        <ele>13.8</ele>
        <time>2023-12-30T15:30:54Z</time>
      </trkpt>
      <trkpt lat="43.01138" lon="3.04052">
        <ele>13.8</ele>
        <time>2023-12-30T15:30:55Z</time>
      </trkpt>
      <trkpt lat="43.0114" lon="3.0405">
        <ele>13.8</ele>
        <time>2023-12-30T15:30:56Z</time>
      </trkpt>
      <trkpt lat="43.01142" lon="3.04048">
        <ele>13.8</ele>
        <time>2023-12-30T15:30:57Z</time>
      </trkpt>
      <trkpt lat="43.01144" lon="3.04046">
        <ele>13.8</ele>
        <time>2023-12-30T15:30:58Z</time>
      </trkpt>
      <trkpt lat="43.01147" lon="3.04044">
        <ele>13.8</ele>
        <time>2023-12-30T15:30:59Z</time>
      </trkpt>
      <trkpt lat="43.01149" lon="3.04042">
        <ele>14</ele>
        <time>2023-12-30T15:31:00Z</time>
      </trkpt>
      <trkpt lat="43.01151" lon="3.0404">
        <ele>14</ele>
        <time>2023-12-30T15:31:01Z</time>
      </trkpt>
      <trkpt lat="43.01164" lon="3.04029">
        <ele>13.8</ele>
        <time>2023-12-30T15:31:06Z</time>
      </trkpt>
      <trkpt lat="43.01172" lon="3.0402">
        <ele>13.8</ele>
        <time>2023-12-30T15:31:10Z</time>
      </trkpt>
      <trkpt lat="43.01182" lon="3.04011">
        <ele>13.8</ele>
        <time>2023-12-30T15:31:14Z</time>
      </trkpt>
      <trkpt lat="43.01208" lon="3.03987">
        <ele>14</ele>
        <time>2023-12-30T15:31:25Z</time>
      </trkpt>
      <trkpt lat="43.01213" lon="3.03983">
        <ele>14</ele>
        <time>2023-12-30T15:31:27Z</time>
      </trkpt>
      <trkpt lat="43.01215" lon="3.03981">
        <ele>14</ele>
        <time>2023-12-30T15:31:28Z</time>
      </trkpt>
      <trkpt lat="43.01217" lon="3.0398">
        <ele>14</ele>
        <time>2023-12-30T15:31:29Z</time>
      </trkpt>
      <trkpt lat="43.01219" lon="3.03977">
        <ele>14</ele>
        <time>2023-12-30T15:31:30Z</time>
      </trkpt>
      <trkpt lat="43.01237" lon="3.03967">
        <ele>14</ele>
        <time>2023-12-30T15:31:37Z</time>
      </trkpt>
      <trkpt lat="43.0126" lon="3.03959">
        <ele>14.2</ele>
        <time>2023-12-30T15:31:45Z</time>
      </trkpt>
      <trkpt lat="43.01271" lon="3.03957">
        <ele>14</ele>
        <time>2023-12-30T15:31:49Z</time>
      </trkpt>
      <trkpt lat="43.01277" lon="3.03957">
        <ele>14</ele>
        <time>2023-12-30T15:31:51Z</time>
      </trkpt>
      <trkpt lat="43.01282" lon="3.03957">
        <ele>14</ele>
        <time>2023-12-30T15:31:53Z</time>
      </trkpt>
      <trkpt lat="43.01285" lon="3.03957">
        <ele>14</ele>
        <time>2023-12-30T15:31:54Z</time>
      </trkpt>
      <trkpt lat="43.01288" lon="3.03957">
        <ele>14</ele>
        <time>2023-12-30T15:31:55Z</time>
      </trkpt>
      <trkpt lat="43.01291" lon="3.03957">
        <ele>14</ele>
        <time>2023-12-30T15:31:56Z</time>
      </trkpt>
      <trkpt lat="43.01293" lon="3.03957">
        <ele>14</ele>
        <time>2023-12-30T15:31:57Z</time>
      </trkpt>
      <trkpt lat="43.01298" lon="3.03957">
        <ele>14</ele>
        <time>2023-12-30T15:31:59Z</time>
      </trkpt>
      <trkpt lat="43.01301" lon="3.03957">
        <ele>14</ele>
        <time>2023-12-30T15:32:00Z</time>
      </trkpt>
      <trkpt lat="43.01303" lon="3.03957">
        <ele>14</ele>
        <time>2023-12-30T15:32:01Z</time>
      </trkpt>
      <trkpt lat="43.01305" lon="3.03957">
        <ele>14</ele>
        <time>2023-12-30T15:32:02Z</time>
      </trkpt>
      <trkpt lat="43.01307" lon="3.03957">
        <ele>14</ele>
        <time>2023-12-30T15:32:03Z</time>
      </trkpt>
      <trkpt lat="43.01309" lon="3.03957">
        <ele>14</ele>
        <time>2023-12-30T15:32:04Z</time>
      </trkpt>
      <trkpt lat="43.01311" lon="3.03958">
        <ele>14</ele>
        <time>2023-12-30T15:32:05Z</time>
      </trkpt>
      <trkpt lat="43.01313" lon="3.03958">
        <ele>14</ele>
        <time>2023-12-30T15:32:06Z</time>
      </trkpt>
      <trkpt lat="43.01315" lon="3.03957">
        <ele>14</ele>
        <time>2023-12-30T15:32:07Z</time>
      </trkpt>
      <trkpt lat="43.01317" lon="3.03958">
        <ele>14</ele>
        <time>2023-12-30T15:32:08Z</time>
      </trkpt>
      <trkpt lat="43.01319" lon="3.03958">
        <ele>13.8</ele>
        <time>2023-12-30T15:32:09Z</time>
      </trkpt>
      <trkpt lat="43.01321" lon="3.03958">
        <ele>13.8</ele>
        <time>2023-12-30T15:32:10Z</time>
      </trkpt>
      <trkpt lat="43.01323" lon="3.03958">
        <ele>13.8</ele>
        <time>2023-12-30T15:32:11Z</time>
      </trkpt>
      <trkpt lat="43.01325" lon="3.03958">
        <ele>13.8</ele>
        <time>2023-12-30T15:32:12Z</time>
      </trkpt>
      <trkpt lat="43.01327" lon="3.03959">
        <ele>13.8</ele>
        <time>2023-12-30T15:32:13Z</time>
      </trkpt>
      <trkpt lat="43.01329" lon="3.03959">
        <ele>13.8</ele>
        <time>2023-12-30T15:32:14Z</time>
      </trkpt>
      <trkpt lat="43.01331" lon="3.03959">
        <ele>13.8</ele>
        <time>2023-12-30T15:32:15Z</time>
      </trkpt>
      <trkpt lat="43.01342" lon="3.03965">
        <ele>13.8</ele>
        <time>2023-12-30T15:32:21Z</time>
      </trkpt>
      <trkpt lat="43.0136" lon="3.03978">
        <ele>13.8</ele>
        <time>2023-12-30T15:32:29Z</time>
      </trkpt>
      <trkpt lat="43.01363" lon="3.03978">
        <ele>13.8</ele>
        <time>2023-12-30T15:32:30Z</time>
      </trkpt>
      <trkpt lat="43.01365" lon="3.03977">
        <ele>13.8</ele>
        <time>2023-12-30T15:32:31Z</time>
      </trkpt>
      <trkpt lat="43.01367" lon="3.03977">
        <ele>13.8</ele>
        <time>2023-12-30T15:32:32Z</time>
      </trkpt>
      <trkpt lat="43.0137" lon="3.03976">
        <ele>13.8</ele>
        <time>2023-12-30T15:32:33Z</time>
      </trkpt>
      <trkpt lat="43.01374" lon="3.03973">
        <ele>13.6</ele>
        <time>2023-12-30T15:32:35Z</time>
      </trkpt>
      <trkpt lat="43.01376" lon="3.03971">
        <ele>13.6</ele>
        <time>2023-12-30T15:32:36Z</time>
      </trkpt>
      <trkpt lat="43.01378" lon="3.03969">
        <ele>13.6</ele>
        <time>2023-12-30T15:32:37Z</time>
      </trkpt>
      <trkpt lat="43.01381" lon="3.03968">
        <ele>13.4</ele>
        <time>2023-12-30T15:32:38Z</time>
      </trkpt>
      <trkpt lat="43.01393" lon="3.03964">
        <ele>13.4</ele>
        <time>2023-12-30T15:32:42Z</time>
      </trkpt>
      <trkpt lat="43.01414" lon="3.03963">
        <ele>13.8</ele>
        <time>2023-12-30T15:32:48Z</time>
      </trkpt>
      <trkpt lat="43.01431" lon="3.03964">
        <ele>13.8</ele>
        <time>2023-12-30T15:32:53Z</time>
      </trkpt>
      <trkpt lat="43.0144" lon="3.03964">
        <ele>14</ele>
        <time>2023-12-30T15:32:56Z</time>
      </trkpt>
      <trkpt lat="43.01443" lon="3.03965">
        <ele>13.8</ele>
        <time>2023-12-30T15:32:57Z</time>
      </trkpt>
      <trkpt lat="43.01445" lon="3.03965">
        <ele>14</ele>
        <time>2023-12-30T15:32:58Z</time>
      </trkpt>
      <trkpt lat="43.01447" lon="3.03965">
        <ele>13.8</ele>
        <time>2023-12-30T15:32:59Z</time>
      </trkpt>
      <trkpt lat="43.0145" lon="3.03966">
        <ele>13.8</ele>
        <time>2023-12-30T15:33:00Z</time>
      </trkpt>
      <trkpt lat="43.01452" lon="3.03966">
        <ele>13.8</ele>
        <time>2023-12-30T15:33:01Z</time>
      </trkpt>
      <trkpt lat="43.01471" lon="3.03969">
        <ele>14</ele>
        <time>2023-12-30T15:33:07Z</time>
      </trkpt>
      <trkpt lat="43.01496" lon="3.03976">
        <ele>14.2</ele>
        <time>2023-12-30T15:33:15Z</time>
      </trkpt>
      <trkpt lat="43.01527" lon="3.03986">
        <ele>14.2</ele>
        <time>2023-12-30T15:33:25Z</time>
      </trkpt>
      <trkpt lat="43.01533" lon="3.03988">
        <ele>14.2</ele>
        <time>2023-12-30T15:33:27Z</time>
      </trkpt>
      <trkpt lat="43.01535" lon="3.03989">
        <ele>14.2</ele>
        <time>2023-12-30T15:33:28Z</time>
      </trkpt>
      <trkpt lat="43.01538" lon="3.03989">
        <ele>14.2</ele>
        <time>2023-12-30T15:33:29Z</time>
      </trkpt>
      <trkpt lat="43.01541" lon="3.0399">
        <ele>14.2</ele>
        <time>2023-12-30T15:33:30Z</time>
      </trkpt>
      <trkpt lat="43.01544" lon="3.0399">
        <ele>14.2</ele>
        <time>2023-12-30T15:33:31Z</time>
      </trkpt>
      <trkpt lat="43.01547" lon="3.0399">
        <ele>14.2</ele>
        <time>2023-12-30T15:33:32Z</time>
      </trkpt>
      <trkpt lat="43.01549" lon="3.0399">
        <ele>14.2</ele>
        <time>2023-12-30T15:33:33Z</time>
      </trkpt>
      <trkpt lat="43.01552" lon="3.0399">
        <ele>14.2</ele>
        <time>2023-12-30T15:33:34Z</time>
      </trkpt>
      <trkpt lat="43.01555" lon="3.0399">
        <ele>14.2</ele>
        <time>2023-12-30T15:33:35Z</time>
      </trkpt>
      <trkpt lat="43.01558" lon="3.03991">
        <ele>14.4</ele>
        <time>2023-12-30T15:33:36Z</time>
      </trkpt>
      <trkpt lat="43.01561" lon="3.03991">
        <ele>14.4</ele>
        <time>2023-12-30T15:33:37Z</time>
      </trkpt>
      <trkpt lat="43.01564" lon="3.03991">
        <ele>14.4</ele>
        <time>2023-12-30T15:33:38Z</time>
      </trkpt>
      <trkpt lat="43.01582" lon="3.0399">
        <ele>14.4</ele>
        <time>2023-12-30T15:33:44Z</time>
      </trkpt>
      <trkpt lat="43.01598" lon="3.03989">
        <ele>14.4</ele>
        <time>2023-12-30T15:33:50Z</time>
      </trkpt>
      <trkpt lat="43.01601" lon="3.03989">
        <ele>14.4</ele>
        <time>2023-12-30T15:33:51Z</time>
      </trkpt>
      <trkpt lat="43.01616" lon="3.03988">
        <ele>14.6</ele>
        <time>2023-12-30T15:33:56Z</time>
      </trkpt>
      <trkpt lat="43.01654" lon="3.03985">
        <ele>14.6</ele>
        <time>2023-12-30T15:34:08Z</time>
      </trkpt>
      <trkpt lat="43.01689" lon="3.03982">
        <ele>14.6</ele>
        <time>2023-12-30T15:34:19Z</time>
      </trkpt>
      <trkpt lat="43.01726" lon="3.03981">
        <ele>14.6</ele>
        <time>2023-12-30T15:34:30Z</time>
      </trkpt>
      <trkpt lat="43.01734" lon="3.0398">
        <ele>14.4</ele>
        <time>2023-12-30T15:34:32Z</time>
      </trkpt>
      <trkpt lat="43.01758" lon="3.03979">
        <ele>14.4</ele>
        <time>2023-12-30T15:34:39Z</time>
      </trkpt>
      <trkpt lat="43.01775" lon="3.03977">
        <ele>14.6</ele>
        <time>2023-12-30T15:34:44Z</time>
      </trkpt>
      <trkpt lat="43.01783" lon="3.03977">
        <ele>14.6</ele>
        <time>2023-12-30T15:34:46Z</time>
      </trkpt>
      <trkpt lat="43.01786" lon="3.03977">
        <ele>14.6</ele>
        <time>2023-12-30T15:34:47Z</time>
      </trkpt>
      <trkpt lat="43.01797" lon="3.03975">
        <ele>14.6</ele>
        <time>2023-12-30T15:34:50Z</time>
      </trkpt>
      <trkpt lat="43.0182" lon="3.03973">
        <ele>14.6</ele>
        <time>2023-12-30T15:34:57Z</time>
      </trkpt>
      <trkpt lat="43.01823" lon="3.03972">
        <ele>14.6</ele>
        <time>2023-12-30T15:34:58Z</time>
      </trkpt>
      <trkpt lat="43.01826" lon="3.03972">
        <ele>14.6</ele>
        <time>2023-12-30T15:34:59Z</time>
      </trkpt>
      <trkpt lat="43.0183" lon="3.03972">
        <ele>14.6</ele>
        <time>2023-12-30T15:35:00Z</time>
      </trkpt>
      <trkpt lat="43.01844" lon="3.03973">
        <ele>14.8</ele>
        <time>2023-12-30T15:35:04Z</time>
      </trkpt>
      <trkpt lat="43.01881" lon="3.03976">
        <ele>14.8</ele>
        <time>2023-12-30T15:35:15Z</time>
      </trkpt>
      <trkpt lat="43.01901" lon="3.03978">
        <ele>14.8</ele>
        <time>2023-12-30T15:35:21Z</time>
      </trkpt>
      <trkpt lat="43.01903" lon="3.03978">
        <ele>14.8</ele>
        <time>2023-12-30T15:35:22Z</time>
      </trkpt>
      <trkpt lat="43.01906" lon="3.03978">
        <ele>14.8</ele>
        <time>2023-12-30T15:35:23Z</time>
      </trkpt>
      <trkpt lat="43.0191" lon="3.03978">
        <ele>14.8</ele>
        <time>2023-12-30T15:35:24Z</time>
      </trkpt>
      <trkpt lat="43.01921" lon="3.0398">
        <ele>14.8</ele>
        <time>2023-12-30T15:35:28Z</time>
      </trkpt>
      <trkpt lat="43.01924" lon="3.0398">
        <ele>14.8</ele>
        <time>2023-12-30T15:35:29Z</time>
      </trkpt>
      <trkpt lat="43.01928" lon="3.0398">
        <ele>14.8</ele>
        <time>2023-12-30T15:35:30Z</time>
      </trkpt>
      <trkpt lat="43.01933" lon="3.0398">
        <ele>14.8</ele>
        <time>2023-12-30T15:35:32Z</time>
      </trkpt>
      <trkpt lat="43.01967" lon="3.03982">
        <ele>14.8</ele>
        <time>2023-12-30T15:35:43Z</time>
      </trkpt>
      <trkpt lat="43.01971" lon="3.03982">
        <ele>14.8</ele>
        <time>2023-12-30T15:35:45Z</time>
      </trkpt>
      <trkpt lat="43.01977" lon="3.03983">
        <ele>14.8</ele>
        <time>2023-12-30T15:35:47Z</time>
      </trkpt>
      <trkpt lat="43.01979" lon="3.03983">
        <ele>14.8</ele>
        <time>2023-12-30T15:35:48Z</time>
      </trkpt>
      <trkpt lat="43.01982" lon="3.03983">
        <ele>14.6</ele>
        <time>2023-12-30T15:35:49Z</time>
      </trkpt>
      <trkpt lat="43.01984" lon="3.03984">
        <ele>14.6</ele>
        <time>2023-12-30T15:35:50Z</time>
      </trkpt>
      <trkpt lat="43.01986" lon="3.03984">
        <ele>14.6</ele>
        <time>2023-12-30T15:35:51Z</time>
      </trkpt>
      <trkpt lat="43.01989" lon="3.03984">
        <ele>14.6</ele>
        <time>2023-12-30T15:35:52Z</time>
      </trkpt>
      <trkpt lat="43.01991" lon="3.03984">
        <ele>14.6</ele>
        <time>2023-12-30T15:35:53Z</time>
      </trkpt>
      <trkpt lat="43.01993" lon="3.03985">
        <ele>14.6</ele>
        <time>2023-12-30T15:35:54Z</time>
      </trkpt>
      <trkpt lat="43.01995" lon="3.03985">
        <ele>14.6</ele>
        <time>2023-12-30T15:35:55Z</time>
      </trkpt>
      <trkpt lat="43.01997" lon="3.03984">
        <ele>14.6</ele>
        <time>2023-12-30T15:35:56Z</time>
      </trkpt>
      <trkpt lat="43.01999" lon="3.03985">
        <ele>14.6</ele>
        <time>2023-12-30T15:35:57Z</time>
      </trkpt>
      <trkpt lat="43.02001" lon="3.03985">
        <ele>14.4</ele>
        <time>2023-12-30T15:35:58Z</time>
      </trkpt>
      <trkpt lat="43.02003" lon="3.03985">
        <ele>14.4</ele>
        <time>2023-12-30T15:35:59Z</time>
      </trkpt>
      <trkpt lat="43.02005" lon="3.03985">
        <ele>14.4</ele>
        <time>2023-12-30T15:36:00Z</time>
      </trkpt>
      <trkpt lat="43.02006" lon="3.03986">
        <ele>14.4</ele>
        <time>2023-12-30T15:36:01Z</time>
      </trkpt>
      <trkpt lat="43.02009" lon="3.03986">
        <ele>14.4</ele>
        <time>2023-12-30T15:36:02Z</time>
      </trkpt>
      <trkpt lat="43.0201" lon="3.03986">
        <ele>14.4</ele>
        <time>2023-12-30T15:36:03Z</time>
      </trkpt>
      <trkpt lat="43.0201" lon="3.03986">
        <ele>14.4</ele>
        <time>2023-12-30T15:36:04Z</time>
      </trkpt>
      <trkpt lat="43.0201" lon="3.03986">
        <ele>14.4</ele>
        <time>2023-12-30T15:36:05Z</time>
      </trkpt>
      <trkpt lat="43.02021" lon="3.03985">
        <ele>13.8</ele>
        <time>2023-12-30T15:37:03Z</time>
      </trkpt>
      <trkpt lat="43.02024" lon="3.03984">
        <ele>13.8</ele>
        <time>2023-12-30T15:37:04Z</time>
      </trkpt>
      <trkpt lat="43.02026" lon="3.03982">
        <ele>13.8</ele>
        <time>2023-12-30T15:37:05Z</time>
      </trkpt>
      <trkpt lat="43.02027" lon="3.0398">
        <ele>13.8</ele>
        <time>2023-12-30T15:37:06Z</time>
      </trkpt>
      <trkpt lat="43.02028" lon="3.03978">
        <ele>13.8</ele>
        <time>2023-12-30T15:37:07Z</time>
      </trkpt>
      <trkpt lat="43.02029" lon="3.03975">
        <ele>13.6</ele>
        <time>2023-12-30T15:37:08Z</time>
      </trkpt>
      <trkpt lat="43.0203" lon="3.03972">
        <ele>13.6</ele>
        <time>2023-12-30T15:37:09Z</time>
      </trkpt>
      <trkpt lat="43.0203" lon="3.0397">
        <ele>13.6</ele>
        <time>2023-12-30T15:37:10Z</time>
      </trkpt>
      <trkpt lat="43.0203" lon="3.03968">
        <ele>13.6</ele>
        <time>2023-12-30T15:37:11Z</time>
      </trkpt>
      <trkpt lat="43.0203" lon="3.03965">
        <ele>13.6</ele>
        <time>2023-12-30T15:37:12Z</time>
      </trkpt>
      <trkpt lat="43.02029" lon="3.03963">
        <ele>13.6</ele>
        <time>2023-12-30T15:37:13Z</time>
      </trkpt>
      <trkpt lat="43.02029" lon="3.0396">
        <ele>13.6</ele>
        <time>2023-12-30T15:37:14Z</time>
      </trkpt>
      <trkpt lat="43.0203" lon="3.03958">
        <ele>13.6</ele>
        <time>2023-12-30T15:37:15Z</time>
      </trkpt>
      <trkpt lat="43.0203" lon="3.03956">
        <ele>13.6</ele>
        <time>2023-12-30T15:37:16Z</time>
      </trkpt>
      <trkpt lat="43.0203" lon="3.03953">
        <ele>13.6</ele>
        <time>2023-12-30T15:37:17Z</time>
      </trkpt>
      <trkpt lat="43.02031" lon="3.03951">
        <ele>13.6</ele>
        <time>2023-12-30T15:37:18Z</time>
      </trkpt>
      <trkpt lat="43.02032" lon="3.0395">
        <ele>13.8</ele>
        <time>2023-12-30T15:37:19Z</time>
      </trkpt>
      <trkpt lat="43.02032" lon="3.03949">
        <ele>13.8</ele>
        <time>2023-12-30T15:37:20Z</time>
      </trkpt>
      <trkpt lat="43.02033" lon="3.03948">
        <ele>13.8</ele>
        <time>2023-12-30T15:37:21Z</time>
      </trkpt>
      <trkpt lat="43.02034" lon="3.03945">
        <ele>13.8</ele>
        <time>2023-12-30T15:37:23Z</time>
      </trkpt>
      <trkpt lat="43.02035" lon="3.03944">
        <ele>13.8</ele>
        <time>2023-12-30T15:37:24Z</time>
      </trkpt>
      <trkpt lat="43.02035" lon="3.03943">
        <ele>14</ele>
        <time>2023-12-30T15:37:25Z</time>
      </trkpt>
      <trkpt lat="43.02036" lon="3.03943">
        <ele>14</ele>
        <time>2023-12-30T15:37:26Z</time>
      </trkpt>
      <trkpt lat="43.02037" lon="3.03942">
        <ele>14</ele>
        <time>2023-12-30T15:37:27Z</time>
      </trkpt>
      <trkpt lat="43.02038" lon="3.03942">
        <ele>14.2</ele>
        <time>2023-12-30T15:37:28Z</time>
      </trkpt>
      <trkpt lat="43.02039" lon="3.03942">
        <ele>14.2</ele>
        <time>2023-12-30T15:37:29Z</time>
      </trkpt>
      <trkpt lat="43.0204" lon="3.03942">
        <ele>14.2</ele>
        <time>2023-12-30T15:37:30Z</time>
      </trkpt>
      <trkpt lat="43.02041" lon="3.03941">
        <ele>14.2</ele>
        <time>2023-12-30T15:37:31Z</time>
      </trkpt>
      <trkpt lat="43.02042" lon="3.03941">
        <ele>14.2</ele>
        <time>2023-12-30T15:37:32Z</time>
      </trkpt>
      <trkpt lat="43.02042" lon="3.03941">
        <ele>14.2</ele>
        <time>2023-12-30T15:37:33Z</time>
      </trkpt>
      <trkpt lat="43.02042" lon="3.03941">
        <ele>14.2</ele>
        <time>2023-12-30T15:37:34Z</time>
      </trkpt>
      <trkpt lat="43.02042" lon="3.03941">
        <ele>14.4</ele>
        <time>2023-12-30T15:37:35Z</time>
      </trkpt>
      <trkpt lat="43.02043" lon="3.03942">
        <ele>14.8</ele>
        <time>2023-12-30T15:38:35Z</time>
      </trkpt>
      <trkpt lat="43.02048" lon="3.03942">
        <ele>14.6</ele>
        <time>2023-12-30T15:38:37Z</time>
      </trkpt>
      <trkpt lat="43.02063" lon="3.0394">
        <ele>14.8</ele>
        <time>2023-12-30T15:38:42Z</time>
      </trkpt>
      <trkpt lat="43.02065" lon="3.0394">
        <ele>14.8</ele>
        <time>2023-12-30T15:38:43Z</time>
      </trkpt>
      <trkpt lat="43.02067" lon="3.03941">
        <ele>14.8</ele>
        <time>2023-12-30T15:38:44Z</time>
      </trkpt>
      <trkpt lat="43.02087" lon="3.03944">
        <ele>15</ele>
        <time>2023-12-30T15:38:52Z</time>
      </trkpt>
      <trkpt lat="43.02089" lon="3.03943">
        <ele>15</ele>
        <time>2023-12-30T15:38:53Z</time>
      </trkpt>
      <trkpt lat="43.02091" lon="3.03944">
        <ele>15</ele>
        <time>2023-12-30T15:38:54Z</time>
      </trkpt>
      <trkpt lat="43.02094" lon="3.03944">
        <ele>15</ele>
        <time>2023-12-30T15:38:55Z</time>
      </trkpt>
      <trkpt lat="43.02096" lon="3.03944">
        <ele>15</ele>
        <time>2023-12-30T15:38:56Z</time>
      </trkpt>
      <trkpt lat="43.02104" lon="3.03945">
        <ele>15</ele>
        <time>2023-12-30T15:38:59Z</time>
      </trkpt>
      <trkpt lat="43.02106" lon="3.03945">
        <ele>15</ele>
        <time>2023-12-30T15:39:00Z</time>
      </trkpt>
      <trkpt lat="43.02109" lon="3.03944">
        <ele>15</ele>
        <time>2023-12-30T15:39:01Z</time>
      </trkpt>
      <trkpt lat="43.02114" lon="3.03944">
        <ele>15</ele>
        <time>2023-12-30T15:39:03Z</time>
      </trkpt>
      <trkpt lat="43.02116" lon="3.03944">
        <ele>15</ele>
        <time>2023-12-30T15:39:04Z</time>
      </trkpt>
      <trkpt lat="43.02118" lon="3.03944">
        <ele>15</ele>
        <time>2023-12-30T15:39:05Z</time>
      </trkpt>
      <trkpt lat="43.02121" lon="3.03943">
        <ele>15</ele>
        <time>2023-12-30T15:39:06Z</time>
      </trkpt>
      <trkpt lat="43.02122" lon="3.03943">
        <ele>15</ele>
        <time>2023-12-30T15:39:07Z</time>
      </trkpt>
      <trkpt lat="43.02124" lon="3.03943">
        <ele>15</ele>
        <time>2023-12-30T15:39:08Z</time>
      </trkpt>
      <trkpt lat="43.02126" lon="3.03943">
        <ele>15</ele>
        <time>2023-12-30T15:39:09Z</time>
      </trkpt>
      <trkpt lat="43.02128" lon="3.03944">
        <ele>15</ele>
        <time>2023-12-30T15:39:10Z</time>
      </trkpt>
      <trkpt lat="43.02129" lon="3.03945">
        <ele>15</ele>
        <time>2023-12-30T15:39:11Z</time>
      </trkpt>
      <trkpt lat="43.02129" lon="3.03948">
        <ele>15</ele>
        <time>2023-12-30T15:39:12Z</time>
      </trkpt>
      <trkpt lat="43.02129" lon="3.03951">
        <ele>15.2</ele>
        <time>2023-12-30T15:39:13Z</time>
      </trkpt>
      <trkpt lat="43.02122" lon="3.03979">
        <ele>14.6</ele>
        <time>2023-12-30T15:39:22Z</time>
      </trkpt>
      <trkpt lat="43.02114" lon="3.04005">
        <ele>13.8</ele>
        <time>2023-12-30T15:39:30Z</time>
      </trkpt>
      <trkpt lat="43.02112" lon="3.04009">
        <ele>13.8</ele>
        <time>2023-12-30T15:39:32Z</time>
      </trkpt>
      <trkpt lat="43.02111" lon="3.04012">
        <ele>13.8</ele>
        <time>2023-12-30T15:39:33Z</time>
      </trkpt>
      <trkpt lat="43.0211" lon="3.04015">
        <ele>13.6</ele>
        <time>2023-12-30T15:39:34Z</time>
      </trkpt>
      <trkpt lat="43.02109" lon="3.04018">
        <ele>13.6</ele>
        <time>2023-12-30T15:39:35Z</time>
      </trkpt>
      <trkpt lat="43.02109" lon="3.0402">
        <ele>14</ele>
        <time>2023-12-30T15:39:36Z</time>
      </trkpt>
      <trkpt lat="43.02108" lon="3.04023">
        <ele>14</ele>
        <time>2023-12-30T15:39:37Z</time>
      </trkpt>
      <trkpt lat="43.02107" lon="3.04025">
        <ele>14</ele>
        <time>2023-12-30T15:39:38Z</time>
      </trkpt>
      <trkpt lat="43.02107" lon="3.04027">
        <ele>14</ele>
        <time>2023-12-30T15:39:39Z</time>
      </trkpt>
      <trkpt lat="43.02106" lon="3.0403">
        <ele>14</ele>
        <time>2023-12-30T15:39:40Z</time>
      </trkpt>
      <trkpt lat="43.02105" lon="3.04033">
        <ele>14.2</ele>
        <time>2023-12-30T15:39:41Z</time>
      </trkpt>
      <trkpt lat="43.02104" lon="3.04036">
        <ele>14.2</ele>
        <time>2023-12-30T15:39:42Z</time>
      </trkpt>
      <trkpt lat="43.02103" lon="3.04041">
        <ele>14.2</ele>
        <time>2023-12-30T15:39:44Z</time>
      </trkpt>
      <trkpt lat="43.02102" lon="3.04044">
        <ele>14.2</ele>
        <time>2023-12-30T15:39:45Z</time>
      </trkpt>
      <trkpt lat="43.02097" lon="3.04062">
        <ele>13.8</ele>
        <time>2023-12-30T15:39:51Z</time>
      </trkpt>
      <trkpt lat="43.02095" lon="3.04072">
        <ele>13.8</ele>
        <time>2023-12-30T15:39:55Z</time>
      </trkpt>
      <trkpt lat="43.02094" lon="3.04075">
        <ele>13.8</ele>
        <time>2023-12-30T15:39:56Z</time>
      </trkpt>
      <trkpt lat="43.02093" lon="3.04078">
        <ele>13.8</ele>
        <time>2023-12-30T15:39:57Z</time>
      </trkpt>
      <trkpt lat="43.02093" lon="3.0408">
        <ele>13.6</ele>
        <time>2023-12-30T15:39:58Z</time>
      </trkpt>
      <trkpt lat="43.02093" lon="3.04082">
        <ele>13.6</ele>
        <time>2023-12-30T15:39:59Z</time>
      </trkpt>
      <trkpt lat="43.02094" lon="3.04085">
        <ele>13.6</ele>
        <time>2023-12-30T15:40:00Z</time>
      </trkpt>
      <trkpt lat="43.02095" lon="3.04087">
        <ele>13.6</ele>
        <time>2023-12-30T15:40:01Z</time>
      </trkpt>
      <trkpt lat="43.02096" lon="3.0409">
        <ele>13.4</ele>
        <time>2023-12-30T15:40:02Z</time>
      </trkpt>
      <trkpt lat="43.02097" lon="3.04092">
        <ele>13.4</ele>
        <time>2023-12-30T15:40:03Z</time>
      </trkpt>
      <trkpt lat="43.02102" lon="3.04097">
        <ele>13.4</ele>
        <time>2023-12-30T15:40:06Z</time>
      </trkpt>
      <trkpt lat="43.02104" lon="3.04099">
        <ele>13.6</ele>
        <time>2023-12-30T15:40:07Z</time>
      </trkpt>
      <trkpt lat="43.02106" lon="3.041">
        <ele>13.6</ele>
        <time>2023-12-30T15:40:08Z</time>
      </trkpt>
      <trkpt lat="43.02121" lon="3.0411">
        <ele>13.6</ele>
        <time>2023-12-30T15:40:16Z</time>
      </trkpt>
      <trkpt lat="43.02122" lon="3.04111">
        <ele>13.6</ele>
        <time>2023-12-30T15:40:17Z</time>
      </trkpt>
      <trkpt lat="43.02124" lon="3.04112">
        <ele>13.6</ele>
        <time>2023-12-30T15:40:18Z</time>
      </trkpt>
      <trkpt lat="43.02125" lon="3.04113">
        <ele>13.6</ele>
        <time>2023-12-30T15:40:19Z</time>
      </trkpt>
      <trkpt lat="43.02126" lon="3.04115">
        <ele>13.6</ele>
        <time>2023-12-30T15:40:20Z</time>
      </trkpt>
      <trkpt lat="43.02127" lon="3.04116">
        <ele>13.6</ele>
        <time>2023-12-30T15:40:21Z</time>
      </trkpt>
      <trkpt lat="43.02129" lon="3.04117">
        <ele>13.6</ele>
        <time>2023-12-30T15:40:22Z</time>
      </trkpt>
      <trkpt lat="43.0213" lon="3.04118">
        <ele>13.6</ele>
        <time>2023-12-30T15:40:23Z</time>
      </trkpt>
      <trkpt lat="43.02132" lon="3.04119">
        <ele>13.6</ele>
        <time>2023-12-30T15:40:24Z</time>
      </trkpt>
      <trkpt lat="43.02135" lon="3.04121">
        <ele>13.6</ele>
        <time>2023-12-30T15:40:26Z</time>
      </trkpt>
      <trkpt lat="43.02136" lon="3.04122">
        <ele>13.6</ele>
        <time>2023-12-30T15:40:27Z</time>
      </trkpt>
      <trkpt lat="43.0215" lon="3.04132">
        <ele>13.6</ele>
        <time>2023-12-30T15:40:35Z</time>
      </trkpt>
      <trkpt lat="43.02157" lon="3.04137">
        <ele>13.6</ele>
        <time>2023-12-30T15:40:40Z</time>
      </trkpt>
      <trkpt lat="43.02158" lon="3.04138">
        <ele>13.6</ele>
        <time>2023-12-30T15:40:41Z</time>
      </trkpt>
      <trkpt lat="43.0216" lon="3.04139">
        <ele>13.6</ele>
        <time>2023-12-30T15:40:42Z</time>
      </trkpt>
      <trkpt lat="43.02161" lon="3.04141">
        <ele>13.6</ele>
        <time>2023-12-30T15:40:43Z</time>
      </trkpt>
      <trkpt lat="43.02163" lon="3.04142">
        <ele>13.6</ele>
        <time>2023-12-30T15:40:44Z</time>
      </trkpt>
      <trkpt lat="43.02166" lon="3.04143">
        <ele>13.8</ele>
        <time>2023-12-30T15:40:46Z</time>
      </trkpt>
      <trkpt lat="43.02172" lon="3.04146">
        <ele>13.8</ele>
        <time>2023-12-30T15:40:49Z</time>
      </trkpt>
      <trkpt lat="43.02173" lon="3.04147">
        <ele>13.8</ele>
        <time>2023-12-30T15:40:50Z</time>
      </trkpt>
      <trkpt lat="43.02174" lon="3.04148">
        <ele>13.6</ele>
        <time>2023-12-30T15:40:51Z</time>
      </trkpt>
      <trkpt lat="43.02179" lon="3.04152">
        <ele>13.8</ele>
        <time>2023-12-30T15:40:54Z</time>
      </trkpt>
      <trkpt lat="43.0218" lon="3.04153">
        <ele>13.8</ele>
        <time>2023-12-30T15:40:55Z</time>
      </trkpt>
      <trkpt lat="43.02181" lon="3.04153">
        <ele>13.8</ele>
        <time>2023-12-30T15:40:56Z</time>
      </trkpt>
      <trkpt lat="43.02182" lon="3.04154">
        <ele>13.8</ele>
        <time>2023-12-30T15:40:57Z</time>
      </trkpt>
      <trkpt lat="43.02183" lon="3.04155">
        <ele>13.8</ele>
        <time>2023-12-30T15:40:58Z</time>
      </trkpt>
      <trkpt lat="43.02184" lon="3.04156">
        <ele>13.6</ele>
        <time>2023-12-30T15:40:59Z</time>
      </trkpt>
      <trkpt lat="43.02185" lon="3.04156">
        <ele>13.6</ele>
        <time>2023-12-30T15:41:00Z</time>
      </trkpt>
      <trkpt lat="43.02189" lon="3.04159">
        <ele>13.8</ele>
        <time>2023-12-30T15:41:03Z</time>
      </trkpt>
      <trkpt lat="43.02189" lon="3.0416">
        <ele>13.8</ele>
        <time>2023-12-30T15:41:04Z</time>
      </trkpt>
      <trkpt lat="43.0219" lon="3.04161">
        <ele>13.8</ele>
        <time>2023-12-30T15:41:05Z</time>
      </trkpt>
      <trkpt lat="43.02192" lon="3.04161">
        <ele>13.8</ele>
        <time>2023-12-30T15:41:06Z</time>
      </trkpt>
      <trkpt lat="43.02199" lon="3.04166">
        <ele>13.8</ele>
        <time>2023-12-30T15:41:10Z</time>
      </trkpt>
      <trkpt lat="43.02202" lon="3.0417">
        <ele>13.8</ele>
        <time>2023-12-30T15:41:13Z</time>
      </trkpt>
      <trkpt lat="43.02206" lon="3.04173">
        <ele>13.8</ele>
        <time>2023-12-30T15:41:16Z</time>
      </trkpt>
      <trkpt lat="43.02213" lon="3.04177">
        <ele>13.8</ele>
        <time>2023-12-30T15:41:20Z</time>
      </trkpt>
      <trkpt lat="43.02214" lon="3.04178">
        <ele>13.8</ele>
        <time>2023-12-30T15:41:21Z</time>
      </trkpt>
      <trkpt lat="43.02216" lon="3.04178">
        <ele>13.8</ele>
        <time>2023-12-30T15:41:22Z</time>
      </trkpt>
      <trkpt lat="43.02217" lon="3.0418">
        <ele>13.8</ele>
        <time>2023-12-30T15:41:23Z</time>
      </trkpt>
      <trkpt lat="43.02218" lon="3.04181">
        <ele>13.8</ele>
        <time>2023-12-30T15:41:24Z</time>
      </trkpt>
      <trkpt lat="43.02219" lon="3.04181">
        <ele>13.6</ele>
        <time>2023-12-30T15:41:25Z</time>
      </trkpt>
      <trkpt lat="43.0222" lon="3.04182">
        <ele>13.6</ele>
        <time>2023-12-30T15:41:26Z</time>
      </trkpt>
      <trkpt lat="43.02221" lon="3.04183">
        <ele>13.6</ele>
        <time>2023-12-30T15:41:27Z</time>
      </trkpt>
      <trkpt lat="43.02221" lon="3.04184">
        <ele>13.6</ele>
        <time>2023-12-30T15:41:28Z</time>
      </trkpt>
      <trkpt lat="43.02221" lon="3.04186">
        <ele>13.6</ele>
        <time>2023-12-30T15:41:31Z</time>
      </trkpt>
      <trkpt lat="43.02221" lon="3.04187">
        <ele>13.8</ele>
        <time>2023-12-30T15:41:32Z</time>
      </trkpt>
      <trkpt lat="43.02221" lon="3.04188">
        <ele>13.8</ele>
        <time>2023-12-30T15:41:33Z</time>
      </trkpt>
      <trkpt lat="43.02221" lon="3.04188">
        <ele>13.8</ele>
        <time>2023-12-30T15:41:34Z</time>
      </trkpt>
      <trkpt lat="43.02221" lon="3.04189">
        <ele>13.8</ele>
        <time>2023-12-30T15:41:35Z</time>
      </trkpt>
      <trkpt lat="43.02222" lon="3.04189">
        <ele>13.8</ele>
        <time>2023-12-30T15:41:36Z</time>
      </trkpt>
    </trkseg>
  </trk>
</gpx>